[[{"header":{"parameterUnit":"m.s-1","parameterCategory":1,"la1":30.6,"la2":28.766,"lo1":-90.7593,"lo2":-88.6598,"dy":0.0162,"dx":0.0183,"nx":116,"ny":114,"refTime":"2023-03-12T06:00:00:Z","depth":0,"parameterNumber":2,"parameterNumberName":"U-component_of_WINDS"},"data":[0.0,0.0,0.0,0.0,0.0,0.0,0.0,0.0,0.0,0.0,0.0,0.0,0.0,0.0,0.0,0.0,0.0,0.0,0.0,0.0,0.0,0.0,0.0,0.0,0.0,0.0,0.0,0.0,0.0,0.0,0.0,0.0,0.0,0.0,0.0,0.0,0.0,0.0,0.0,0.0,0.0,0.0,0.0,0.0,0.0,0.0,0.0,0.0,0.0,0.0,0.0,0.0,0.0,0.0,0.0,0.0,0.0,0.0,0.0,0.0,0.0,0.0,0.0,0.0,0.0,0.0,0.0,0.0,0.0,0.0,0.0,0.0,0.0,0.0,0.0,0.0,0.0,0.0,0.0,0.0,0.0,0.0,0.0,0.0,0.0,0.0,0.0,0.0,0.0,0.0,0.0,0.0,0.0,0.0,0.0,0.0,0.0,0.0,0.0,0.0,0.0,0.0,0.0,0.0,0.0,0.0,0.0,0.0,0.0,0.0,0.0,0.0,0.0,0.0,0.0,0.0,0.0,0.0,0.0,0.0,0.0,0.0,0.0,0.0,0.0,0.0,0.0,0.0,0.0,0.0,0.0,0.0,0.0,0.0,0.0,0.0,0.0,0.0,0.0,0.0,0.0,0.0,0.0,0.0,0.0,0.0,0.0,0.0,0.0,0.0,0.0,0.0,0.0,0.0,0.0,0.0,0.0,0.0,0.0,0.0,0.0,0.0,0.0,0.0,0.0,0.0,0.0,0.0,0.0,0.0,0.0,0.0,0.0,0.0,0.0,0.0,0.0,0.0,0.0,0.0,0.0,0.0,0.0,0.0,0.0,0.0,0.0,0.0,0.0,0.0,0.0,0.0,0.0,0.0,0.0,0.0,0.0,0.0,0.0,0.0,0.0,0.0,0.0,0.0,0.0,0.0,0.0,0.0,0.0,0.0,0.0,0.0,0.0,0.0,0.0,0.0,0.0,0.0,0.0,0.0,0.0,0.0,0.0,0.0,0.0,0.0,0.0,0.0,0.0,0.0,0.0,0.0,0.0,0.0,0.0,0.0,0.0,0.0,0.0,0.0,0.0,0.0,0.0,0.0,0.0,0.0,0.0,0.0,0.0,0.0,0.0,0.0,0.0,0.0,0.0,0.0,0.0,0.0,0.0,0.0,0.0,0.0,0.0,0.0,0.0,0.0,0.0,0.0,0.0,0.0,0.0,0.0,0.0,0.0,0.0,0.0,0.0,0.0,0.0,0.0,0.0,0.0,0.0,0.0,0.0,0.0,0.0,0.0,0.0,0.0,0.0,0.0,0.0,0.0,0.0,0.0,0.0,0.0,0.0,0.0,0.0,0.0,0.0,0.0,0.0,0.0,0.0,0.0,0.0,0.0,0.0,0.0,0.0,0.0,0.0,0.0,0.0,0.0,0.0,0.0,0.0,0.0,0.0,0.0,0.0,0.0,0.0,0.0,0.0,0.0,0.0,0.0,0.0,0.0,0.0,0.0,0.0,0.0,0.0,0.0,0.0,0.0,0.0,0.0,0.0,0.0,0.0,0.0,0.0,0.0,0.0,0.0,0.0,0.0,0.0,0.0,0.0,0.0,0.0,0.0,0.0,0.0,0.0,0.0,0.0,0.0,0.0,0.0,0.0,0.0,0.0,0.0,0.0,0.0,0.0,0.0,0.0,0.0,0.0,0.0,0.0,0.0,0.0,0.0,0.0,0.0,0.0,0.0,0.0,0.0,0.0,0.0,0.0,0.0,0.0,0.0,0.0,0.0,0.0,0.0,0.0,0.0,0.0,0.0,0.0,0.0,0.0,0.0,0.0,0.0,0.0,0.0,0.0,0.0,0.0,0.0,0.0,0.0,0.0,0.0,0.0,0.0,0.0,0.0,0.0,0.0,0.0,0.0,0.0,0.0,0.0,0.0,0.0,0.0,0.0,0.0,0.0,0.0,0.0,0.0,0.0,0.0,0.0,0.0,0.0,0.0,0.0,0.0,0.0,0.0,0.0,0.0,0.0,0.0,0.0,0.0,0.0,0.0,0.0,0.0,0.0,0.0,0.0,0.0,0.0,0.0,0.0,0.0,0.0,0.0,0.0,0.0,0.0,0.0,0.0,0.0,0.0,0.0,0.0,0.0,0.0,0.0,0.0,0.0,0.0,0.0,0.0,0.0,0.0,0.0,0.0,0.0,0.0,0.0,0.0,0.0,0.0,0.0,0.0,0.0,0.0,0.0,0.0,0.0,0.0,0.0,0.0,0.0,0.0,0.0,0.0,0.0,0.0,0.0,0.0,0.0,0.0,0.0,0.0,0.0,0.0,0.0,0.0,0.0,0.0,0.0,0.0,0.0,0.0,0.0,0.0,0.0,0.0,0.0,0.0,0.0,0.0,0.0,0.0,0.0,0.0,0.0,0.0,0.0,0.0,0.0,0.0,0.0,0.0,0.0,0.0,0.0,0.0,0.0,0.0,0.0,0.0,0.0,0.0,0.0,0.0,0.0,0.0,0.0,0.0,0.0,0.0,0.0,0.0,0.0,0.0,0.0,0.0,0.0,0.0,0.0,0.0,0.0,0.0,0.0,0.0,0.0,0.0,0.0,0.0,0.0,0.0,0.0,0.0,0.0,0.0,0.0,0.0,0.0,0.0,0.0,0.0,0.0,0.0,0.0,0.0,0.0,0.0,0.0,0.0,0.0,0.0,0.0,0.0,0.0,0.0,0.0,0.0,0.0,0.0,0.0,0.0,0.0,0.0,0.0,0.0,0.0,0.0,0.0,0.0,0.0,0.0,0.0,0.0,0.0,0.0,0.0,0.0,0.0,0.0,0.0,0.0,0.0,0.0,0.0,0.0,0.0,0.0,0.0,0.0,0.0,0.0,0.0,0.0,0.0,0.0,0.0,0.0,0.0,0.0,0.0,0.0,0.0,0.0,0.0,0.0,0.0,0.0,0.0,0.0,0.0,0.0,0.0,0.0,0.0,0.0,0.0,0.0,0.0,0.0,0.0,0.0,0.0,0.0,0.0,0.0,0.0,0.0,0.0,0.0,0.0,0.0,0.0,0.0,0.0,0.0,0.0,0.0,0.0,0.0,0.0,0.0,0.0,0.0,0.0,0.0,0.0,0.0,0.0,0.0,0.0,0.0,0.0,0.0,0.0,0.0,0.0,0.0,0.0,0.0,0.0,0.0,0.0,0.0,0.0,0.0,0.0,0.0,0.0,0.0,0.0,0.0,0.0,0.0,0.0,0.0,0.0,0.0,0.0,0.0,0.0,0.0,0.0,0.0,0.0,0.0,0.0,0.0,0.0,0.0,0.0,0.0,0.0,0.0,0.0,0.0,0.0,0.0,0.0,0.0,0.0,0.0,0.0,0.0,0.0,0.0,0.0,0.0,0.0,0.0,0.0,0.0,0.0,0.0,0.0,0.0,0.0,0.0,0.0,0.0,0.0,0.0,0.0,0.0,0.0,0.0,0.0,0.0,0.0,0.0,0.0,0.0,0.0,0.0,0.0,0.0,0.0,0.0,0.0,0.0,0.0,0.0,0.0,0.0,0.0,0.0,0.0,0.0,0.0,0.0,0.0,0.0,0.0,0.0,0.0,0.0,0.0,0.0,0.0,0.0,0.0,0.0,0.0,0.0,0.0,0.0,0.0,0.0,0.0,0.0,0.0,0.0,0.0,0.0,0.0,0.0,0.0,0.0,0.0,0.0,0.0,0.0,0.0,0.0,0.0,0.0,0.0,0.0,0.0,0.0,0.0,0.0,0.0,0.0,0.0,0.0,0.0,0.0,0.0,0.0,0.0,0.0,0.0,0.0,0.0,0.0,0.0,0.0,0.0,0.0,0.0,0.0,0.0,0.0,0.0,0.0,0.0,0.0,0.0,0.0,0.0,0.0,0.0,0.0,0.0,0.0,0.0,0.0,0.0,0.0,0.0,0.0,0.0,0.0,0.0,0.0,0.0,0.0,0.0,0.0,0.0,0.0,0.0,0.0,0.0,0.0,0.0,0.0,0.0,0.0,0.0,0.0,0.0,0.0,0.0,0.0,0.0,0.0,0.0,0.0,0.0,0.0,0.0,0.0,0.0,0.0,0.0,0.0,0.0,0.0,0.0,0.0,0.0,0.0,0.0,0.0,0.0,0.0,0.0,0.0,0.0,0.0,0.0,0.0,0.0,0.0,0.0,0.0,0.0,0.0,0.0,0.0,0.0,0.0,0.0,0.0,0.0,0.0,0.0,0.0,0.0,0.0,0.0,0.0,0.0,0.0,0.0,0.0,0.0,0.0,0.0,0.0,0.0,0.0,0.0,0.0,0.0,0.0,0.0,0.0,0.0,0.0,0.0,0.0,0.0,0.0,0.0,0.0,0.0,0.0,0.0,0.0,0.0,0.0,0.0,0.0,0.0,0.0,0.0,0.0,0.0,0.0,0.0,0.0,0.0,0.0,0.0,0.0,0.0,0.0,0.0,0.0,0.0,0.0,0.0,0.0,0.0,0.0,0.0,0.0,0.0,0.0,0.0,0.0,0.0,0.0,0.0,0.0,0.0,0.0,0.0,0.0,0.0,0.0,0.0,0.0,0.0,0.0,0.0,0.0,0.0,0.0,0.0,0.0,0.0,0.0,0.0,0.0,0.0,0.0,0.0,0.0,0.0,0.0,0.0,0.0,0.0,0.0,0.0,0.0,0.0,0.0,0.0,0.0,0.0,0.0,0.0,0.0,0.0,0.0,0.0,0.0,0.0,0.0,0.0,0.0,0.0,0.0,0.0,0.0,0.0,0.0,0.0,0.0,0.0,0.0,0.0,0.0,0.0,0.0,0.0,0.0,0.0,0.0,0.0,0.0,0.0,0.0,0.0,0.0,0.0,0.0,0.0,0.0,0.0,0.0,0.0,0.0,0.0,0.0,0.0,0.0,0.0,0.0,0.0,0.0,0.0,0.0,0.0,0.0,0.0,0.0,0.0,0.0,0.0,0.0,0.0,0.0,0.0,0.0,0.0,0.0,0.0,0.0,0.0,0.0,0.0,0.0,0.0,0.0,0.0,0.0,0.0,0.0,0.0,0.0,0.0,0.0,0.0,0.0,0.0,0.0,0.0,0.0,0.0,0.0,0.0,0.0,0.0,0.0,0.0,0.0,0.0,0.0,0.0,0.0,0.0,0.0,0.0,0.0,0.0,0.0,0.0,0.0,0.0,0.0,0.0,0.0,0.0,0.0,0.0,0.0,0.0,0.0,0.0,0.0,0.0,0.0,0.0,0.0,0.0,0.0,0.0,0.0,0.0,0.0,0.0,0.0,0.0,0.0,0.0,0.0,0.0,0.0,0.0,0.0,0.0,0.0,0.0,0.0,0.0,0.0,0.0,0.0,0.0,0.0,0.0,0.0,0.0,0.0,0.0,0.0,0.0,0.0,0.0,0.0,0.0,0.0,0.0,0.0,0.0,0.0,0.0,0.0,0.0,0.0,0.0,0.0,0.0,0.0,0.0,0.0,0.0,0.0,0.0,0.0,0.0,0.0,0.0,0.0,0.0,0.0,0.0,0.0,0.0,0.0,0.0,0.0,0.0,0.0,0.0,0.0,0.0,0.0,0.0,0.0,0.0,0.0,0.0,0.0,0.0,0.0,0.0,0.0,0.0,0.0,0.0,0.0,0.0,0.0,0.0,0.0,0.0,0.0,0.0,0.0,0.0,0.0,0.0,0.0,0.0,0.0,0.0,0.0,0.0,0.0,0.0,0.0,0.0,0.0,0.0,0.0,0.0,0.0,0.0,0.0,0.0,0.0,0.0,0.0,0.0,0.0,0.0,0.0,0.0,0.0,0.0,0.0,0.0,0.0,0.0,0.0,0.0,0.0,0.0,0.0,0.0,0.0,0.0,0.0,0.0,0.0,0.0,0.0,0.0,0.0,0.0,0.0,0.0,0.0,0.0,0.0,0.0,0.0,0.0,0.0,0.0,0.0,0.0,0.0,0.0,0.0,0.0,0.0,0.0,0.0,0.0,0.0,0.0,0.0,0.0,0.0,0.0,0.0,0.0,0.0,0.0,0.0,0.0,0.0,0.0,0.0,0.0,0.0,0.0,0.0,0.0,0.0,0.0,0.0,0.0,0.0,0.0,0.0,0.0,-6.6428,-6.5117,0.0,0.0,0.0,0.0,0.0,0.0,0.0,0.0,0.0,0.0,0.0,0.0,0.0,0.0,0.0,0.0,0.0,0.0,0.0,0.0,0.0,0.0,0.0,0.0,0.0,0.0,0.0,0.0,0.0,0.0,0.0,0.0,0.0,0.0,0.0,0.0,0.0,0.0,-1.8498,-2.0227,-2.35,-2.264,-2.2841,-2.3679,0.0,0.0,0.0,0.0,0.0,0.0,0.0,0.0,0.0,0.0,0.0,0.0,0.0,0.0,0.0,0.0,0.0,0.0,0.0,0.0,0.0,0.0,0.0,0.0,0.0,0.0,0.0,0.0,0.0,0.0,0.0,0.0,0.0,0.0,0.0,0.0,0.0,0.0,0.0,0.0,0.0,0.0,0.0,0.0,0.0,0.0,0.0,0.0,0.0,0.0,0.0,0.0,0.0,0.0,0.0,0.0,0.0,0.0,0.0,0.0,0.0,0.0,0.0,0.0,0.0,0.0,0.0,0.0,0.0,0.0,-6.8877,-6.7601,0.0,0.0,0.0,0.0,0.0,0.0,0.0,0.0,0.0,0.0,0.0,0.0,0.0,0.0,0.0,0.0,0.0,0.0,0.0,0.0,0.0,0.0,0.0,0.0,-1.3904,-1.3904,-1.3774,-1.375,0.0,0.0,0.0,0.0,0.0,0.0,0.0,0.0,-1.5461,-1.8444,-1.9293,-2.1246,-2.4209,-2.4249,-2.4174,-2.415,-2.4412,0.0,0.0,0.0,0.0,0.0,0.0,0.0,0.0,0.0,0.0,0.0,0.0,0.0,0.0,0.0,0.0,0.0,0.0,0.0,0.0,0.0,0.0,0.0,0.0,0.0,0.0,0.0,0.0,0.0,0.0,0.0,0.0,0.0,0.0,0.0,0.0,0.0,0.0,0.0,0.0,0.0,0.0,0.0,0.0,0.0,0.0,0.0,0.0,0.0,0.0,0.0,0.0,0.0,0.0,0.0,0.0,0.0,0.0,0.0,0.0,0.0,0.0,0.0,-7.138,-7.1877,-7.1946,-7.2981,-7.3119,-7.2464,-7.1843,-7.0843,-6.9635,-6.9532,0.0,0.0,0.0,0.0,0.0,0.0,0.0,0.0,0.0,0.0,0.0,0.0,0.0,0.0,0.0,0.0,0.0,0.0,0.0,0.0,0.0,-1.3904,-1.3904,-1.3904,-1.388,-1.388,0.0,0.0,0.0,0.0,0.0,0.0,0.0,-1.3904,-1.5533,-1.8681,-2.1906,-2.3681,-2.4209,-2.4462,-2.4516,-2.4555,-2.5824,-2.7229,-2.8611,0.0,0.0,0.0,0.0,0.0,0.0,0.0,0.0,0.0,0.0,0.0,0.0,0.0,0.0,0.0,0.0,0.0,0.0,0.0,0.0,0.0,0.0,0.0,0.0,0.0,0.0,0.0,0.0,0.0,0.0,0.0,0.0,0.0,0.0,0.0,0.0,0.0,0.0,0.0,0.0,0.0,-6.6302,-6.5118,0.0,0.0,0.0,0.0,0.0,0.0,0.0,0.0,0.0,0.0,0.0,0.0,0.0,-7.0683,-7.058,-7.1105,-7.136,-7.136,-7.2809,-7.3498,-7.3567,-7.5671,-7.6568,-7.6464,-7.6361,0.0,-7.1153,-7.0498,0.0,0.0,0.0,0.0,0.0,0.0,0.0,0.0,0.0,0.0,0.0,0.0,0.0,0.0,0.0,0.0,0.0,0.0,0.0,0.0,0.0,-1.2683,-1.2735,-1.2735,-1.2735,-1.3032,-1.4058,-1.3961,0.0,0.0,0.0,-1.3904,-1.3904,-1.4854,-1.726,-2.0804,-2.3267,-2.4703,-2.5197,-2.5317,-2.5464,-2.5625,-2.6211,-2.7376,-2.8948,-2.8964,0.0,0.0,0.0,0.0,0.0,0.0,0.0,0.0,0.0,0.0,0.0,0.0,0.0,0.0,0.0,0.0,0.0,0.0,0.0,0.0,0.0,0.0,0.0,0.0,0.0,0.0,0.0,0.0,0.0,0.0,0.0,0.0,0.0,0.0,0.0,0.0,0.0,0.0,0.0,-6.4816,-6.5642,-6.4585,-6.4744,-6.4415,0.0,0.0,0.0,0.0,0.0,0.0,0.0,0.0,0.0,-6.8987,-7.1266,-7.2554,-7.2605,-7.3964,-7.4705,-7.4705,-7.5395,-7.5706,-7.574,-7.6775,-7.7223,-7.7223,-7.7223,-7.6258,-7.4602,-7.3429,-7.2429,-7.1601,0.0,0.0,0.0,0.0,-7.1187,-7.1187,0.0,0.0,0.0,0.0,0.0,0.0,0.0,0.0,0.0,0.0,0.0,0.0,-1.1791,-1.1338,-1.1129,-1.1283,-1.1129,-1.1857,-1.3436,-1.3418,0.0,0.0,0.0,-1.3766,-1.3766,-1.6072,-1.9009,-2.236,-2.4104,-2.5317,-2.5959,-2.6039,-2.6186,-2.6386,-2.6386,-2.7367,-2.8987,-2.8696,-3.0076,-3.2413,0.0,0.0,0.0,0.0,0.0,0.0,0.0,0.0,0.0,0.0,0.0,0.0,0.0,0.0,0.0,0.0,0.0,0.0,0.0,0.0,0.0,0.0,0.0,0.0,0.0,0.0,0.0,0.0,0.0,0.0,0.0,0.0,0.0,0.0,0.0,0.0,0.0,-6.5731,-6.5936,-6.4608,-6.5289,-6.5379,0.0,0.0,0.0,0.0,0.0,0.0,-6.8494,-7.0104,-7.1113,-7.1316,-7.3344,-7.4497,-7.4671,-7.6361,-7.7223,-7.7223,-7.7223,-7.7223,-7.7223,-7.7223,-7.7223,-7.7223,-7.7223,-7.7223,-7.712,-7.5568,-7.4257,-7.3222,-7.2843,-7.2671,-7.2705,-7.2877,-7.2946,-7.2946,0.0,0.0,0.0,0.0,0.0,0.0,0.0,0.0,0.0,0.0,0.0,-1.1796,-1.165,-1.0447,-0.9628,-0.9628,-0.9628,-1.0173,-1.1677,-1.1674,-1.2109,-1.352,-1.349,-1.3401,-1.3401,-1.7196,-2.0343,-2.236,-2.484,-2.5919,-2.5959,-2.6239,-2.6373,-2.6386,-2.6386,-2.7125,-2.8271,-2.9436,-3.0714,-3.2044,-3.2449,0.0,0.0,0.0,0.0,0.0,0.0,0.0,0.0,0.0,0.0,0.0,0.0,0.0,0.0,0.0,0.0,0.0,0.0,0.0,0.0,0.0,0.0,0.0,0.0,0.0,0.0,0.0,0.0,0.0,0.0,0.0,0.0,0.0,0.0,0.0,0.0,0.0,0.0,-6.6621,-6.7544,0.0,0.0,0.0,0.0,-6.9472,-7.0328,-7.0857,-7.0992,-7.312,-7.441,-7.4619,-7.6223,-7.7051,-7.7051,-7.7154,-7.7223,-7.7223,-7.7223,-7.7223,-7.7223,-7.7223,-7.7223,-7.7223,-7.7223,-7.7223,-7.712,-7.5568,-7.4878,-7.4671,-7.3222,-7.2671,-7.2774,-7.3464,-7.374,-7.374,0.0,0.0,0.0,0.0,0.0,0.0,0.0,0.0,-1.3611,-1.2595,-1.2011,-1.0932,-0.9024,-0.829,-0.8085,-0.8089,-0.8148,-0.8903,-1.0306,-1.1135,-1.1818,-1.2102,-1.2967,-1.4492,-1.6957,-1.8852,-2.1291,-2.4428,-2.5396,-2.6052,-2.6239,-2.6346,-2.6386,-2.6386,-2.6386,-2.6635,-2.7125,-2.9169,-3.0958,-3.2381,-3.3049,-3.323,0.0,0.0,0.0,0.0,0.0,0.0,0.0,0.0,0.0,0.0,0.0,0.0,0.0,0.0,0.0,0.0,0.0,0.0,0.0,0.0,0.0,0.0,0.0,0.0,0.0,0.0,0.0,0.0,0.0,0.0,0.0,0.0,0.0,0.0,0.0,0.0,0.0,-6.8436,-6.9951,0.0,-6.9438,-6.9659,-7.029,-7.1319,-7.2674,-7.3534,-7.3534,-7.5342,-7.6307,-7.6395,-7.6947,-7.7223,-7.7223,-7.7223,-7.7223,-7.7223,-7.7223,-7.7223,-7.7223,-7.7223,-7.7223,-7.7223,-7.7223,-7.7223,-7.7189,-7.6637,-7.6395,-7.6361,-7.5809,-7.5602,-7.5637,-7.5913,-7.5982,-7.5982,0.0,0.0,0.0,0.0,0.0,0.0,0.0,0.0,-1.334,-1.1798,-1.1205,-0.9979,-0.7348,-0.6728,-0.6502,-0.6656,-0.6704,-0.7452,-0.9413,-1.0252,-1.1188,-1.1945,-1.2904,-1.492,-1.8238,-1.8926,-2.0691,-2.3928,-2.4841,-2.54,-2.5581,-2.607,-2.6386,-2.6386,-2.6386,-2.6386,-2.6517,-2.8828,-3.0807,-3.2408,-3.3283,-3.3603,-3.3853,0.0,0.0,0.0,0.0,0.0,0.0,0.0,0.0,0.0,0.0,0.0,0.0,0.0,0.0,0.0,0.0,0.0,0.0,0.0,0.0,0.0,0.0,0.0,0.0,0.0,0.0,0.0,0.0,0.0,0.0,0.0,0.0,0.0,0.0,0.0,-6.9697,-6.9644,-7.1559,-7.245,-7.1764,-7.2073,-7.2829,-7.3912,-7.5032,-7.5706,-7.5706,-7.6671,-7.7223,-7.7223,-7.7223,-7.7223,-7.7223,-7.7223,-7.7223,-7.7223,-7.7223,-7.7223,-7.7223,-7.7223,-7.7223,-7.7223,-7.7223,-7.7223,-7.7223,-7.7223,-7.7223,-7.7223,-7.7223,-7.7223,-7.7223,-7.7223,-7.7223,-7.7223,0.0,0.0,0.0,0.0,0.0,0.0,0.0,-1.3904,-1.3387,-1.1789,-1.0453,-0.893,-0.7366,-0.5913,-0.5022,-0.5022,-0.5022,-0.6172,-0.8907,-0.8915,-1.0113,-1.299,-1.3303,-1.4656,-1.7057,-1.7454,-1.8638,-2.0867,-2.2715,-2.3816,-2.3816,-2.5581,-2.6386,-2.6386,-2.64,-2.64,-2.6571,-2.8431,-3.0287,-3.198,-3.281,-3.3933,-3.5045,0.0,0.0,0.0,0.0,0.0,0.0,0.0,0.0,0.0,0.0,0.0,0.0,0.0,0.0,0.0,0.0,0.0,0.0,0.0,0.0,0.0,0.0,0.0,0.0,0.0,0.0,0.0,0.0,0.0,0.0,0.0,0.0,0.0,-6.7536,-7.0221,-7.1342,-7.0487,-7.2239,-7.3513,-7.3269,-7.4306,-7.5602,-7.712,-7.7223,-7.7223,-7.7223,-7.7223,-7.7223,-7.7223,-7.7223,-7.7223,-7.7223,-7.7223,-7.7223,-7.7223,-7.7223,-7.7223,-7.7223,-7.7223,-7.7223,-7.7223,-7.7223,-7.7223,-7.7223,-7.7223,-7.7223,-7.7223,-7.7223,-7.7223,-7.7223,-7.7223,-7.7223,-7.7223,0.0,0.0,0.0,0.0,0.0,0.0,0.0,-1.3904,-1.2949,-1.0322,-0.9711,-0.8483,-0.5845,-0.5139,-0.5022,-0.5022,-0.5022,-0.5733,-0.7523,-0.8377,-1.0155,-1.3175,-1.3969,-1.5189,-1.7076,-1.7883,-1.9105,-2.0867,-2.1585,-2.251,-2.3816,-2.4295,-2.5263,-2.64,-2.6613,-2.6707,-2.672,-2.7486,-2.9029,-3.0967,-3.3364,-3.5146,-3.6329,0.0,0.0,0.0,0.0,0.0,0.0,0.0,0.0,0.0,0.0,0.0,0.0,0.0,0.0,0.0,0.0,0.0,0.0,0.0,0.0,0.0,0.0,0.0,0.0,0.0,0.0,0.0,0.0,0.0,0.0,0.0,0.0,-6.7749,-7.0737,-7.1987,-7.288,-7.3855,-7.4992,-7.5754,-7.6025,-7.6162,-7.6562,-7.7189,-7.7223,-7.7223,-7.7223,-7.7223,-7.7223,-7.7223,-7.7223,-7.7223,-7.7223,-7.7223,-7.7223,-7.7223,-7.7223,-7.7223,-7.7223,-7.7223,-7.7223,-7.7223,-7.7223,-7.7223,-7.7223,-7.7223,-7.7223,-7.7223,-7.7223,-7.7223,-7.7223,-7.7223,-7.7223,-7.7223,0.0,0.0,0.0,0.0,0.0,0.0,0.0,-1.3904,-1.2827,-0.9809,-0.9446,-0.8347,-0.5272,-0.5,-0.5022,-0.5022,-0.4976,-0.5809,-0.7738,-0.9701,-1.1754,-1.3777,-1.4432,-1.5295,-1.6525,-1.6977,-1.7727,-1.8779,-1.9695,-2.0565,-2.1706,-2.3164,-2.4357,-2.5442,-2.6413,-2.6894,-2.7028,-2.7321,-2.8509,-3.0454,-3.2342,-3.3776,-3.5036,-3.6453,-3.6261,-3.5139,-3.5903,-3.6645,-3.7161,-3.7105,0.0,0.0,0.0,0.0,0.0,0.0,0.0,0.0,0.0,0.0,0.0,0.0,0.0,0.0,0.0,0.0,0.0,0.0,0.0,0.0,0.0,0.0,0.0,0.0,-6.6065,-6.9181,-7.2567,-7.351,-7.4116,-7.5399,-7.6187,-7.6679,-7.6862,-7.6918,-7.7009,-7.7223,-7.7223,-7.7223,-7.7223,-7.7223,-7.7223,-7.7223,-7.7223,-7.7223,-7.7223,-7.7223,-7.7223,-7.7223,-7.7223,-7.7223,-7.7223,-7.7223,-7.7223,-7.7223,-7.7223,-7.7223,-7.7223,-7.7223,-7.7223,-7.7223,0.0,0.0,0.0,0.0,-7.7223,-7.7223,0.0,0.0,0.0,0.0,0.0,0.0,0.0,-1.3904,-1.2865,-0.9904,-0.9489,-0.837,-0.5318,-0.5022,-0.5022,-0.5022,-0.4913,-0.5982,-0.8724,-1.1818,-1.388,-1.4676,-1.4781,-1.5122,-1.5764,-1.5796,-1.5886,-1.6048,-1.7492,-1.8463,-1.8626,-2.2061,-2.3824,-2.4202,-2.6073,-2.7068,-2.7335,-2.7629,-2.8731,-3.005,-3.0671,-3.1405,-3.2618,-3.5973,-3.5858,-3.4177,-3.5912,-3.6549,-3.6699,-3.7538,0.0,0.0,0.0,0.0,0.0,0.0,0.0,0.0,0.0,0.0,0.0,0.0,0.0,0.0,0.0,0.0,0.0,0.0,0.0,0.0,0.0,0.0,0.0,0.0,-6.6976,-6.9446,-7.3233,-7.4493,-7.5247,-7.5737,-7.6334,-7.6645,-7.6495,-7.6862,-7.7133,-7.7133,-7.7223,-7.7223,-7.7223,-7.7223,0.0,0.0,0.0,-7.7223,-7.7223,-7.7223,-7.7223,-7.7223,-7.7223,-7.7223,-7.7223,-7.7223,-7.7223,-7.7223,-7.7223,-7.7223,-7.7223,-7.7223,-7.7223,-7.7223,-7.7223,-7.7223,-7.7223,-7.7223,-7.7223,-7.7223,0.0,0.0,0.0,0.0,0.0,0.0,0.0,-1.3904,-1.2865,-0.9904,-0.9489,-0.837,-0.5318,-0.5022,-0.5022,-0.5022,-0.4913,-0.6134,-0.9013,-1.2472,-1.4529,-1.47,-1.526,-1.5634,-1.5772,-1.5918,-1.6008,-1.6048,-1.6369,-1.7173,-1.8626,-2.109,-2.2841,-2.4226,-2.6488,-2.7562,-2.7629,-2.7936,-2.8224,-2.8728,-3.0274,-3.1692,-3.3353,-3.5451,-3.6005,-3.576,-3.7878,-3.864,-3.8603,-3.843,-3.9099,-3.9721,-3.9256,0.0,0.0,0.0,0.0,0.0,0.0,0.0,0.0,0.0,0.0,0.0,0.0,0.0,0.0,0.0,0.0,0.0,0.0,0.0,0.0,-6.4847,-6.8603,-7.1616,-7.2461,-7.4306,-7.5635,-7.5994,-7.5994,-7.6088,-7.6495,-7.6587,-7.6679,-7.6918,-7.7099,-7.7223,-7.7223,-7.7223,-7.7223,-7.7223,-7.7223,-7.7223,-7.7223,-7.7223,-7.7223,-7.7223,-7.7223,0.0,-7.7223,-7.7223,-7.7223,-7.7223,-7.7223,-7.7223,-7.7223,-7.7223,-7.7223,-7.7223,-7.7223,-7.7223,-7.7223,-7.7223,-7.7223,-7.7223,0.0,0.0,0.0,0.0,0.0,0.0,0.0,-1.3904,-1.3123,-1.086,-1.0589,-0.9766,-0.7515,-0.7185,-0.7161,-0.7161,-0.6892,-0.7534,-0.9232,-1.1898,-1.3625,-1.396,-1.5097,-1.5813,-1.591,-1.5999,-1.6048,-1.6048,-1.6048,-1.6575,-1.7478,-1.9386,-2.1376,-2.3442,-2.5379,-2.6929,-2.7936,-2.8083,-2.8136,-2.8318,-2.9312,-3.0197,-3.1357,-3.398,-3.4309,-3.4029,-3.7059,-3.8199,-3.8345,-3.8977,-3.9548,-3.9917,-3.9299,-4.0488,-4.1969,0.0,0.0,0.0,0.0,0.0,0.0,0.0,0.0,0.0,0.0,0.0,0.0,0.0,0.0,-6.1933,0.0,0.0,-6.5503,-6.5842,-6.8527,-7.1044,-7.21,-7.3258,-7.4439,-7.5709,-7.5994,-7.6216,-7.6495,-7.6679,-7.6862,-7.7009,-7.7099,-7.7223,-7.7223,-7.7223,-7.7223,-7.7223,-7.7223,-7.7223,-7.7223,-7.7223,-7.7223,-7.7223,-7.7223,-7.7223,-7.7223,-7.7223,-7.7223,-7.7223,-7.7223,-7.7223,-7.7223,-7.7223,-7.7223,-7.7223,-7.7223,-7.7223,-7.7223,-7.7223,-7.7223,-7.7223,0.0,0.0,0.0,0.0,0.0,0.0,0.0,-1.3904,-1.3387,-1.1935,-1.1663,-1.1123,-0.9595,-0.9229,-0.9145,-0.9076,-0.9066,-0.9238,-0.9894,-1.1415,-1.2773,-1.3619,-1.4985,-1.5894,-1.604,-1.6048,-1.6064,-1.6097,-1.6097,-1.6186,-1.6357,-1.8217,-2.0249,-2.2457,-2.4362,-2.6205,-2.8136,-2.8136,-2.8177,-2.8257,-2.8511,-2.8644,-2.9028,-3.1925,-3.2233,-3.1896,-3.5774,-3.7124,-3.7136,-3.9467,-3.9923,-3.9703,-3.9612,-4.1056,-4.2405,-4.1474,-4.3148,0.0,0.0,0.0,0.0,0.0,0.0,0.0,0.0,0.0,-6.0093,-6.3689,-6.4666,-6.4888,-6.4888,-6.5996,-6.6919,-6.6919,-6.8228,-6.9953,-7.1993,-7.2526,-7.3361,-7.5484,-7.6088,-7.6309,-7.6309,-7.6771,-7.7043,-7.7043,-7.7133,-7.7223,-7.7223,-7.7223,-7.7223,-7.7223,-7.7223,-7.7223,-7.7223,-7.7223,-7.7223,-7.7223,-7.7223,-7.7223,-7.7223,-7.7223,-7.7223,-7.7223,-7.7223,-7.7292,-7.7465,-7.7465,-7.7534,-7.7672,-7.7672,-7.7672,-7.7637,-7.7499,-7.7465,-7.7465,0.0,0.0,0.0,0.0,0.0,0.0,0.0,0.0,-1.3387,-1.1935,-1.1663,-1.1085,-0.9487,-0.9181,-0.9044,-0.8728,-0.9216,-1.0156,-1.1677,-1.2467,-1.3742,-1.5432,-1.5763,-1.6024,-1.6048,-1.6048,-1.6121,-1.6276,-1.6276,-1.6373,-1.6552,-1.8569,-2.0547,-2.2468,-2.455,-2.6381,-2.8136,-2.8136,-2.831,-2.8564,-2.8591,-2.8764,-2.9018,-2.9798,-3.0761,-3.2238,-3.6137,-3.6987,-3.6516,-3.992,-4.0198,-3.9483,-4.0529,-4.1335,-4.1829,-4.1852,0.0,-4.3564,-4.637,-5.0262,-5.3737,-5.4272,-5.5275,-5.6542,0.0,0.0,-6.0787,-6.2639,-6.4015,-6.4888,-6.4888,-6.5996,-6.6919,-6.6919,-6.8851,-7.0822,-7.21,-7.3187,-7.424,-7.558,-7.5805,-7.5805,-7.5805,-7.6309,-7.6587,-7.6587,-7.6953,-7.7223,-7.7223,-7.7223,-7.7223,-7.7223,-7.7223,-7.7223,-7.7223,-7.7223,-7.7223,-7.7223,-7.7223,-7.7223,-7.7223,-7.7223,-7.7223,-7.7223,-7.7223,-7.7637,-7.8292,-7.8292,-7.8672,-7.9258,-7.9258,-7.9258,-7.9189,-7.8499,-7.8292,-7.8361,0.0,0.0,0.0,0.0,0.0,0.0,0.0,0.0,0.0,0.0,-1.2994,-1.2669,-1.1858,-1.1543,-1.1324,-1.1042,-1.0934,-1.1026,-1.1797,-1.2644,-1.3619,-1.4437,-1.5506,-1.6048,-1.6048,-1.6146,-1.6227,-1.63,-1.6414,-1.656,-1.6738,-1.7493,-1.8958,-2.0948,-2.2922,-2.4861,-2.6601,-2.7984,-2.8484,-2.8631,-2.8978,-2.9004,-2.896,-2.9442,-2.9824,-3.034,-3.4017,-3.5079,0.0,-3.8758,-3.9648,-3.9447,-4.0675,-4.1796,-4.2684,-4.2281,-4.3284,0.0,-4.979,-5.1793,-5.3464,0.0,-5.7195,-5.8178,-6.0539,-6.1385,-6.254,-6.5676,-6.6821,-6.7227,-6.7227,-6.7689,-6.8058,0.0,-6.8953,-7.0293,-7.21,-7.2737,-7.3701,-7.5484,-7.5805,-7.5994,-7.6182,-7.6587,-7.6953,-7.6953,-7.7133,-7.7223,-7.7223,-7.7223,-7.7223,-7.7223,-7.7223,-7.7223,-7.7223,-7.7223,-7.7223,-7.7223,-7.7223,-7.7223,-7.7223,-7.7223,-7.7465,-7.7948,-7.8361,-7.8741,-7.9051,-7.9051,-7.9224,-7.95,-7.95,-7.95,-7.9465,-7.9155,-7.9051,-7.9086,0.0,0.0,0.0,0.0,0.0,0.0,0.0,0.0,0.0,0.0,-1.3863,-1.3742,-1.3514,-1.3214,-1.297,-1.2848,-1.2013,-1.1789,-1.2473,-1.2977,-1.3464,-1.4038,-1.5381,-1.6064,-1.6113,-1.6235,-1.6357,-1.6454,-1.6592,-1.6747,-1.6925,-1.6925,-1.8018,-2.0047,-2.1251,-2.3181,-2.5677,-2.7101,-2.8168,-2.8885,-2.9312,-2.9349,-2.9073,-2.9654,-2.9462,-2.9047,-3.2644,-3.3541,-3.3816,-3.7702,-3.8841,-3.8786,-4.0488,-4.1733,-4.2624,-4.2382,-4.3891,-4.6681,-5.1078,0.0,0.0,-5.7409,-5.8671,-5.956,-6.1582,-6.2704,-6.4064,-6.7155,-6.8386,-6.8889,-6.8889,-6.8889,-6.8889,-6.8889,-6.8889,-6.9756,-7.1993,-7.2314,-7.3154,-7.5484,-7.6028,-7.6309,-7.6587,-7.6828,-7.7133,-7.7133,-7.7133,-7.7223,-7.7223,-7.7223,-7.7223,-7.7223,-7.7223,-7.7223,-7.7223,-7.7223,-7.7223,-7.7223,-7.743,-7.7534,-7.7568,-7.7775,-7.8154,-7.8741,-7.9293,-7.9638,-7.981,-7.981,-7.9948,-8.0155,-8.0155,-8.0155,-8.0155,-8.0155,-8.0017,-7.9844,0.0,0.0,0.0,0.0,0.0,0.0,0.0,0.0,0.0,0.0,0.0,0.0,0.0,-1.2954,-1.284,-1.284,-1.1812,-1.2001,-1.4244,-1.3399,-1.3728,-1.5859,-1.6048,-1.6121,-1.6292,-1.63,-1.6479,-1.6836,-1.6844,-1.6933,-1.7104,-1.7104,-1.8147,-1.9873,-2.0047,-2.2058,-2.5759,-2.5944,-2.7321,-2.9459,-2.9472,-2.9646,-2.99,-2.9913,-2.9566,-2.9393,-3.309,-3.3265,-3.2451,0.0,-3.7888,-3.727,-3.9698,-4.0391,0.0,-4.22,-4.3883,0.0,0.0,0.0,-5.415,-5.7138,-5.899,-6.0261,-6.0701,-6.2877,-6.4793,-6.4949,-6.7093,-6.8889,-6.8889,-6.8889,-6.8889,-6.8889,-6.8889,-6.9756,-7.1993,-7.2314,-7.3258,-7.5805,-7.6309,-7.6587,0.0,-7.6793,-7.6793,-7.6793,-7.7009,-7.7223,-7.7223,-7.7223,-7.7223,-7.7223,-7.7223,-7.7223,-7.7223,-7.7223,-7.7223,-7.7223,-7.8017,-7.8361,-7.8396,-7.912,-7.9465,-7.9465,-7.95,-7.9913,-8.0603,-8.0603,-8.1052,-8.1741,-8.1741,-8.1741,-8.1741,-8.1741,-8.1259,-8.0707,0.0,0.0,0.0,0.0,0.0,0.0,0.0,0.0,0.0,0.0,0.0,0.0,0.0,0.0,0.0,0.0,0.0,-1.3356,-1.4245,-1.4523,-1.4859,-1.5683,-1.6032,-1.6243,-1.63,-1.6544,-1.673,-1.6852,-1.6966,-1.7055,-1.7112,-1.7112,-1.7455,-1.8156,-1.9499,-2.0823,-2.2122,-2.509,-2.6766,-2.7674,-2.9139,-2.9641,-2.9502,-2.9309,-2.9367,-2.9921,0.0,-3.2346,-3.2189,0.0,0.0,0.0,-3.9622,0.0,0.0,-4.2598,0.0,0.0,0.0,0.0,-5.3969,-5.7999,-5.9605,-6.0453,-6.1491,-6.3272,-6.5076,-6.5985,-6.6942,-6.7566,-6.7566,-6.7566,-6.7566,-6.7566,-6.8304,-6.9756,-7.1993,-7.2314,-7.3258,-7.5805,-7.6309,0.0,0.0,0.0,0.0,-7.7099,-7.7133,-7.7223,-7.7223,-7.7223,-7.7223,-7.7223,-7.7223,-7.7223,-7.7223,-7.7741,-7.8017,-7.8017,-7.8775,-7.9155,-7.9155,-7.9913,-8.0258,-8.0258,-8.081,-8.119,-8.1397,-8.1397,-8.1569,-8.181,-8.181,-8.181,-8.181,-8.181,-8.1638,-8.1431,0.0,0.0,0.0,0.0,0.0,0.0,0.0,0.0,0.0,0.0,0.0,0.0,0.0,0.0,0.0,0.0,0.0,0.0,-1.4164,-1.4773,-1.5212,-1.5407,-1.574,-1.5983,-1.6113,-1.6349,-1.6503,-1.6568,-1.6803,-1.6925,-1.6925,-1.7047,-1.7145,-1.721,-1.8557,-1.9569,-2.06,-2.3379,-2.5259,-2.6447,-2.789,-2.8752,-2.8881,-2.8685,-2.9248,0.0,-3.1703,-3.236,0.0,0.0,0.0,0.0,0.0,0.0,0.0,0.0,0.0,0.0,0.0,-5.216,-5.3661,-5.8324,-5.9787,-6.0315,-6.122,-6.3141,-6.5076,-6.5985,-6.6579,-6.6919,-6.6919,-6.6519,-6.6211,-6.6211,-6.6919,-6.8251,-7.0652,-7.1038,-7.2046,-7.5094,-7.5771,-7.6148,0.0,0.0,0.0,-7.7223,-7.7223,-7.7223,-7.7223,-7.7223,-7.7223,-7.7223,-7.7499,-7.7637,-7.7637,-7.8396,-7.8948,-7.9189,-7.9672,-8.0051,-8.0362,-8.081,-8.1052,-8.1086,-8.1569,-8.181,-8.181,-8.181,-8.181,-8.181,-8.181,-8.181,-8.181,-8.181,-8.181,-8.181,0.0,0.0,0.0,0.0,0.0,0.0,0.0,0.0,0.0,0.0,0.0,0.0,0.0,0.0,0.0,0.0,0.0,0.0,-1.414,-1.4343,-1.4676,-1.5187,-1.5244,-1.5423,-1.5764,-1.578,-1.5869,-1.6048,-1.6389,-1.656,-1.6576,-1.6909,-1.7169,-1.7348,-1.7356,-1.8604,-2.0733,-2.0924,-2.2968,-2.6134,-2.6146,-2.7056,-2.8136,-2.8278,-2.8882,-3.0114,-3.1666,0.0,0.0,0.0,0.0,0.0,0.0,0.0,0.0,0.0,0.0,-4.5833,-5.0862,-5.2308,-5.347,-5.7926,-5.9368,-5.9648,-6.0039,-6.2641,-6.4793,-6.4735,-6.5862,-6.6796,0.0,0.0,-6.4888,-6.4888,-6.5011,-6.5947,-6.8342,-6.8749,-7.0161,0.0,0.0,0.0,0.0,0.0,0.0,-7.7223,0.0,-7.7223,-7.7223,-7.7258,-7.7292,-7.7292,-7.8051,-7.8465,-7.8465,-7.9189,-7.9948,-8.0672,-8.0672,-8.1086,-8.181,-8.181,-8.181,-8.181,-8.181,-8.181,-8.181,-8.181,-8.181,-8.181,-8.181,-8.181,-8.181,-8.181,-8.181,-8.181,0.0,0.0,0.0,0.0,0.0,0.0,0.0,0.0,0.0,0.0,0.0,0.0,0.0,0.0,0.0,0.0,0.0,0.0,-1.3953,-1.4391,-1.47,-1.4838,-1.535,-1.5683,-1.5772,-1.591,-1.5999,-1.6048,-1.6137,-1.6243,-1.6373,-1.647,-1.6609,-1.6795,-1.6925,-1.807,-1.9883,-2.1423,-2.338,-2.559,-2.6974,-2.7931,-2.8265,-2.91,-3.0262,-3.1794,0.0,0.0,0.0,0.0,0.0,0.0,0.0,0.0,-4.5325,0.0,0.0,-4.7587,-5.1265,-5.2839,-5.4255,-5.7824,-5.9088,-5.9648,-5.9787,-6.2375,-6.4561,-6.3478,-6.4366,-6.5103,0.0,0.0,0.0,-6.4888,-6.6581,0.0,-6.9919,-7.0062,0.0,-7.4339,0.0,-7.5383,-7.6918,-7.7133,0.0,0.0,-7.7223,-7.7223,-7.7223,-7.7775,-7.8085,-7.8085,-7.8844,-7.9224,-7.9224,-7.9982,-8.0741,-8.15,-8.15,-8.1603,-8.181,-8.181,-8.181,-8.181,-8.181,-8.181,-8.181,-8.181,-8.181,-8.181,-8.181,-8.181,-8.181,-8.181,-8.181,-8.181,0.0,0.0,0.0,0.0,0.0,0.0,0.0,0.0,0.0,0.0,0.0,0.0,0.0,0.0,0.0,0.0,0.0,0.0,0.0,-1.431,-1.4546,-1.47,-1.509,-1.5342,-1.5415,-1.552,-1.561,-1.5691,-1.5853,-1.6016,-1.6194,-1.6349,-1.6858,-1.7878,-1.7991,-1.8931,-2.0726,-2.188,-2.3369,0.0,0.0,-2.6926,-2.7499,-2.8891,-3.0317,0.0,0.0,0.0,0.0,0.0,0.0,-4.1686,-4.2189,-4.4008,-4.609,-4.6526,0.0,-4.8319,-5.1953,-5.3245,-5.4597,-5.7901,-5.9228,-5.9515,-5.912,-6.1566,-6.3506,-6.2232,-6.3104,0.0,-6.2948,0.0,0.0,0.0,0.0,0.0,-6.8789,-6.9493,-7.0856,0.0,-7.4439,0.0,-7.6918,-7.7133,-7.7361,0.0,-7.743,-7.7361,-7.7706,-7.8154,-7.8568,-7.8879,-7.9603,-8.0155,-8.05,-8.0914,-8.1362,-8.181,-8.181,-8.181,-8.181,-8.181,-8.181,-8.181,-8.181,-8.181,-8.181,-8.181,-8.181,-8.181,-8.181,-8.181,-8.181,-8.181,-8.181,-8.181,0.0,0.0,0.0,0.0,0.0,0.0,0.0,0.0,0.0,0.0,0.0,0.0,0.0,0.0,0.0,0.0,0.0,0.0,0.0,0.0,0.0,0.0,-1.4732,-1.4814,-1.496,0.0,0.0,0.0,0.0,-1.5804,-1.6016,-1.6492,-1.7739,-1.9269,-1.9609,-2.0727,-2.2439,-2.2439,-2.3225,-2.4656,-2.4656,-2.5362,-2.6544,0.0,0.0,0.0,0.0,0.0,0.0,0.0,-4.0411,-4.2531,-4.2651,-4.4384,-4.6548,-4.7422,-4.7684,-4.8586,-5.2538,-5.3678,-5.4573,-5.8186,-5.9368,-5.9467,-5.8806,-6.079,-6.2499,-6.1287,0.0,-6.2764,-6.2579,-6.2702,-6.2887,-6.3071,0.0,-6.5626,-6.6981,-6.8311,-6.9861,-7.2226,-7.3906,-7.5349,-7.6485,-7.7112,-7.7672,-7.8361,-7.7844,-7.781,-7.8499,-7.8637,-7.9051,-7.9776,-8.0431,-8.1121,-8.181,-8.181,-8.181,-8.181,-8.181,-8.181,-8.181,-8.181,-8.181,-8.181,-8.181,-8.181,-8.181,-8.181,-8.181,-8.181,-8.181,-8.181,-8.181,-8.181,-8.181,-8.181,0.0,0.0,0.0,0.0,0.0,0.0,0.0,0.0,0.0,0.0,-1.3872,-1.3872,0.0,0.0,0.0,0.0,0.0,0.0,0.0,0.0,0.0,0.0,-1.4846,-1.4935,0.0,0.0,0.0,0.0,0.0,0.0,-1.5821,-1.7332,-1.8272,-1.8787,-2.0252,-2.1915,-2.3596,-2.3596,-2.4517,-2.6056,-2.6056,-2.6149,-2.6702,0.0,0.0,0.0,0.0,0.0,0.0,0.0,-4.1739,-4.3735,-4.4301,-4.6309,-4.8427,-4.8602,-4.8667,-4.9451,-5.275,-5.3678,-5.4573,-5.8186,-5.9368,-5.9579,-5.9819,-6.143,0.0,0.0,-6.183,-6.2487,-6.1348,-6.2056,0.0,-6.4364,0.0,0.0,0.0,0.0,-6.9929,0.0,0.0,0.0,0.0,0.0,0.0,0.0,-7.8844,-7.9189,-7.9327,-7.9913,-8.0603,-8.1397,-8.1535,-8.1672,-8.181,-8.181,-8.181,-8.181,-8.181,-8.181,-8.181,-8.181,-8.181,-8.181,-8.181,-8.181,-8.181,-8.181,-8.181,-8.181,-8.181,-8.181,-8.181,-8.181,-8.181,-8.181,0.0,0.0,0.0,0.0,0.0,0.0,0.0,-1.5026,-1.4742,-1.4039,-1.3904,-1.3904,-1.3904,-1.3904,0.0,0.0,0.0,0.0,0.0,0.0,0.0,0.0,0.0,0.0,0.0,0.0,0.0,0.0,0.0,0.0,0.0,0.0,0.0,0.0,0.0,0.0,0.0,0.0,-2.5581,0.0,0.0,0.0,0.0,0.0,0.0,0.0,0.0,0.0,0.0,0.0,-4.2086,-4.479,-4.5694,-4.7272,-4.8907,-4.8907,-4.8907,-4.9651,-5.2798,-5.3828,-5.4869,-5.847,-5.9648,-5.983,-5.9672,0.0,0.0,0.0,-6.0866,-6.1563,-6.0917,0.0,0.0,0.0,0.0,0.0,0.0,0.0,0.0,0.0,0.0,0.0,0.0,0.0,0.0,-7.9407,-7.9342,-7.9453,-8.0086,-8.081,-8.1397,-8.1776,-8.181,-8.181,-8.181,-8.181,-8.181,-8.181,-8.181,-8.181,-8.181,-8.181,-8.181,-8.181,-8.181,-8.181,-8.181,-8.181,-8.181,-8.181,-8.181,-8.181,-8.181,-8.181,-8.181,-8.181,0.0,0.0,0.0,0.0,0.0,0.0,0.0,-1.6574,-1.615,-1.5026,-1.4884,-1.4901,-1.4936,-1.4382,-1.4018,0.0,0.0,0.0,0.0,0.0,0.0,0.0,0.0,0.0,0.0,0.0,0.0,0.0,0.0,0.0,0.0,0.0,0.0,0.0,0.0,0.0,0.0,0.0,0.0,0.0,0.0,0.0,0.0,0.0,0.0,0.0,0.0,0.0,0.0,0.0,-4.1947,-4.5146,-4.6363,-4.7619,-4.8602,-4.8602,-4.8894,-4.9829,-5.2878,-5.4275,-5.5605,-5.8753,-5.99,-6.0077,-5.9529,-6.0079,0.0,0.0,-6.0136,-6.0794,-6.0794,0.0,0.0,0.0,0.0,0.0,0.0,0.0,0.0,0.0,0.0,0.0,0.0,0.0,0.0,-8.0089,-7.9586,-7.9688,-8.0785,-8.1466,-8.181,-8.181,-8.181,-8.1681,-8.1455,-8.1455,-8.1455,-8.1455,-8.1455,-8.1585,-8.181,-8.181,-8.181,-8.181,-8.181,-8.181,-8.181,-8.181,-8.181,-8.181,-8.181,-8.181,-8.181,-8.181,-8.181,-8.181,0.0,0.0,0.0,0.0,0.0,0.0,0.0,-1.8239,-1.81,-1.7959,-1.7959,-1.8044,-1.8386,-1.5858,-1.4156,0.0,0.0,0.0,0.0,0.0,0.0,0.0,0.0,0.0,0.0,0.0,0.0,0.0,0.0,0.0,0.0,0.0,0.0,0.0,0.0,0.0,0.0,0.0,0.0,0.0,0.0,0.0,0.0,0.0,0.0,0.0,0.0,0.0,0.0,0.0,0.0,-4.351,-4.5512,-4.6724,-4.7619,-4.7619,0.0,0.0,-5.2989,-5.5016,-5.6963,-5.9035,-5.99,-6.0348,-6.0499,0.0,0.0,-6.0685,-6.069,-6.0794,-6.0794,-6.0886,-6.1379,0.0,0.0,-6.4166,0.0,0.0,0.0,0.0,0.0,0.0,0.0,0.0,0.0,-7.9022,-7.9532,-8.0471,-8.1578,-8.1776,-8.181,-8.181,-8.181,-8.1228,-8.024,-8.014,-8.014,-8.014,-8.014,-8.077,-8.181,-8.181,-8.181,-8.181,-8.181,-8.181,-8.181,-8.181,-8.181,-8.181,-8.181,-8.181,-8.181,-8.181,-8.181,-8.181,0.0,0.0,0.0,0.0,0.0,0.0,-1.9924,-1.9785,-1.9367,-1.8519,-1.8509,-1.8627,-1.8724,-1.7979,-1.6978,-1.5963,0.0,0.0,0.0,0.0,0.0,0.0,0.0,0.0,0.0,0.0,0.0,0.0,0.0,0.0,0.0,0.0,0.0,0.0,0.0,0.0,0.0,0.0,0.0,0.0,0.0,0.0,0.0,0.0,0.0,0.0,0.0,0.0,0.0,0.0,0.0,0.0,-4.422,-4.5512,0.0,0.0,-4.8664,-5.048,-5.324,-5.5458,-5.7512,-5.9455,-5.9666,-5.9741,-6.0602,0.0,0.0,-6.0638,-6.0794,-6.0794,-6.0794,-6.0794,-6.0978,-6.1502,0.0,0.0,0.0,0.0,0.0,0.0,0.0,0.0,0.0,0.0,0.0,-7.7421,-7.8358,-7.9187,-7.9633,-8.0374,-8.0672,-8.0672,-8.0672,-8.014,-7.8946,-7.8979,-7.9257,-8.0006,-8.0006,-8.0672,-8.181,-8.181,-8.181,-8.181,-8.181,-8.181,-8.181,-8.181,-8.181,-8.181,-8.181,-8.181,-8.181,-8.181,-8.181,-8.181,0.0,0.0,0.0,0.0,0.0,-2.2585,-2.1471,-2.1395,-2.1028,-2.004,-2.0121,-2.0306,-2.0376,-2.0712,-2.0217,-1.8808,-1.822,0.0,0.0,0.0,0.0,0.0,0.0,0.0,0.0,0.0,-1.8518,-1.9573,-2.0656,0.0,0.0,0.0,0.0,0.0,0.0,0.0,0.0,0.0,0.0,0.0,0.0,0.0,0.0,0.0,0.0,0.0,0.0,0.0,0.0,0.0,0.0,0.0,0.0,0.0,0.0,0.0,-4.8987,-5.1462,-5.3815,-5.6226,-5.8392,-5.9873,-5.9589,-5.9298,0.0,0.0,0.0,-6.0516,-6.0794,-6.0794,-6.0794,-6.0794,-6.0794,-6.0794,0.0,-6.247,0.0,0.0,0.0,0.0,0.0,0.0,0.0,0.0,-7.5878,-7.6021,-7.7148,-7.7806,-7.7806,-7.8525,-7.9154,-7.9497,-7.9497,-7.8946,-7.7806,-7.7806,-7.8312,-7.9497,-7.9497,-8.0274,-8.181,-8.181,-8.181,-8.181,-8.181,-8.181,-8.181,-8.181,-8.181,-8.181,-8.181,-8.181,-8.181,-8.181,-8.181,-8.181,0.0,0.0,0.0,0.0,0.0,0.0,-2.2859,-2.3126,-2.3327,-2.3187,-2.3581,-2.3875,-2.4155,-2.4195,-2.3572,-2.2198,-2.0714,0.0,0.0,0.0,0.0,0.0,0.0,0.0,0.0,0.0,-2.081,-2.3007,-2.3007,-2.4233,-2.6386,-2.6386,0.0,0.0,0.0,0.0,0.0,0.0,0.0,0.0,0.0,0.0,0.0,0.0,0.0,0.0,0.0,0.0,0.0,0.0,0.0,0.0,0.0,0.0,0.0,0.0,-4.9848,-5.3742,-5.4721,-5.7556,-6.0177,-6.0177,-5.9589,-5.9298,0.0,0.0,0.0,-6.0516,-6.0794,-6.0794,-6.0794,-6.0794,-6.0794,-6.0794,-6.0824,0.0,0.0,0.0,0.0,0.0,0.0,0.0,0.0,0.0,-7.6053,-7.4984,-7.597,0.0,-7.6621,-7.6621,-7.7148,-7.8345,-7.8345,-7.7806,-7.6621,-7.6621,-7.7148,-7.8345,-7.8345,-7.9531,-8.181,-8.181,-8.181,-8.181,-8.181,-8.181,-8.181,-8.181,-8.181,-8.181,-8.181,-8.181,-8.181,-8.181,-8.181,-8.181,0.0,0.0,0.0,0.0,0.0,0.0,0.0,-2.3567,-2.3634,-2.3634,-2.3888,-2.4102,-2.4195,-2.4382,-2.4235,-2.387,-2.2372,0.0,0.0,0.0,0.0,0.0,0.0,0.0,0.0,-2.0864,-2.194,-2.2894,-2.4163,-2.5242,-2.6092,-2.6293,-2.6386,0.0,0.0,0.0,0.0,0.0,0.0,0.0,0.0,0.0,0.0,0.0,0.0,0.0,0.0,0.0,0.0,0.0,0.0,0.0,0.0,0.0,0.0,-4.9215,0.0,0.0,-5.4073,-5.6048,-5.7757,-5.8049,-5.8035,-5.8115,-5.9238,0.0,0.0,0.0,-6.0794,-6.0794,-6.0794,-6.0794,-6.0794,-6.0794,-6.0794,0.0,0.0,0.0,0.0,0.0,0.0,0.0,0.0,0.0,-7.5337,-7.4897,-7.522,-7.5423,-7.5423,-7.5423,-7.597,-7.7148,-7.7148,-7.6621,-7.5423,-7.5423,-7.6395,-7.8345,-7.8345,-7.9531,-8.181,-8.181,-8.181,-8.181,-8.181,-8.181,-8.181,-8.181,-8.181,-8.181,-8.181,-8.181,-8.181,-8.181,-8.181,-8.181,0.0,0.0,0.0,0.0,0.0,0.0,0.0,-2.3861,-2.3928,-2.3928,-2.4182,-2.4369,-2.4369,-2.4529,-2.4636,-2.4636,-2.3735,0.0,0.0,0.0,0.0,0.0,0.0,0.0,-2.1625,-2.2521,-2.3317,-2.3694,-2.4953,-2.5665,-2.5959,-2.6253,-2.6333,-2.6226,-2.6333,0.0,0.0,0.0,0.0,0.0,0.0,0.0,-3.7099,0.0,0.0,0.0,0.0,0.0,0.0,0.0,0.0,0.0,0.0,0.0,0.0,0.0,-5.2166,0.0,0.0,-5.5601,-5.7017,-5.7661,-5.7605,0.0,0.0,0.0,0.0,0.0,0.0,0.0,-6.0794,-6.0794,-6.0794,-6.0794,0.0,0.0,0.0,0.0,0.0,0.0,0.0,0.0,0.0,-7.4581,-7.4897,-7.4897,-7.4897,-7.4897,-7.4897,-7.4897,-7.522,-7.597,-7.597,-7.5655,-7.4897,-7.4897,-7.5855,-7.7697,-7.8097,-7.9291,-8.1131,-8.1585,-8.181,-8.181,-8.181,-8.181,0.0,-8.181,-8.181,-8.181,-8.181,-8.181,-8.181,-8.181,-8.181,-8.181,0.0,0.0,0.0,0.0,0.0,0.0,0.0,-2.4062,-2.4235,-2.4235,-2.4476,-2.4636,-2.4636,-2.4636,-2.4636,-2.4636,0.0,0.0,0.0,0.0,0.0,0.0,0.0,0.0,-2.4636,-2.4636,-2.4917,-2.5478,-2.5504,-2.5665,-2.5959,-2.6226,-2.6213,-2.5972,-2.6213,-2.6333,0.0,0.0,0.0,0.0,0.0,-3.6142,0.0,0.0,0.0,0.0,0.0,0.0,0.0,0.0,0.0,0.0,0.0,0.0,0.0,0.0,0.0,0.0,0.0,0.0,0.0,0.0,0.0,0.0,0.0,0.0,0.0,0.0,0.0,0.0,0.0,0.0,0.0,0.0,0.0,0.0,0.0,0.0,0.0,0.0,0.0,0.0,0.0,-7.4139,-7.4897,-7.4897,-7.4897,-7.4897,-7.4897,-7.4897,-7.4897,-7.4897,-7.4897,-7.4897,-7.4897,-7.4897,-7.5423,-7.6621,-7.7773,-7.8946,-8.0006,-8.1228,-8.181,-8.181,-8.181,-8.181,-8.181,-8.181,-8.181,-8.181,-8.181,-8.181,-8.181,-8.181,-8.181,-8.181,0.0,0.0,0.0,0.0,0.0,0.0,0.0,0.0,0.0,0.0,-2.4596,-2.4636,-2.4636,-2.4636,-2.4636,0.0,0.0,0.0,0.0,0.0,0.0,0.0,0.0,0.0,-2.4636,-2.4636,-2.4823,-2.5184,-2.5411,-2.5665,-2.5959,-2.6026,-2.6026,-2.5945,-2.5785,-2.6598,0.0,0.0,0.0,0.0,-3.5994,-3.7228,0.0,0.0,0.0,0.0,-4.337,-4.4587,0.0,0.0,0.0,0.0,0.0,0.0,0.0,0.0,-5.3592,0.0,-5.3822,0.0,-5.4801,-5.5926,-5.6733,-5.7538,0.0,0.0,0.0,0.0,0.0,0.0,0.0,0.0,0.0,0.0,0.0,0.0,0.0,0.0,0.0,0.0,0.0,0.0,-7.4391,-7.4707,-7.4897,-7.4897,-7.4897,-7.4897,-7.4897,-7.4897,-7.4897,-7.4897,-7.4897,-7.4897,-7.4897,-7.4897,-7.5423,-7.6621,-7.7806,-7.8841,-8.0006,-8.1228,-8.181,-8.181,-8.181,-8.181,-8.181,-8.181,-8.181,-8.181,-8.181,-8.181,-8.181,-8.181,-8.181,-8.181,0.0,0.0,0.0,0.0,0.0,0.0,0.0,0.0,0.0,0.0,0.0,0.0,0.0,0.0,0.0,0.0,0.0,0.0,0.0,0.0,0.0,0.0,0.0,-2.4636,-2.4636,-2.4636,-2.485,-2.5277,-2.5438,-2.5598,-2.5758,-2.5892,-2.5812,-2.5558,-2.6267,-2.769,-2.9652,-3.1661,-3.294,-3.4049,-3.6381,0.0,0.0,0.0,0.0,0.0,-4.4339,-4.5577,0.0,-4.7689,-4.8843,-5.0283,0.0,0.0,0.0,0.0,-5.3592,-5.3713,-5.4286,-5.4378,-5.4734,-5.5964,-5.7075,-5.8326,-5.9546,0.0,0.0,0.0,0.0,0.0,0.0,0.0,0.0,0.0,0.0,0.0,0.0,0.0,0.0,0.0,0.0,0.0,0.0,-7.4897,-7.4897,-7.4897,-7.4897,-7.4897,-7.4897,-7.4897,-7.4897,-7.4897,-7.4897,-7.4897,-7.4897,-7.4897,-7.522,-7.5855,-7.7479,-7.863,-7.9291,-8.1034,-8.181,-8.181,-8.181,-8.181,-8.181,-8.181,-8.181,-8.181,-8.181,-8.181,-8.181,-8.181,-8.181,-8.181,0.0,0.0,0.0,0.0,0.0,0.0,0.0,0.0,0.0,0.0,0.0,0.0,0.0,0.0,0.0,0.0,0.0,0.0,0.0,0.0,0.0,0.0,-2.4636,-2.4636,-2.4636,-2.4636,-2.4903,-2.5451,-2.5451,-2.5464,-2.5518,-2.5732,-2.5684,-2.5459,-2.7386,-2.9297,-3.104,-3.2604,-3.3401,-3.3961,-3.6623,0.0,0.0,0.0,0.0,0.0,0.0,0.0,0.0,-4.8216,-4.9386,-5.0968,-5.1944,0.0,0.0,0.0,0.0,0.0,-5.506,-5.5641,-5.6191,-5.7245,-5.8217,-5.9332,-6.0555,0.0,0.0,0.0,0.0,0.0,0.0,0.0,0.0,0.0,0.0,0.0,0.0,0.0,0.0,0.0,0.0,0.0,-7.4771,-7.4897,-7.4897,-7.4897,-7.4897,-7.4897,-7.4897,-7.4897,-7.4897,-7.4897,-7.4897,-7.4897,-7.4897,-7.4897,-7.4897,-7.4897,-7.7037,-7.8023,-7.8131,-8.0474,-8.1585,-8.1585,-8.1681,-8.181,-8.181,-8.181,-8.181,-8.181,-8.181,-8.181,-8.181,-8.181,-8.181,-8.181,0.0,0.0,0.0,0.0,0.0,0.0,0.0,0.0,0.0,0.0,0.0,0.0,0.0,0.0,0.0,0.0,0.0,0.0,0.0,0.0,0.0,-2.4636,-2.4636,-2.4636,-2.4636,-2.4636,-2.4796,-2.5144,-2.5144,-2.5277,-2.5504,-2.5304,-2.5772,-2.6735,-2.9226,-3.1115,-3.2446,-3.3226,-3.4885,-3.6846,-3.8609,0.0,0.0,0.0,0.0,0.0,0.0,0.0,0.0,-4.9822,-5.0942,-5.2068,-5.3078,0.0,0.0,0.0,0.0,0.0,-5.506,-5.6963,-5.8666,-5.8703,-5.8871,-5.9332,-6.0555,0.0,0.0,0.0,0.0,0.0,0.0,0.0,0.0,0.0,0.0,0.0,0.0,0.0,0.0,0.0,0.0,-7.4644,-7.4866,-7.4897,-7.4897,-7.4897,-7.4897,-7.4897,-7.4897,-7.4897,-7.4897,-7.4897,-7.4897,-7.4897,-7.4897,-7.4897,-7.4897,-7.4897,-7.6167,-7.6813,-7.6925,-7.9257,-8.024,-8.034,-8.1359,-8.181,-8.181,-8.181,-8.181,-8.181,-8.181,-8.181,-8.181,-8.181,-8.181,-8.181,0.0,0.0,0.0,0.0,0.0,0.0,0.0,0.0,0.0,0.0,0.0,0.0,0.0,0.0,0.0,0.0,0.0,0.0,0.0,0.0,-2.4636,-2.4636,-2.4636,-2.4636,-2.4636,-2.4796,-2.4943,-2.5077,-2.5237,-2.5304,-2.5277,-2.5852,-2.6925,-2.8501,-3.0524,-3.2332,-3.3933,-3.4618,-3.6169,-3.7947,0.0,0.0,0.0,0.0,0.0,0.0,0.0,0.0,0.0,0.0,-5.1695,-5.2315,-5.3349,0.0,0.0,0.0,0.0,0.0,-5.6079,-5.7736,-5.9466,-6.0711,-6.1643,-6.2299,-6.2902,0.0,0.0,0.0,0.0,0.0,0.0,0.0,0.0,0.0,0.0,0.0,0.0,0.0,0.0,0.0,0.0,-7.4044,-7.4834,-7.4897,-7.4897,-7.4897,-7.4897,-7.4897,-7.4897,-7.4897,-7.4897,-7.4897,-7.4897,-7.4897,-7.4897,-7.4897,-7.4897,-7.4897,-7.6085,-7.6621,-7.6734,-7.8946,-8.0006,-8.0106,-8.1262,-8.181,-8.181,-8.181,-8.181,-8.181,-8.181,-8.181,-8.181,-8.181,-8.181,-8.181,0.0,0.0,0.0,0.0,0.0,0.0,0.0,0.0,0.0,0.0,0.0,0.0,0.0,0.0,0.0,0.0,0.0,0.0,0.0,-2.4636,-2.4636,-2.4636,-2.4636,-2.4676,-2.4743,-2.489,-2.501,-2.5077,-2.5237,-2.5335,-2.5554,-2.7334,-2.8932,-3.0343,-3.2158,-3.3769,-3.523,-3.5927,-3.7233,-3.887,0.0,0.0,0.0,0.0,0.0,0.0,0.0,0.0,0.0,0.0,0.0,0.0,0.0,0.0,0.0,-5.3926,-5.4734,-5.5732,-5.7187,-5.8534,-6.0024,-6.2227,0.0,-6.4118,-6.4764,-6.4641,0.0,0.0,0.0,0.0,0.0,0.0,0.0,0.0,0.0,0.0,-7.2948,-7.2139,-7.1887,-7.3159,-7.3285,-7.3728,-7.4802,-7.4897,-7.4897,-7.4897,-7.4897,-7.4897,-7.4897,-7.4897,-7.4897,-7.4897,-7.4897,-7.4897,-7.4897,-7.4897,-7.4897,-7.4897,-7.5739,-7.6167,-7.6281,-7.8312,-7.9361,-7.9702,-8.0902,-8.1585,-8.181,-8.181,-8.181,-8.181,-8.181,-8.181,-8.181,-8.181,-8.181,-8.181,0.0,0.0,0.0,0.0,0.0,0.0,0.0,0.0,0.0,0.0,0.0,0.0,0.0,0.0,0.0,0.0,0.0,0.0,0.0,-2.4636,-2.4636,-2.4636,-2.4636,-2.477,-2.5037,-2.4796,-2.4796,-2.5077,-2.4823,-2.5414,-2.6823,-3.0233,-3.1789,-3.207,-3.4323,-3.5629,-3.6085,-3.6489,-3.8006,-4.0173,-4.1624,0.0,0.0,0.0,0.0,0.0,0.0,0.0,0.0,0.0,0.0,0.0,0.0,0.0,-5.3833,-5.4942,-5.5295,-5.5964,-5.8217,-5.9877,-6.1197,-6.2441,-6.1963,0.0,-6.4334,-6.3903,0.0,-6.4518,0.0,0.0,0.0,0.0,0.0,0.0,0.0,0.0,0.0,0.0,-7.4613,-7.4739,-7.4739,-7.4771,-7.4866,-7.4897,-7.4897,-7.4897,-7.4897,-7.4897,-7.4897,-7.4897,-7.4897,-7.4897,-7.4897,-7.4897,-7.4897,-7.4897,-7.4897,-7.4897,-7.5016,-7.4984,-7.5102,-7.6281,-7.7479,-7.8452,-7.96,-8.0804,-8.181,-8.181,-8.181,-8.181,-8.181,-8.181,-8.181,-8.181,-8.181,-8.181,0.0,0.0,0.0,0.0,0.0,0.0,0.0,0.0,0.0,0.0,0.0,0.0,0.0,0.0,0.0,0.0,0.0,0.0,0.0,-2.4636,-2.4636,-2.4636,-2.4636,-2.5215,-2.6546,-2.5405,-2.4877,-2.4796,-2.5561,-2.6794,-2.8357,-3.1162,-3.2419,-3.2578,-3.5134,-3.6348,-3.6649,-3.8166,-3.9972,-4.1645,-4.315,-4.4635,0.0,0.0,0.0,0.0,0.0,0.0,0.0,0.0,-5.3349,-5.3713,-5.4497,-5.4166,-5.3926,-5.5964,-5.6537,-5.6849,-5.8545,-6.0512,-6.2225,-6.2718,-6.2425,0.0,0.0,-6.575,-6.5503,-6.6027,-6.615,0.0,0.0,0.0,0.0,0.0,0.0,0.0,0.0,-7.4897,-7.4897,-7.4897,-7.4897,-7.4897,-7.4897,-7.4897,-7.4897,-7.4897,-7.4897,-7.4897,-7.4897,-7.4897,-7.4897,-7.4897,-7.4897,-7.4897,-7.4897,-7.4897,-7.4897,-7.4897,-7.4897,-7.4897,-7.4897,-7.6085,-7.7258,-7.8345,-7.9497,-8.0672,-8.181,-8.181,-8.181,-8.181,-8.181,-8.181,-8.181,-8.181,-8.181,-8.181,0.0,0.0,0.0,0.0,0.0,0.0,0.0,0.0,0.0,0.0,0.0,0.0,0.0,0.0,0.0,0.0,0.0,0.0,-2.4636,-2.4636,-2.4636,-2.4636,-2.5065,-2.575,-2.6538,-2.6489,-2.6489,-2.6362,-2.7966,-2.9262,-3.0418,-3.2537,-3.3679,-3.3982,-3.654,-3.7744,-3.7904,-4.0158,-4.1999,-4.3373,-4.4164,-4.57,0.0,0.0,0.0,0.0,0.0,0.0,0.0,0.0,-5.3833,-5.4259,-5.5178,-5.506,-5.5178,-5.7187,-5.7775,-5.7996,-5.9225,-6.0806,-6.2271,-6.2702,0.0,0.0,-6.6273,-6.6581,-6.6519,-6.7381,-6.7196,-6.6725,-6.6102,0.0,0.0,0.0,0.0,0.0,-7.4771,-7.4897,-7.4897,-7.4897,-7.4897,-7.4897,-7.4897,-7.4897,-7.4897,-7.4897,-7.4897,-7.4897,-7.4897,-7.4897,-7.4897,-7.4897,-7.4897,-7.4897,-7.4897,-7.4897,-7.4897,-7.4897,-7.4897,-7.4897,-7.4897,-7.5771,-7.6813,-7.8345,-7.9154,-8.0374,-8.181,-8.181,-8.181,-8.181,-8.181,-8.181,-8.181,-8.181,-8.181,-8.181,0.0,0.0,0.0,0.0,0.0,0.0,0.0,0.0,0.0,0.0,0.0,0.0,0.0,0.0,0.0,0.0,0.0,0.0,-2.4636,-2.4636,-2.4636,-2.4636,-2.6078,-2.6225,-2.4636,-2.8127,-3.008,-3.0283,-3.1906,-3.2638,-3.2784,-3.4703,-3.5867,-3.6314,-3.8668,-3.9836,-4.0298,-4.2258,-4.3863,-4.5232,-4.4727,-4.6286,-4.8898,0.0,0.0,0.0,0.0,0.0,0.0,0.0,-5.4378,-5.5412,-5.5412,-5.6308,-5.7411,-5.8654,-5.9009,-5.9225,-6.0451,-6.0824,-6.1163,0.0,0.0,0.0,-6.6304,-6.5873,-6.5688,-6.8335,-6.7843,-6.7033,-6.728,-6.7648,0.0,-7.0023,-7.1666,-7.3285,-7.4707,-7.4897,-7.4897,-7.4897,-7.4897,-7.4897,-7.4897,-7.4897,-7.4897,-7.4897,-7.4897,-7.4897,-7.4897,-7.4897,-7.4897,-7.4897,-7.4897,-7.4897,-7.4897,-7.4897,-7.4897,-7.4897,-7.4897,-7.4897,-7.4897,-7.4897,-7.6199,-7.8312,-7.8345,-7.9633,-8.181,-8.181,-8.181,-8.181,-8.181,-8.181,-8.181,-8.181,-8.181,-8.181,0.0,0.0,0.0,0.0,0.0,0.0,0.0,0.0,0.0,0.0,0.0,0.0,0.0,0.0,0.0,0.0,0.0,0.0,-2.4636,-2.4636,-2.5065,-2.6225,-2.5653,-2.6648,-2.9361,-3.2141,-3.2971,-3.2053,-3.2492,-3.3366,-3.4703,-3.5861,-3.7267,-3.8688,-3.982,-4.0829,-4.1805,-4.3442,-4.4323,-4.4838,-4.6036,-4.7317,-4.8529,0.0,0.0,0.0,0.0,0.0,0.0,0.0,0.0,0.0,-5.7411,-5.7664,-5.7634,-5.9683,-5.9683,-5.9225,-6.0451,-6.221,0.0,-6.2948,0.0,0.0,0.0,-6.6611,0.0,0.0,-6.8931,-6.8458,-6.7834,-6.8683,0.0,-7.018,-7.1666,-7.3285,-7.4707,-7.4897,-7.4897,-7.4897,-7.4897,-7.4897,-7.4897,-7.4897,-7.4897,-7.4897,-7.4897,-7.4897,-7.4897,-7.4897,-7.4897,-7.4897,-7.4897,-7.4897,-7.4897,-7.4897,-7.4897,-7.4897,-7.4897,-7.4897,-7.4897,-7.4897,-7.5771,-7.7148,-7.7915,-7.9187,-8.0573,-8.1455,-8.181,-8.181,-8.181,-8.181,-8.181,-8.181,-8.181,-8.181,0.0,0.0,0.0,0.0,0.0,0.0,0.0,0.0,0.0,0.0,-2.4636,-2.4636,0.0,0.0,0.0,0.0,0.0,0.0,0.0,-2.5359,-2.621,-2.7085,-2.736,-2.9345,-3.3092,-3.4019,-3.4577,-3.4573,-3.4426,-3.4884,-3.6066,-3.7432,-3.868,-3.9678,-4.1643,-4.2879,-4.3576,-4.5465,-4.6286,-4.637,-4.7778,-4.8913,-4.9899,0.0,0.0,0.0,0.0,0.0,0.0,0.0,0.0,0.0,-5.8545,-5.8871,-5.8871,-6.0346,-6.0241,-6.0016,-6.123,0.0,0.0,-6.4395,-6.5688,-6.7042,-6.7566,0.0,0.0,0.0,0.0,-6.9224,-6.8839,-6.9597,0.0,-7.1225,-7.2128,-7.3285,-7.4707,-7.4897,-7.4897,-7.4897,-7.4897,-7.4897,-7.4897,-7.4897,-7.4897,-7.4897,-7.4897,-7.4897,-7.4897,-7.4897,-7.4897,-7.4897,-7.4897,-7.4897,-7.4897,-7.4897,-7.4897,-7.4897,-7.4897,-7.4897,-7.4897,-7.4897,-7.5539,-7.6734,-7.8312,-7.96,-8.077,-8.1455,-8.181,-8.181,-8.181,-8.181,-8.181,-8.181,-8.181,-8.181,0.0,0.0,0.0,0.0,0.0,0.0,0.0,0.0,0.0,0.0,-2.4636,-2.4636,0.0,0.0,0.0,0.0,0.0,0.0,0.0,-2.6779,-2.778,-2.7924,-3.0818,-3.3321,-3.5402,-3.4703,-3.5375,-3.7639,-3.7217,-3.7089,-3.7089,-3.9306,-4.0289,-4.0147,-4.3658,-4.5321,-4.568,-4.7987,-4.8948,-4.9157,-4.9671,-5.0799,-5.2015,-5.161,0.0,0.0,0.0,0.0,0.0,0.0,0.0,0.0,-5.9117,-5.9895,-6.0794,-6.0794,-6.0886,-6.1255,0.0,0.0,0.0,0.0,0.0,0.0,-6.8612,-6.8889,-6.9006,-6.9356,0.0,-6.9619,-7.0306,-7.0306,-7.086,-7.259,-7.2811,-7.3285,-7.4707,-7.4897,-7.4897,-7.4897,-7.4897,-7.4897,-7.4897,-7.4897,-7.4897,-7.4897,-7.4897,-7.4897,-7.4897,-7.4897,-7.4897,-7.4897,-7.4897,-7.4897,-7.4897,-7.4897,-7.4897,-7.4897,-7.4897,-7.4897,-7.4897,-7.4897,-7.5539,-7.6813,-7.8946,-8.0573,-8.181,-8.181,-8.181,-8.181,-8.181,-8.181,-8.181,-8.181,-8.181,-8.181,0.0,0.0,0.0,0.0,0.0,0.0,0.0,0.0,0.0,0.0,0.0,0.0,0.0,0.0,0.0,0.0,0.0,0.0,0.0,-2.9329,-3.0184,-3.1474,-3.3635,-3.4637,-3.4234,-3.6666,-3.8201,-3.8989,-3.9042,-3.9221,-3.949,-4.0808,-4.2167,-4.3442,-4.4277,-4.5512,-4.6993,-4.7947,-4.8887,-4.9745,-5.0637,-5.1417,-5.2192,-5.2822,-5.391,0.0,0.0,0.0,0.0,0.0,0.0,0.0,-6.0106,-6.0586,-6.0794,-6.0794,-6.1563,0.0,0.0,0.0,0.0,0.0,0.0,0.0,0.0,0.0,-6.9356,-6.9703,-6.9933,-7.0192,-7.0645,-7.0645,-7.1118,-7.259,-7.2811,-7.3285,-7.4707,-7.4897,-7.4897,-7.4897,-7.4897,-7.4897,-7.4897,-7.4897,-7.4897,-7.4897,-7.4897,-7.4897,-7.4897,-7.4897,-7.4897,-7.4897,-7.4897,-7.4897,-7.4897,-7.4897,-7.4897,-7.4897,-7.4897,-7.4897,-7.4897,-7.4897,-7.597,-7.8023,-7.8418,-7.9837,-8.181,-8.181,-8.181,-8.181,-8.181,-8.181,-8.181,-8.181,-8.181,-8.181,0.0,0.0,0.0,0.0,0.0,0.0,0.0,0.0,0.0,0.0,0.0,0.0,0.0,0.0,0.0,0.0,0.0,0.0,0.0,0.0,-3.2403,-3.4176,-3.5414,-3.6138,-3.6199,-3.8107,-3.9646,-4.0477,-4.1124,-4.1231,-4.0515,-4.1934,-4.3175,-4.4229,-4.5691,-4.7021,-4.8203,-4.9495,-5.0352,-5.1002,-5.2013,-5.2566,-5.2956,-5.4019,-5.4825,-5.5528,-5.6079,0.0,0.0,0.0,0.0,0.0,0.0,0.0,-6.0794,-6.0794,-6.1286,0.0,0.0,0.0,0.0,0.0,0.0,0.0,0.0,0.0,0.0,0.0,-7.0161,-7.0419,-7.0789,-7.0789,-7.1136,-7.2179,-7.259,-7.3191,-7.4265,-7.4707,-7.4897,-7.4897,-7.4897,-7.4897,-7.4897,-7.4897,-7.4897,-7.4897,-7.4897,-7.4897,-7.4897,-7.4897,-7.4897,-7.4897,-7.4897,-7.4897,-7.4897,-7.4897,-7.4897,-7.4897,-7.4897,-7.4897,-7.4897,-7.4897,-7.5855,-7.7479,-7.8023,-7.9291,-8.1,-8.1585,-8.181,-8.181,-8.181,-8.181,-8.181,-8.181,-8.181,-8.181,0.0,0.0,0.0,0.0,0.0,0.0,0.0,0.0,0.0,0.0,0.0,0.0,0.0,0.0,0.0,0.0,0.0,0.0,0.0,0.0,0.0,-3.6366,-3.7075,-3.8102,-3.9172,-3.9825,-4.0643,-4.1771,-4.3231,-4.3099,-4.1593,-4.3322,-4.4233,-4.4602,-4.7102,-4.8579,-4.9517,-5.1268,-5.2192,-5.2439,-5.3227,-5.3592,-5.3713,-5.4942,-5.5528,-5.5848,-5.7104,0.0,-5.9332,-5.9332,0.0,0.0,0.0,0.0,-6.0794,-6.0794,0.0,0.0,0.0,0.0,0.0,0.0,0.0,0.0,0.0,0.0,0.0,0.0,0.0,0.0,-7.0789,-7.0789,-7.101,-7.1705,-7.2274,-7.2938,-7.3791,-7.436,-7.4771,-7.4866,-7.4897,-7.4897,-7.4897,-7.4897,-7.4897,-7.4897,-7.4897,-7.4897,-7.4897,-7.4897,-7.4897,-7.4897,-7.4897,-7.4897,-7.4897,-7.4897,-7.4897,-7.4897,-7.4897,-7.4897,-7.4897,-7.4897,-7.5539,-7.6621,-7.7806,-7.8946,-8.0106,-8.1359,-8.181,-8.181,-8.181,-8.181,-8.181,-8.181,-8.181,-8.181,0.0,0.0,0.0,0.0,0.0,0.0,0.0,0.0,0.0,0.0,-3.0343,-2.9916,0.0,0.0,0.0,0.0,0.0,0.0,0.0,0.0,0.0,-3.7811,-3.9884,-4.0813,-4.0601,-4.2215,-4.3031,-4.273,-4.4196,-4.4833,-4.4579,-4.531,-4.6062,-4.7002,-4.7877,-4.9241,-5.0987,-5.1733,-5.2588,-5.347,-5.3592,-5.3592,-5.3713,-5.4942,-5.6079,-5.7075,-5.8326,-5.9576,-6.0586,-6.0586,-6.069,0.0,0.0,0.0,0.0,0.0,0.0,0.0,0.0,0.0,0.0,0.0,0.0,0.0,0.0,0.0,0.0,0.0,0.0,0.0,-7.0789,-7.0789,-7.101,-7.1705,-7.1895,-7.2401,-7.3728,-7.3981,-7.4233,-7.4834,-7.4897,-7.4897,-7.4897,-7.4897,-7.4897,-7.4897,-7.4897,-7.4897,-7.4897,-7.4897,-7.4897,-7.4897,-7.4897,-7.4897,-7.4897,-7.4897,-7.4897,-7.4897,-7.4897,-7.4897,-7.4897,-7.4897,-7.5539,-7.6621,-7.7806,-7.8946,-8.0106,-8.1359,-8.181,-8.181,-8.181,-8.181,-8.181,-8.181,-8.181,-8.181,0.0,0.0,0.0,0.0,0.0,0.0,0.0,0.0,0.0,0.0,0.0,-3.277,0.0,0.0,0.0,0.0,0.0,0.0,0.0,0.0,0.0,-3.9661,-4.0601,-4.1375,-4.1965,-4.2844,-4.3612,-4.4487,-4.5573,-4.6217,-4.6859,-4.7708,-4.7981,-4.7855,-4.9339,-5.0643,-5.1821,-5.2604,-5.3227,-5.3592,-5.3592,-5.4457,-5.577,-5.6219,-5.7652,-5.9414,-5.9818,-6.0346,-6.0794,-6.0794,-6.0794,-6.0794,-6.0794,0.0,0.0,0.0,0.0,0.0,0.0,0.0,0.0,0.0,0.0,0.0,0.0,0.0,0.0,0.0,0.0,0.0,0.0,-7.0789,-7.0884,-7.12,-7.1547,-7.2179,-7.3159,-7.3633,-7.4139,-7.4802,-7.4897,-7.4897,-7.4897,-7.4897,-7.4897,-7.4897,-7.4897,-7.4897,-7.4897,-7.4897,-7.4897,-7.4897,-7.4897,-7.4897,-7.4897,-7.4897,-7.4897,-7.4897,-7.4897,-7.4897,-7.4897,-7.4897,-7.522,-7.5771,-7.6813,-7.799,-7.9187,-8.034,-8.1228,-8.181,-8.181,-8.181,-8.181,-8.181,-8.181,-8.1905,0.0,0.0,0.0,0.0,0.0,0.0,0.0,0.0,0.0,0.0,0.0,0.0,0.0,0.0,0.0,0.0,0.0,0.0,0.0,0.0,0.0,-4.111,-4.1636,-4.2289,-4.3229,-4.3461,-4.4481,-4.5966,-4.6731,-4.7572,-4.8608,-4.9677,-4.9794,-4.9292,-5.0793,-5.1918,-5.2588,-5.3227,-5.3833,-5.4074,-5.4375,-5.5853,-5.7843,-5.8029,-5.931,-6.0997,-6.0835,-6.0794,-6.0794,-6.0794,-6.0794,-6.0794,-6.0794,-6.0794,0.0,0.0,0.0,0.0,0.0,0.0,0.0,0.0,0.0,0.0,0.0,0.0,0.0,0.0,0.0,0.0,0.0,0.0,-7.0789,-7.0789,-7.1231,-7.18,-7.2464,-7.3033,-7.3696,-7.4549,-7.4644,-7.4707,-7.4866,-7.4897,-7.4897,-7.4897,-7.4897,-7.4897,-7.4897,-7.4897,-7.4897,-7.4897,-7.4897,-7.4897,-7.4897,-7.4897,-7.4897,-7.4897,-7.4897,-7.4897,-7.4897,-7.4897,-7.4897,-7.5016,-7.6085,-7.7258,-7.8452,-7.9497,-8.0672,-8.181,-8.181,-8.181,-8.181,-8.181,-8.1776,-8.1965,0.0,0.0,0.0,0.0,0.0,0.0,0.0,0.0,0.0,0.0,0.0,0.0,-3.547,-3.5489,-3.6132,-3.7842,-3.7975,0.0,0.0,0.0,0.0,-4.2212,-4.3946,0.0,-4.4271,-4.5208,-4.5919,-4.6661,-4.7542,-4.8589,-4.9739,-5.0804,-5.1487,-5.1891,-5.2015,-5.2562,-5.347,-5.3592,-5.4286,-5.5379,-5.6676,-5.799,-5.9219,-6.0416,-6.0894,-6.0997,-6.0835,-6.0794,-6.0794,-6.0794,-6.0794,-6.0794,-6.0794,-6.0794,-6.0794,0.0,0.0,0.0,0.0,0.0,0.0,0.0,0.0,0.0,0.0,0.0,0.0,0.0,0.0,0.0,0.0,0.0,0.0,-7.0789,-7.082,-7.1073,-7.1768,-7.1895,-7.2432,-7.3791,-7.3949,-7.4202,-7.4834,-7.4897,-7.4897,-7.4897,-7.4897,-7.4897,-7.4897,-7.4897,-7.4897,-7.4897,-7.4897,-7.4897,-7.4897,-7.4897,-7.4897,-7.4897,-7.4897,-7.4897,-7.4897,-7.4897,-7.4897,-7.5016,-7.6085,-7.7258,-7.8452,-7.9497,-8.0672,-8.181,-8.181,-8.181,-8.181,-8.181,-8.1871,-8.2118,0.0,0.0,0.0,0.0,0.0,0.0,0.0,0.0,0.0,0.0,0.0,0.0,0.0,-3.8507,-3.8772,-3.9408,-4.0322,0.0,0.0,0.0,0.0,-4.3576,-4.4863,-4.5503,-4.5306,-4.6602,-4.7726,-4.8532,-4.962,-5.068,-5.1709,-5.2473,-5.289,-5.3078,-5.3078,-5.3658,-5.4734,-5.4734,-5.5383,-5.6623,-5.8002,-5.983,-6.1694,-6.1171,-6.2596,-6.4544,-6.2779,-6.2086,-6.2086,-6.2086,-6.1502,-6.0794,-6.0794,-6.0794,-6.0794,0.0,0.0,0.0,0.0,0.0,0.0,0.0,0.0,0.0,0.0,0.0,0.0,0.0,0.0,0.0,0.0,0.0,0.0,0.0,-7.0789,-7.101,-7.1705,-7.1832,-7.2179,-7.3096,-7.3601,-7.3981,-7.4233,-7.4644,-7.4897,-7.4897,-7.4897,-7.4897,-7.4897,-7.4897,-7.4897,-7.4897,-7.4897,-7.4897,-7.4897,-7.4897,-7.4897,-7.4897,-7.4897,-7.4897,-7.4897,-7.4897,-7.4897,-7.5016,-7.6085,-7.7258,-7.8345,-7.8736,-8.004,-8.181,-8.181,-8.181,-8.181,-8.181,-8.1965,-8.2118,0.0,0.0,0.0,0.0,0.0,0.0,0.0,0.0,-3.6884,-3.8067,0.0,0.0,0.0,0.0,-4.0322,-4.0862,-4.2143,-4.2925,-4.2925,-4.3826,-4.447,-4.4816,-4.5576,-4.6284,-4.6527,-4.7846,-4.9072,-5.0062,-5.1003,-5.1991,-5.3022,-5.3402,-5.3833,-5.4166,-5.4166,-5.4616,-5.5412,-5.5412,-5.6308,-5.7921,-5.9765,-6.1809,-6.3585,-6.2677,-6.3944,-6.5934,-6.3656,-6.2825,-6.2887,-6.3349,-6.2918,-6.2086,-6.1625,-6.1163,-6.0794,-6.0794,0.0,0.0,0.0,0.0,0.0,0.0,0.0,0.0,0.0,0.0,0.0,0.0,0.0,0.0,0.0,0.0,0.0,0.0,0.0,-7.0947,-7.1389,-7.1452,-7.1705,-7.2401,-7.2906,-7.338,-7.3854,-7.4297,-7.4644,-7.4866,-7.4897,-7.4897,-7.4897,-7.4897,-7.4897,-7.4897,-7.4897,-7.4897,-7.4897,-7.4897,-7.4897,-7.4897,-7.4897,-7.4897,-7.4897,-7.4897,-7.5102,-7.5539,-7.6281,-7.7258,-7.8345,-7.8736,-8.004,-8.181,-8.181,-8.181,-8.181,-8.1871,-8.2059,-8.2303,0.0,0.0,0.0,0.0,0.0,0.0,0.0,0.0,-3.9627,-3.9627,0.0,0.0,0.0,0.0,0.0,-4.2293,-4.3576,-4.4347,-4.4371,-4.4371,-4.484,-4.5817,0.0,0.0,-4.8172,-4.918,-5.0208,-5.1319,-5.1653,-5.2479,-5.3592,-5.3592,-5.4286,-5.5412,-5.5412,-5.55,-5.55,-5.55,-5.6878,-5.9327,-6.2025,-6.3819,-6.4888,-6.4949,-6.498,-6.4826,-6.3441,-6.2948,-6.3133,-6.4518,-6.4918,-6.458,-6.3195,-6.1871,-6.0794,-6.0794,-6.0794,0.0,0.0,0.0,0.0,0.0,0.0,0.0,0.0,0.0,0.0,0.0,0.0,0.0,0.0,0.0,0.0,0.0,0.0,0.0,-7.0789,-7.0789,-7.1042,-7.1705,-7.18,-7.2337,-7.3728,-7.3854,-7.4139,-7.4802,-7.4866,-7.4866,-7.4897,-7.4897,-7.4897,-7.4897,-7.4897,-7.4897,-7.4897,-7.4897,-7.4897,-7.4897,-7.4897,-7.4897,-7.5016,-7.5016,-7.5539,-7.6621,-7.6734,-7.7369,-7.8452,-7.9566,-8.0672,-8.181,-8.181,-8.181,-8.1776,-8.2059,-8.2303,-8.2579,0.0,0.0,0.0,0.0,0.0,-3.8486,-3.9146,-3.9518,-4.004,0.0,0.0,0.0,-4.3051,-4.3177,-4.3302,-4.3701,-4.4816,-4.5576,-4.597,-4.6731,-4.7369,-4.8019,-4.8928,-4.9489,-4.9756,-5.1136,-5.2015,-5.2338,-5.2848,-5.3266,-5.3592,-5.4497,-5.506,-5.5412,-5.6308,-5.7187,-5.7996,-5.7996,-5.8871,-6.0591,-6.3312,-6.4635,-6.5011,-6.5996,-6.695,-6.7596,-6.6273,-6.578,-6.5842,-6.6242,-6.5042,-6.3164,-6.1779,-6.1101,-6.0794,-6.0794,-6.0794,-6.0794,-6.0794,0.0,0.0,0.0,0.0,0.0,0.0,0.0,0.0,0.0,0.0,0.0,0.0,0.0,0.0,0.0,0.0,0.0,0.0,-7.0789,-7.0852,-7.1042,-7.1516,-7.1958,-7.2369,-7.2811,-7.3412,0.0,-7.417,-7.4391,-7.4866,-7.4897,-7.4897,-7.4897,-7.4897,-7.4897,-7.4897,-7.4897,-7.4897,-7.4897,-7.4897,-7.5306,-7.6085,-7.6085,-7.6734,-7.7915,-7.8736,-7.9291,-7.9633,-7.9905,-8.0672,-8.181,-8.181,-8.1871,-8.2059,-8.2024,-8.2396,-8.2796,0.0,0.0,0.0,0.0,0.0,-4.004,-4.1119,-4.1482,-4.1993,0.0,0.0,0.0,-4.5724,-4.6069,-4.6217,-4.6217,-4.6806,-4.7298,-4.7626,-4.8141,-4.8781,-4.9603,-5.0322,-5.0963,-5.1323,-5.2296,-5.2832,-5.3076,-5.3185,-5.3347,-5.3592,-5.4852,-5.5616,-5.6194,-5.7411,-5.8654,-5.9789,-5.9789,-6.0136,-6.104,-6.3779,-6.4888,-6.5042,-6.6396,-6.7496,-6.8166,-6.7196,-6.7002,-6.7208,-6.7535,-6.5934,-6.3533,-6.2764,-6.1717,-6.0794,-6.0794,-6.0794,-6.0794,-6.0794,-6.0794,-6.0794,0.0,0.0,0.0,-6.4084,-6.5062,-6.6402,0.0,0.0,0.0,0.0,0.0,0.0,0.0,0.0,0.0,0.0,0.0,-7.0789,-7.0789,-7.1136,-7.1484,-7.18,-7.2179,-7.2685,-7.338,-7.3443,-7.3759,-7.4455,-7.4739,-7.4897,-7.4897,-7.4897,-7.4897,-7.4897,-7.4897,-7.4897,-7.4897,-7.4897,-7.5539,-7.6621,-7.6621,-7.7479,-7.905,-7.9702,-8.0374,-8.0838,-8.0804,-8.1131,-8.181,-8.181,-8.1965,-8.2118,-8.2211,-8.2522,-8.2886,0.0,0.0,0.0,-4.1354,-4.1482,-4.2166,-4.4147,-4.4543,-4.4567,0.0,-4.5601,-4.6748,-4.8077,-4.8685,-4.8994,-4.8994,-4.9116,-4.9142,-4.9193,-4.9316,-4.9854,-5.0657,-5.1281,-5.1937,-5.2805,-5.2805,-5.3076,-5.3592,-5.3169,-5.3315,-5.3833,-5.5178,-5.6423,-5.7411,-5.8654,0.0,-6.0794,-6.0794,-6.0886,-6.1255,-6.3841,-6.4888,-6.5072,-6.6581,-6.7332,-6.7528,-6.7218,-6.7332,-6.7683,-6.8421,-6.7073,-6.5072,-6.4764,-6.3102,-6.1194,-6.0886,-6.0917,-6.0978,-6.0824,-6.0794,-6.0794,-6.0794,-6.0794,0.0,-6.452,-6.5187,-6.6152,-6.9304,0.0,0.0,0.0,0.0,0.0,0.0,0.0,0.0,0.0,0.0,-7.0789,-7.0789,-7.0789,-7.101,-7.1642,-7.1705,-7.199,-7.2653,-7.2748,-7.3127,-7.3854,-7.4455,-7.4802,-7.4897,-7.4897,-7.4897,-7.4897,-7.4897,-7.4897,-7.4897,-7.5016,-7.5655,-7.6813,-7.6925,-7.8205,-8.024,-8.0274,-8.0838,-8.181,-8.181,-8.181,-8.181,-8.1776,-8.1965,-8.2211,-8.2488,-8.267,-8.2976,0.0,0.0,-4.2799,-4.2925,-4.2925,-4.3443,-4.5078,-4.5797,-4.6711,-4.7875,-4.8294,-4.8467,-4.8814,-4.8917,-4.8994,-4.8994,-4.9724,-5.0296,-5.0769,-5.1549,-5.2245,-5.2971,-5.3106,-5.3308,-5.3429,-5.3429,-5.3483,-5.3592,-5.4505,-5.4948,-5.506,-5.7299,-5.8436,-5.8654,-5.9895,-6.0586,-6.0794,-6.0794,0.0,-6.2579,-6.4241,-6.4888,-6.5165,-6.7941,-6.8984,-6.8953,-6.8984,-6.8984,-6.886,-6.7681,-6.695,-6.615,-6.3933,-6.3626,-6.3656,-6.144,-6.1563,-6.2179,-6.1101,-6.0794,-6.0794,-6.0794,-6.0794,0.0,-6.1575,-6.1803,-6.2372,0.0,0.0,0.0,0.0,0.0,0.0,0.0,0.0,0.0,0.0,0.0,0.0,-7.0789,-7.0789,-7.082,-7.0978,-7.0978,-7.1263,-7.1958,-7.2495,-7.3127,-7.3854,-7.4012,-7.4328,-7.4866,-7.4897,-7.4897,-7.4897,-7.4897,-7.4897,-7.4897,-7.5855,-7.6846,-7.8023,-7.8946,-8.014,-8.1455,-8.149,-8.1585,-8.181,-8.181,-8.181,-8.181,-8.1965,-8.2211,-8.2488,-8.267,-8.2976,-8.312,0.0,0.0,-4.5445,-4.5546,-4.567,-4.6017,-4.7159,-4.7579,-4.8172,-4.8942,-4.9715,-5.0289,-5.0775,-5.116,-5.1319,-5.1319,-5.1709,-5.2084,-5.2379,-5.289,-5.3293,-5.3592,-5.3592,-5.3592,-5.3592,-5.4166,-5.4497,-5.4497,-5.5732,-5.6308,-5.6308,-5.8107,-5.9087,-5.9225,-6.0346,-6.0897,-6.1,0.0,-6.1563,-6.2948,-6.4334,0.0,-6.6344,-6.8613,-6.9619,-6.9849,-6.9703,-6.9472,-6.9263,-6.8236,-6.7012,-6.578,-6.5072,-6.4395,-6.3595,-6.221,-6.2271,-6.2517,-6.1163,-6.0794,-6.0794,-6.0794,-6.0794,0.0,0.0,-6.202,-6.2526,0.0,0.0,0.0,0.0,0.0,0.0,0.0,0.0,0.0,0.0,0.0,0.0,0.0,-7.0789,-7.0789,-7.0789,-7.0789,-7.0915,-7.1263,-7.1926,-7.2464,-7.2843,-7.3159,-7.3665,-7.4391,-7.4391,-7.4549,-7.4897,-7.4897,-7.522,-7.5739,-7.6281,-7.7446,-7.9154,-7.9702,-8.0672,-8.181,-8.181,-8.181,-8.181,-8.181,-8.1871,-8.1965,-8.2024,-8.2303,-8.2705,-8.2886,-8.3066,-8.3208,-4.5966,0.0,0.0,0.0,-4.823,-4.8528,-4.9245,-4.9393,-4.9567,-4.9793,-5.0943,-5.199,-5.2767,-5.3537,-5.3944,-5.3944,-5.4162,-5.4189,-5.3972,-5.3944,-5.3836,-5.3619,-5.3592,-5.3592,-5.3592,-5.4734,-5.5412,-5.5412,-5.6849,-5.7523,-5.7523,-5.8763,-5.9439,-5.9758,-6.0831,-6.1247,-6.1134,0.0,0.0,-6.3426,0.0,-6.5911,-6.7384,-6.886,-6.9818,-7.0161,-6.9933,-6.9703,-6.9441,-6.8815,-6.7156,-6.5491,-6.5934,-6.498,-6.3441,-6.2671,-6.2794,-6.2856,-6.1255,-6.0794,-6.0794,-6.0794,-6.0794,-6.1175,0.0,0.0,0.0,0.0,0.0,0.0,0.0,0.0,0.0,0.0,0.0,0.0,0.0,0.0,0.0,0.0,-7.0441,-7.0662,-7.041,-7.0378,-7.0504,-7.0757,-7.1042,-7.1389,-7.18,-7.2306,-7.2938,-7.3665,-7.3823,-7.417,-7.4707,-7.5039,-7.5655,-7.6621,-7.7037,-7.8205,-8.0006,-8.024,-8.0902,-8.181,-8.181,-8.181,-8.181,-8.1871,-8.1965,-8.2211,-8.2211,-8.2488,-8.2886,-8.2976,-8.3031,-8.3208,-4.8804,-4.8723,0.0,0.0,0.0,0.0,-5.0769,-5.097,-5.1546,-5.2931,-5.3214,-5.3362,-5.351,-5.4514,-5.522,-5.522,-5.617,-5.6332,-5.5274,-5.522,-5.4731,-5.3646,-5.3592,-5.3592,-5.3592,-5.4734,-5.5412,-5.5412,-5.7664,-5.8763,-5.8763,-6.0,-6.0586,-6.0721,-6.2267,-6.2248,0.0,0.0,-6.3809,0.0,-6.5235,-6.5911,0.0,-6.9059,-6.9818,-6.9933,-7.0161,-7.0047,-6.9485,-6.8044,-6.7311,-6.6548,-6.4104,-6.4734,-6.575,-6.2086,0.0,0.0,-6.1502,-6.0794,-6.0794,-6.0794,-6.0794,-6.0824,-6.1009,0.0,-6.1175,-6.164,0.0,0.0,0.0,0.0,0.0,0.0,0.0,0.0,0.0,0.0,0.0,0.0,-6.9272,-7.0283,-6.9051,-6.8924,-6.9462,-7.0694,-6.9714,-6.9872,-7.1705,-7.1895,-7.2243,-7.2906,-7.357,-7.3949,-7.4012,-7.5566,-7.6508,-7.6621,-7.863,-7.9803,-8.0006,-8.1131,-8.1681,-8.181,-8.181,-8.181,-8.181,-8.1965,-8.2211,-8.2488,-8.2488,-8.2579,-8.2886,-8.312,-8.3208,-8.3208,-5.0395,-5.0838,0.0,0.0,0.0,0.0,0.0,0.0,-5.281,-5.3565,-5.3592,-5.3592,-5.3592,-5.4053,-5.465,-5.5355,-5.5871,-5.5952,-5.5437,-5.541,-5.4867,-5.3646,-5.4259,-5.4616,-5.4616,-5.6508,-5.7523,-5.7523,-5.9225,-6.0,-6.0031,-6.0555,-6.0897,-6.1062,-6.2662,0.0,-6.2519,0.0,-6.4057,0.0,0.0,0.0,0.0,-6.9288,-7.0161,-7.0419,-7.0306,-7.0161,-6.9953,-6.9018,-6.7548,-6.6195,0.0,0.0,0.0,-6.3626,0.0,0.0,0.0,0.0,-6.202,-6.1009,-6.1483,-6.1989,-6.0978,-6.0794,-6.0794,-6.0897,0.0,0.0,0.0,0.0,0.0,0.0,-6.3192,0.0,0.0,0.0,0.0,0.0,0.0,0.0,-6.8671,-6.8703,-6.9272,-7.0662,-6.9493,-6.943,-7.1136,-7.1231,-7.1516,-7.2211,-7.2527,-7.3188,-7.4221,-7.5458,-7.6638,-7.7893,-7.9398,-8.034,-8.1034,-8.1585,-8.181,-8.181,-8.1965,-8.1965,-8.1965,-8.2211,-8.2488,-8.267,-8.267,-8.2851,-8.3031,-8.3208,-8.3208,-8.3208,-5.1891,0.0,0.0,0.0,0.0,0.0,0.0,-5.3592,-5.3592,-5.3592,-5.3592,-5.3592,-5.3592,-5.4189,-5.4948,-5.5817,-5.6495,-5.6604,-5.5952,-5.5898,-5.548,-5.4715,-5.5137,-5.5669,-5.6475,-5.8173,-5.9009,-5.9009,-6.0241,-6.0794,-6.0794,-6.0794,-6.0897,-6.1165,-6.2662,-6.3357,-6.3599,0.0,-6.483,-6.6074,-6.6074,-6.6775,-6.7915,-6.9628,-7.0532,-7.0789,-7.0532,-7.0419,-7.0356,-6.9609,-6.7915,-6.6464,-6.8196,-6.6665,-6.4383,0.0,0.0,0.0,-6.202,-6.2476,-6.3047,-6.134,-6.1846,-6.2341,-6.1113,-6.0794,-6.0794,-6.0794,-6.0897,0.0,0.0,0.0,0.0,0.0,0.0,-6.352,0.0,0.0,0.0,0.0,0.0,0.0,0.0,-6.7787,-6.8292,-7.0062,-6.8924,-6.8893,-7.0694,-7.0789,-7.101,-7.1516,-7.1705,-7.2588,-7.4225,-7.5429,-7.704,-7.8923,-8.0001,-8.0902,-8.181,-8.181,-8.181,-8.181,-8.2059,-8.2118,-8.2118,-8.2488,-8.267,-8.2886,-8.2976,-8.3031,-8.3208,-8.3208,-8.3208,-8.3208,-5.347,-5.3592,0.0,0.0,0.0,0.0,0.0,-5.3592,-5.3592,-5.3592,-5.3592,-5.3592,-5.3592,-5.5681,-5.7092,-5.7119,-5.9263,-5.9616,-5.7282,-5.7119,-5.7185,-5.7238,-5.603,-5.6531,-5.9016,-5.9088,-5.9009,-5.9009,-6.0241,-6.0794,-6.0794,-6.0794,-6.0794,-6.0855,-6.2557,-6.3251,-6.345,-6.5,-6.6698,-6.8171,-6.8171,-6.8422,-6.872,0.0,-7.0532,-7.0789,-7.0789,-7.0789,-7.0568,-6.8878,-6.8233,-6.7951,-6.6402,-6.6698,0.0,0.0,0.0,0.0,-6.4327,-6.361,-6.3329,-6.1547,-6.1268,-6.1165,-6.0897,-6.0794,-6.0794,-6.0794,-6.0794,-6.1,-6.1481,-6.1582,-6.1596,-6.1432,0.0,0.0,0.0,0.0,0.0,0.0,0.0,0.0,0.0,-6.5448,-6.5796,-6.8545,-6.7471,-6.7881,-7.0631,-7.0789,-7.0789,-7.082,-7.1452,-7.2333,-7.3371,-7.603,-7.7774,-7.8923,-8.0885,-8.181,-8.181,-8.181,-8.181,-8.181,-8.2059,-8.2118,-8.2118,-8.2705,-8.2886,-8.2886,-8.312,-8.3208,-8.3208,-8.3208,-8.3208,-8.3208,0.0,0.0,0.0,0.0,0.0,0.0,0.0,-5.3592,-5.389,-5.4704,-5.4813,-5.5111,-5.5898,-5.6685,-5.7499,-5.8313,-6.0,-5.9883,-5.7411,-5.8718,-5.8993,-5.7415,-5.7656,-5.8585,-6.0333,-6.024,-6.0241,-6.0241,-6.0586,-6.0794,-6.0794,-6.0794,-6.0794,-6.0855,-6.2557,-6.3885,0.0,0.0,0.0,0.0,0.0,-6.7634,-6.8735,0.0,-6.9288,-6.9525,-7.0441,-7.0789,-7.0694,-7.0109,-6.9241,-6.8406,-6.8878,-6.7872,-6.662,-6.7308,-6.7011,-6.623,-6.5295,-6.5915,-6.6148,-6.3548,-6.3672,-6.3859,-6.164,-6.1103,-6.1103,-6.1103,-6.1103,-6.1206,-6.1481,0.0,0.0,-6.1802,0.0,0.0,0.0,0.0,0.0,0.0,0.0,0.0,0.0,0.0,0.0,-6.8545,-6.8261,-6.8798,-7.0694,-7.0789,-7.0789,-7.0789,-7.101,-7.2041,-7.3755,-7.5194,-7.6978,-7.9282,-8.045,-8.1293,-8.181,-8.181,-8.1871,-8.2059,-8.2211,-8.2488,-8.2705,-8.2941,-8.312,-8.312,-8.3208,-8.3208,-8.3208,-8.3208,-8.3208,-8.3208,-5.3592,0.0,0.0,-5.3592,-5.3592,-5.3592,-5.3592,-5.3592,-5.4026,-5.5247,-5.541,-5.5871,-5.7065,-5.7553,-5.8385,-5.9545,-6.0484,-6.0274,-5.8606,-6.0109,-6.0502,-5.9504,-6.0048,-6.1267,-6.304,-6.1997,-6.1502,-6.1502,-6.104,-6.0794,-6.0794,-6.0794,-6.0794,-6.0824,0.0,-6.3667,-6.5762,0.0,-6.7151,0.0,0.0,-6.7016,0.0,0.0,-6.8261,-6.8861,-7.0283,-7.0789,-7.0789,-7.0789,-7.0045,-6.9367,-7.0504,-6.9335,-6.7825,-6.8815,-6.8469,-6.7433,-6.6963,-6.7574,-6.7809,-6.527,-6.5396,-6.5458,-6.2758,-6.2125,-6.1898,-6.1401,-6.1308,-6.141,-6.1683,-6.1916,0.0,0.0,0.0,0.0,0.0,-6.2446,0.0,0.0,0.0,0.0,0.0,0.0,-6.5922,-6.7818,-6.7945,-6.8577,0.0,-7.0504,-7.0789,-7.0789,-7.1171,-7.2197,-7.3972,-7.5072,-7.683,-7.912,-8.012,-8.0879,-8.1397,-8.1672,-8.1871,-8.2118,-8.2396,-8.267,-8.2886,-8.312,-8.3208,-8.3208,-8.3208,-8.3208,-8.3208,-8.3208,-8.3208,-8.3208,0.0,0.0,-5.3592,-5.3592,-5.3592,-5.3592,-5.3592,-5.3592,-5.4053,-5.5328,-5.5491,-5.598,-5.7228,-5.8395,-5.9577,-6.0903,-6.0992,-6.1031,-6.1131,-6.1126,-6.1767,-6.3139,-6.3249,-6.4311,-6.6888,-6.4241,-6.2825,-6.2825,-6.1471,-6.0794,-6.0794,-6.0794,-6.0794,-6.0794,-6.0794,0.0,-6.5669,-6.5669,-6.7528,-7.0346,-6.7692,-6.6617,-6.6617,-6.6681,-6.7534,-6.8861,-7.0283,-7.0789,-7.0789,-7.0789,-7.0789,-7.0789,-7.0789,-7.0789,-7.0789,-7.0789,-7.0789,-7.0504,-6.9146,-6.8798,-6.8342,-6.6708,-6.6362,-6.5878,-6.4183,-6.3871,-6.3496,-6.205,-6.1801,-6.1871,-6.211,-6.211,0.0,0.0,0.0,0.0,0.0,0.0,0.0,0.0,0.0,0.0,0.0,-6.3268,-6.3678,-6.6396,-6.6617,0.0,0.0,-6.9999,-7.0726,-7.0789,-7.1874,-7.2874,-7.3972,-7.5766,-7.7263,-7.843,-7.9844,-8.0534,-8.0638,-8.1397,-8.1836,-8.2118,-8.2396,-8.267,-8.2976,-8.312,-8.3208,-8.3208,-8.3208,-8.3208,-8.3208,-8.3208,-8.3208,-8.3208,-5.3592,-5.3592,-5.3592,-5.3592,-5.3592,-5.3592,-5.3592,-5.3592,-5.4351,0.0,-5.6739,-5.7526,-5.9616,-6.0131,-6.0809,-6.2192,-6.2341,-6.236,-6.2499,-6.3315,-6.4008,-6.4573,-6.4479,-6.5167,-6.6888,-6.4241,-6.2825,-6.2825,-6.1471,-6.0794,-6.0794,0.0,-6.0794,0.0,0.0,0.0,-6.4203,-6.4203,-6.5521,-6.7629,-6.6902,-6.6617,-6.6712,-6.7755,-6.8387,-6.8861,-7.0283,-7.0789,-7.0789,-7.0789,-7.0789,-7.0789,-7.0789,-7.0789,-7.0789,-7.0789,-7.0789,-7.0694,-7.0346,-7.0252,-6.9904,-6.8405,-6.8058,-6.7571,-6.5941,-6.5521,-6.5427,-6.5051,-6.4883,-6.457,-6.3948,-6.3657,-6.3311,0.0,0.0,0.0,0.0,0.0,0.0,-6.2446,0.0,0.0,0.0,-6.3584,-6.4721,-6.6459,-6.6617,0.0,0.0,0.0,-6.9714,-7.0757,-7.1874,-7.2874,-7.3972,-7.5262,-7.6752,-7.8396,-7.8775,-7.9569,-8.0638,-8.0845,-8.1412,-8.2396,-8.2488,-8.2761,-8.312,-8.3208,-8.3208,-8.3208,-8.3208,-8.3208,-8.3208,-8.3208,-8.3208,-8.3208,-5.3592,0.0,0.0,-5.3592,-5.4053,-5.4406,-5.4406,-5.3944,-5.446,-5.6875,-5.7174,-5.7906,-5.9806,-6.0946,-6.2164,-6.3562,-6.3663,-6.4017,-6.4606,-6.5293,-6.5742,-6.5819,-6.6361,-6.7012,-6.775,-6.5769,-6.4412,-6.3718,-6.247,-6.1483,-6.0794,0.0,0.0,0.0,0.0,-6.1877,0.0,-6.5058,-6.611,-6.6649,-6.7281,-6.7534,0.0,-6.8387,-6.9082,-6.9714,-7.0504,-7.0789,-7.0789,-7.0789,-7.0789,-7.0789,-7.0789,-7.0789,-7.0789,-7.0789,-7.0789,-7.0789,-7.0789,-7.0789,-7.0599,-6.9809,-6.962,-6.924,-6.7603,-6.7288,-6.713,-6.65,-6.6268,-6.6048,-6.547,-6.4808,-6.3854,0.0,0.0,0.0,0.0,0.0,0.0,0.0,-6.2446,0.0,0.0,-6.3141,-6.4184,-6.5606,-6.5701,0.0,0.0,0.0,-6.953,-6.9841,-7.1753,-7.3142,-7.3972,-7.4837,-7.6165,-7.7879,-7.8314,-7.8936,-7.9672,-8.0513,-8.1309,-8.2,-8.244,-8.2851,-8.3208,-8.3208,-8.3208,-8.3208,-8.3208,-8.3208,-8.3208,-8.3208,-8.3208,-8.3297,0.0,0.0,0.0,0.0,0.0,-5.5464,-5.5627,-5.4758,-5.4867,-5.7119,-5.7547,-5.8113,-5.9339,-6.1657,-6.3533,-6.4949,-6.4949,-6.5512,-6.6997,-6.7003,-6.7004,-6.7112,-6.8274,-6.9006,-6.9006,-6.7879,-6.6517,-6.4998,-6.3826,-6.2465,0.0,0.0,0.0,0.0,0.0,0.0,0.0,-6.6556,-6.7319,-6.6712,-6.8134,-6.8703,-6.8703,-6.8893,-6.9714,-7.0789,-7.0789,-7.0789,-7.0789,-7.0789,-7.0789,-7.0789,-7.0789,-7.0789,-7.0789,-7.0789,-7.0789,-7.0789,-7.0789,-7.0789,-7.0789,-7.0789,-7.0789,-7.0473,-6.924,-6.8988,-6.8608,-6.7407,-6.7155,-6.7091,-6.6902,-6.5574,0.0,0.0,0.0,0.0,0.0,0.0,0.0,0.0,0.0,0.0,0.0,0.0,0.0,0.0,0.0,0.0,0.0,0.0,-6.9833,-6.9466,-7.2182,-7.3682,-7.3874,-7.481,-7.5809,-7.6947,-7.8079,-7.8529,-7.8521,-8.0254,-8.1165,-8.1499,-8.2342,-8.2961,-8.3208,-8.3208,-8.3208,-8.3208,-8.3208,-8.3208,-8.3208,-8.3208,-8.3208,-8.3297,0.0,0.0,0.0,0.0,0.0,-5.5762,-5.6712,-5.6685,-5.7065,-5.8503,-5.9662,-6.0858,-6.1957,-6.3549,-6.4949,-6.6357,-6.5484,0.0,0.0,0.0,0.0,-6.8551,-6.9,-6.924,-6.924,-6.8251,-6.6883,-6.5187,-6.3933,-6.2465,-6.0794,0.0,0.0,0.0,0.0,0.0,-6.3704,-6.4727,0.0,-6.6712,-6.8134,-6.8703,-6.8829,-6.9967,-7.0568,-7.0789,-7.0789,-7.0789,-7.0789,-7.0789,-7.0789,-7.0789,-7.0789,-7.0789,-7.0789,-7.0789,-7.0789,-7.0789,-7.0789,-7.0789,-7.0789,-7.0789,-7.0789,-7.0726,-7.0473,-7.041,-7.0346,-7.0094,-7.003,-6.9683,-6.8545,-6.6238,-6.4437,0.0,-6.4152,-6.4563,-6.5701,0.0,0.0,0.0,0.0,-6.371,0.0,0.0,0.0,0.0,0.0,0.0,0.0,0.0,-6.9935,0.0,-7.4497,-7.4634,-7.3433,-7.5901,-7.659,-7.5621,-7.7268,-7.8328,-7.8865,-7.9232,-8.021,-8.1698,-8.1837,-8.2435,-8.3208,-8.3208,-8.3208,-8.3208,-8.3208,-8.3208,-8.3208,-8.3208,-8.3208,-8.3297,0.0,0.0,0.0,0.0,0.0,0.0,0.0,-5.8639,-5.9019,-5.9019,-6.0227,-6.1172,-6.1762,-6.3679,-6.5329,-6.6757,-6.6233,-6.6727,-6.8772,-6.8268,-6.8268,-6.8889,-6.924,-6.9387,-6.9387,-6.9163,-6.7821,-6.5297,-6.4862,-6.3251,-6.0794,-6.0794,0.0,0.0,0.0,-6.2736,0.0,0.0,-6.6953,-6.7818,-6.9209,-6.9778,-6.9841,-7.0536,-7.0789,-7.0789,-7.0789,-7.0789,-7.0789,-7.0789,-7.0789,-7.0789,-7.0789,-7.0789,-7.0789,-7.0789,-7.0789,-7.0789,-7.0789,-7.0789,-7.0789,-7.0789,-7.0789,-7.0789,-7.0789,-7.0789,-7.0789,-7.0789,-7.0789,-7.0346,-6.8956,-6.6997,-6.5606,-6.5606,-6.5006,-6.5006,-6.6396,0.0,-6.6365,0.0,0.0,0.0,0.0,0.0,0.0,0.0,0.0,0.0,0.0,0.0,-7.0239,0.0,0.0,0.0,-7.4492,-7.575,-7.6435,-7.6505,-7.758,-7.8189,-7.845,-7.9129,-7.981,-8.0544,-8.1016,-8.1822,-8.2647,-8.3033,-8.3208,-8.3208,-8.3208,-8.3208,-8.3208,-8.3208,-8.3208,-8.335,0.0,-5.3782,0.0,0.0,-5.6577,-5.7608,-5.8829,-5.9996,-6.043,-5.9507,-6.0615,-6.134,-6.134,-6.3479,-6.5329,-6.6757,-6.6879,-6.7517,-6.8772,-6.8889,-6.8889,-6.9006,-6.9356,-6.9472,-6.9619,-7.0192,-6.897,-6.595,-6.5887,-6.4209,-6.1113,0.0,0.0,0.0,0.0,0.0,0.0,-6.74,-6.8642,-6.924,-7.0346,-7.0789,-7.0789,-7.0789,-7.0789,-7.0789,-7.0789,-7.0789,-7.0789,-7.0789,-7.0789,-7.0789,-7.0789,-7.0789,-7.0789,-7.0789,-7.0789,-7.0789,-7.0789,-7.0789,-7.0789,-7.0789,-7.0789,-7.0789,-7.0789,-7.0789,-7.0789,-7.0789,-7.0789,-7.0346,-6.8956,-6.7787,-6.6965,-6.6649,-6.5922,-6.5796,-6.6902,0.0,0.0,0.0,0.0,0.0,-6.4974,0.0,0.0,0.0,0.0,0.0,-6.6711,0.0,0.0,0.0,-7.3923,-7.4727,-7.5,-7.5549,-7.6314,-7.7303,-7.8047,-7.8272,-7.8101,-7.9072,-7.9542,-7.9546,-8.0314,-8.1207,-8.212,-8.2717,-8.3068,-8.3208,-8.3208,-8.3208,-8.3208,-8.3208,-8.3208,-8.3437,0.0,0.0,0.0,0.0,0.0,-5.7608,-5.8829,-5.9996,-6.0728,-6.062,-6.1864,-6.2605,-6.2605,-6.3995,-6.5329,-6.6757,-6.6879,-6.7517,-6.8772,-6.8889,-6.9006,-6.9356,-6.9588,-6.9933,-7.0161,-7.0532,-6.9919,-6.8045,-6.6573,-6.4564,-6.2136,-6.1205,0.0,0.0,0.0,-6.5502,-6.7966,-6.8468,-6.943,-7.0599,-7.0726,-7.0789,-7.0789,-7.0789,-7.0789,-7.0789,-7.0789,-7.0789,-7.0789,-7.0789,-7.0789,-7.0789,-7.0789,-7.0789,-7.0789,-7.0789,-7.0789,-7.0789,-7.0789,-7.0789,-7.0789,-7.0789,-7.0789,-7.0789,-7.0789,-7.0789,-7.0789,-7.0789,-7.0789,-7.0346,-6.8956,-6.8577,-6.8071,-6.6807,-6.7565,-6.8355,-6.8482,0.0,-6.9904,-6.864,0.0,0.0,0.0,-6.3994,0.0,0.0,-6.5218,0.0,0.0,0.0,0.0,-7.4493,-7.3957,-7.3523,-7.3253,-7.6191,-7.7143,-7.6209,-7.7824,-7.8574,-7.849,-7.8679,-7.9101,-7.9803,-7.9873,-8.0716,-8.2085,-8.2155,-8.2577,-8.3208,-8.3208,-8.3208,-8.3208,-8.3208,-8.3208,-8.3385,0.0,0.0,0.0,0.0,0.0,0.0,-5.9887,-6.0457,-6.0782,-6.0782,-6.203,-6.2773,-6.2773,-6.33,-6.4438,-6.6757,-6.6109,-6.6604,-6.8772,-6.8505,-6.8654,-6.9387,-6.9356,-6.9588,-7.0275,-7.0645,-6.9982,-6.8343,-6.5916,-6.4104,-6.2848,-6.1768,-6.2564,-6.5058,-6.6192,-6.7306,-6.8626,-6.9588,-7.0283,-7.0789,-7.0789,-7.0789,-7.0789,-7.0789,-7.0789,-7.0789,-7.0789,-7.0789,-7.0789,-7.0789,-7.0789,-7.0789,-7.0789,-7.0789,-7.0789,-7.0789,-7.0789,-7.0789,-7.0789,-7.0789,-7.0789,-7.0789,-7.0789,-7.0789,-7.0789,-7.0789,-7.0789,-7.0789,-7.0789,-7.0599,-7.003,-6.9272,-6.8798,-6.9051,-6.8861,-6.8988,-6.9841,0.0,0.0,-6.8861,0.0,-6.6617,0.0,0.0,0.0,0.0,0.0,0.0,0.0,0.0,0.0,-7.3482,0.0,-7.5445,-7.4391,-7.6849,-7.7872,-7.7363,-7.821,-7.8574,-7.8574,-7.8574,-7.875,-7.9101,-7.9592,-8.0154,-8.0751,-8.1207,-8.1839,-8.2541,-8.2541,-8.2822,-8.3208,-8.3208,-8.3208,-8.3297,-5.7662,-5.7418,-5.7662,-5.9236,-5.9236,-5.9399,-6.0593,-6.0782,-6.0782,-6.0782,-6.1654,-6.2136,-6.2136,-6.2136,-6.3169,-6.5484,-6.4822,-6.5202,-6.7487,-6.7396,-6.7759,-6.8858,-6.8858,0.0,-7.0419,-7.0676,-7.0172,-6.9083,-6.6505,-6.5016,-6.4471,-6.3148,-6.4089,-6.682,-6.7903,-6.8815,-6.9367,-7.0378,-7.0789,-7.0789,-7.0789,-7.0789,-7.0789,-7.0789,-7.0789,-7.0789,-7.0789,-7.0789,-7.0789,-7.0789,-7.0789,-7.0789,-7.0789,-7.0789,-7.0789,-7.0789,-7.0789,-7.0789,-7.0789,-7.0789,-7.0789,-7.0789,-7.0789,-7.0789,-7.0789,-7.0789,-7.0789,-7.0789,-7.0789,-7.0789,-7.0789,-6.9967,-6.9493,-7.0062,-6.9683,-6.9525,-7.0094,-7.0536,0.0,-6.8861,-6.7471,-6.6775,-6.7186,-6.4964,0.0,0.0,0.0,0.0,0.0,-6.9536,-7.1255,-7.3411,-7.543,-7.6192,-7.5462,-7.7333,-7.8357,-7.8357,-7.8525,-7.8574,-7.8574,-7.8574,-7.8574,-7.8609,-7.9206,-7.9557,-7.9838,-8.0365,-8.1032,-8.1734,-8.1734,-8.2085,-8.2541,-8.2541,-8.2682,-8.2892,-5.8747,-5.8015,-5.7933,-6.0321,-5.9778,-5.9399,-6.0593,-6.0782,-6.0782,-6.0782,-6.0755,-6.0755,-6.0755,-6.0755,-6.1411,-6.2773,-6.2773,-6.3431,-6.4694,-6.5513,-6.651,0.0,-6.8474,-6.9472,-7.0789,-7.0789,-7.0789,-7.0757,-6.9115,-6.7966,-6.7243,-6.5753,-6.6224,-6.8312,-6.8562,-6.9462,-7.0757,-7.0757,-7.0789,-7.0789,-7.0789,-7.0789,-7.0789,-7.0789,-7.0789,-7.0789,-7.0789,-7.0789,-7.0789,-7.0789,-7.0789,-7.0789,-7.0789,-7.0789,-7.0789,-7.0789,-7.0789,-7.0789,-7.0789,-7.0789,-7.0789,-7.0789,-7.0789,-7.0789,-7.0789,-7.0789,-7.0789,-7.0789,-7.0789,-7.0789,-7.0789,-7.0757,-7.0315,-6.8956,-6.9872,-7.0283,-6.8924,-6.9904,0.0,-6.8861,-6.7471,-6.7155,-6.8545,-6.708,0.0,0.0,0.0,0.0,0.0,-7.0781,-7.2512,-7.5223,-7.4439,-7.4616,-7.5964,-7.7503,-7.8357,-7.8574,-7.8574,-7.8574,-7.8574,-7.8574,-7.8574,-7.8574,-7.8609,-7.9066,-7.9803,-7.9803,-8.0259,-8.0926,-8.0926,-8.0926,-8.0961,-8.0961,-8.1418,-8.2085,-6.0131,-5.9887,-5.986,-6.0647,-6.0457,-6.0348,-6.0701,-6.0782,-6.0782,-6.0782,-6.0782,-6.0782,-6.0782,-6.0782,-6.1411,0.0,-6.2773,-6.3431,-6.4694,-6.5735,-6.6757,-6.7788,-6.8679,-6.9703,-7.0789,-7.0789,-7.0789,-7.0789,-6.827,-6.6982,-6.6765,-6.7089,-6.8327,-7.0014,-7.0125,-7.0378,-7.0789,-7.0789,-7.0789,-7.0789,-7.0789,-7.0789,-7.0789,-7.0789,-7.0789,-7.0789,-7.0789,-7.0789,-7.0789,-7.0789,-7.0789,-7.0789,-7.0789,-7.0789,-7.0789,-7.0789,-7.0789,-7.0789,-7.0789,-7.0789,-7.0789,-7.0789,-7.0789,-7.0789,-7.0789,-7.0789,-7.0789,-7.0789,-7.0789,-7.0789,-7.0789,-7.0789,-7.0631,-7.0188,-7.0504,-7.0631,-7.0188,0.0,-6.8829,-6.7439,-6.6048,-6.6012,-6.8177,-6.7001,0.0,0.0,0.0,0.0,0.0,-7.2214,-7.3269,-7.3733,-7.5828,-7.6555,-7.5964,-7.767,-7.8525,-7.8574,-7.8574,-7.8574,-7.8574,-7.8574,-7.8574,-7.8574,-7.8574,-7.875,-7.896,-7.896,-7.9417,-8.0154,-8.0154,-8.047,-8.0926,-8.0926,-8.1067,-8.1277,-6.1081,-6.0918,-6.0782,-6.0782,-6.0782,-6.0782,-6.0782,-6.0782,-6.0782,-6.0782,-6.0782,-6.0782,-6.0782,-6.0782,-6.1138,-6.203,-6.227,-6.2802,-6.3562,-6.5105,-6.6481,-6.7427,-6.8679,-6.9787,-7.0789,-7.0789,-7.0789,-7.0789,-6.9026,-6.8106,-6.8106,-6.8876,-6.9825,-7.0789,-7.0789,-7.0789,-7.0789,-7.0789,-7.0789,-7.0789,-7.0789,-7.0789,-7.0789,-7.0789,-7.0789,-7.0789,-7.0789,-7.0789,-7.0789,-7.0789,-7.0789,-7.0789,-7.0789,-7.0789,-7.0789,-7.0789,-7.0789,-7.0789,-7.0789,-7.0789,-7.0789,-7.0789,-7.0789,-7.0789,-7.0789,-7.0789,-7.0789,-7.0789,-7.0789,-7.0789,-7.0789,-7.0789,-7.0789,-7.0789,-7.0789,-7.0599,-7.0062,-6.924,-6.8166,0.0,-6.621,-6.669,-6.8784,-6.896,-6.9666,0.0,0.0,0.0,-7.3645,-7.3597,-7.4033,-7.4956,-7.7089,-7.7902,-7.7005,-7.8034,-7.8574,-7.8574,-7.8574,-7.8574,-7.8574,-7.8574,-7.8574,-7.8574,-7.8574,-7.8574,-7.8574,-7.8574,-7.889,-7.9346,-7.9346,-7.9627,-8.0049,-8.0049,-8.0224,-8.0505,-6.1597,-6.1162,-6.0782,-6.0782,-6.0782,-6.0782,-6.0782,-6.0782,-6.0782,-6.0782,-6.0782,-6.0782,-6.0782,-6.0782,-6.0782,-6.0892,-6.1411,-6.1789,-6.1923,-6.411,-6.5735,-6.6697,-6.8325,-6.9787,-7.0676,-7.0789,-7.0789,-7.0789,-7.0789,-7.0789,-7.0789,-7.0789,-7.0789,-7.0789,-7.0789,-7.0789,-7.0789,-7.0789,-7.0789,-7.0789,-7.0789,-7.0789,-7.0789,-7.0789,-7.0789,-7.0789,-7.0789,-7.0789,-7.0789,-7.0789,-7.0789,-7.0789,-7.0789,-7.0789,-7.0789,-7.0789,-7.0789,-7.0789,-7.0789,-7.0789,-7.0789,-7.0789,-7.0789,-7.0789,-7.0789,-7.0789,-7.0789,-7.0789,-7.0789,-7.0789,-7.0789,-7.0789,-7.0789,-7.0789,-7.0694,-7.0188,-6.8861,-6.8608,-6.8071,-6.6849,-6.7529,-6.8755,-7.0387,-7.2271,-7.4043,-7.5432,0.0,0.0,0.0,-7.4703,-7.4782,-7.8202,-7.8272,-7.8441,-7.8574,-7.8574,-7.8574,-7.8574,-7.8574,-7.8574,-7.8574,-7.8574,-7.8574,-7.8574,-7.8574,-7.8574,-7.8574,-7.8574,-7.8657,-7.8657,-7.8574,-7.8657,-7.8657,-7.8574,-7.9066,-7.9698,-6.1597,-6.1162,-6.0782,-6.0782,-6.0782,-6.0782,-6.0782,-6.0782,-6.0782,-6.0782,-6.0782,-6.0782,-6.0782,-6.0782,-6.1029,-6.1546,-6.1681,-6.2058,-6.262,-6.4368,-6.5484,-6.5735,-6.8087,-6.9441,-6.9672,-7.0419,-7.0789,-7.0789,-7.0789,-7.0789,-7.0789,-7.0789,-7.0789,-7.0789,-7.0789,-7.0789,-7.0789,-7.0789,-7.0789,-7.0789,-7.0789,-7.0789,-7.0789,-7.0789,-7.0789,-7.0789,-7.0789,-7.0789,-7.0789,-7.0789,-7.0789,-7.0789,-7.0789,-7.0789,-7.0789,-7.0789,-7.0789,-7.0789,-7.0789,-7.0789,-7.0789,-7.0789,-7.0789,-7.0789,-7.0789,-7.0789,-7.0789,-7.0789,-7.0789,-7.0789,-7.0789,-7.0789,-7.0789,-7.0789,-6.9872,-6.9082,-6.8735,-6.7787,-6.725,-6.7765,-6.8004,-6.9452,-7.2424,-7.3249,-7.3912,-7.4953,0.0,-7.5812,-7.6068,-7.5575,-7.6196,-7.8237,-7.8441,-7.8574,-7.8574,-7.8574,-7.8574,-7.8574,-7.8574,-7.8574,-7.8574,-7.8574,-7.8574,-7.8574,-7.8574,-7.8574,-7.8574,-7.8574,-7.8952,-7.9365,-7.8788,-7.8917,-7.9365,-7.8788,-7.8715,-7.8855,-6.2031,-6.1352,-6.0782,-6.0782,-6.0782,-6.0782,-6.0782,-6.1029,-6.1302,-6.1302,-6.1302,-6.1302,-6.1302,-6.1029,-6.1166,-6.2192,-6.2326,-6.2592,-6.3254,-6.488,-6.589,-6.589,-6.7608,-6.8828,-6.9325,-6.9787,-7.0306,-7.0789,-7.0789,-7.0789,-7.0789,-7.0789,-7.0789,-7.0789,-7.0789,-7.0789,-7.0789,-7.0789,-7.0789,-7.0789,-7.0789,-7.0789,-7.0789,-7.0789,-7.0789,-7.0789,-7.0789,-7.0789,-7.0789,-7.0789,-7.0789,-7.0789,-7.0789,-7.0789,-7.0789,-7.0789,-7.0789,-7.0789,-7.0789,-7.0789,-7.0789,-7.0789,-7.0789,-7.0789,-7.0789,-7.0789,-7.0789,-7.0789,-7.0789,-7.0789,-7.0789,-7.0789,-7.0789,-7.0789,-6.962,-6.8703,-6.8703,-6.7864,-6.7786,-6.9011,-7.0043,-7.167,-7.4221,-7.4854,-7.5468,-7.607,-7.6244,-7.6504,-7.6845,-7.6929,-7.7482,-7.8406,-7.849,-7.8574,-7.8574,-7.8574,-7.8574,-7.8574,-7.8574,-7.8574,-7.8574,-7.8574,-7.8574,-7.8574,-7.8574,-7.8574,-7.8657,-7.8917,-7.9365,-7.9643,-7.9285,-7.9365,-7.9643,-7.887,-7.8574,-7.8574,-6.2546,-6.1569,-6.0782,-6.0782,-6.0782,-6.0755,-6.0892,-6.1411,-6.1789,-6.1789,-6.1789,-6.1789,-6.1681,-6.1302,-6.1438,-6.2753,-6.3018,-6.3385,-6.4037,-6.5416,-6.6168,-6.6168,-6.7153,-6.7998,-6.8828,-6.9178,-6.9787,-7.0789,-7.0789,-7.0789,-7.0789,-7.0789,-7.0789,-7.0789,-7.0789,-7.0789,-7.0789,-7.0789,-7.0789,-7.0789,-7.0789,-7.0789,-7.0789,-7.0789,-7.0789,-7.0789,-7.0789,-7.0789,-7.0789,-7.0789,-7.0789,-7.0789,-7.0789,-7.0789,-7.0789,-7.0789,-7.0789,-7.0789,-7.0789,-7.0789,-7.0789,-7.0789,-7.0789,-7.0789,-7.0789,-7.0789,-7.0789,-7.0789,-7.0789,-7.0789,-7.0789,-7.0789,-7.0726,-7.0504,-6.9304,-6.8464,-6.8571,-6.8402,-6.8823,-7.0558,-7.2567,-7.4373,-7.5756,-7.6702,-7.7313,-7.7613,-7.7701,-7.7841,-7.8272,-7.8357,-7.8441,-7.8574,-7.8574,-7.8574,-7.8574,-7.8574,-7.8574,-7.8574,-7.8574,-7.8574,-7.8574,-7.8574,-7.8574,-7.8574,-7.8574,-7.8574,-7.8657,-7.9444,-7.9762,-7.9875,-7.9798,-7.9762,-7.9798,-7.8952,-7.8574,-7.8574,-6.2546,-6.1569,-6.0782,-6.0782,-6.0782,-6.1029,-6.1546,-6.1654,-6.1789,-6.1789,-6.1789,-6.1546,-6.1029,-6.1411,-6.1951,-6.2886,-6.3385,-6.4037,-6.4711,-6.5094,-6.5222,-6.5222,-6.6168,-6.6634,-6.6879,-6.8444,-6.9787,-7.0789,-7.0789,-7.0789,-7.0789,-7.0789,-7.0789,-7.0789,-7.0789,-7.0789,-7.0789,-7.0789,-7.0789,-7.0789,-7.0789,-7.0789,-7.0789,-7.0789,-7.0789,-7.0789,-7.0789,-7.0789,-7.0789,-7.0789,-7.0789,-7.0789,-7.0789,-7.0789,-7.0789,-7.0789,-7.0789,-7.0789,-7.0789,-7.0789,-7.0789,-7.0789,-7.0789,-7.0789,-7.0789,-7.0789,-7.0789,-7.0789,-7.0789,-7.0789,-7.0789,-7.0789,-7.0378,-6.9209,-6.785,-6.7218,-6.8157,-6.8266,-6.9387,-7.2579,-7.4364,-7.5748,-7.6884,-7.7313,-7.7613,-7.7613,-7.7963,-7.8186,-7.8272,-7.8441,-7.8609,-7.8574,-7.8574,-7.8574,-7.8574,-7.8574,-7.8574,-7.8574,-7.8574,-7.8574,-7.8574,-7.8574,-7.8574,-7.8574,-7.8574,-7.8574,-7.8657,-7.9444,-8.0068,-8.0695,-7.9916,-8.0068,-8.055,-7.9079,-7.8574,-7.8574,-6.2546,-6.1569,-6.0782,-6.0782,-6.0782,-6.1029,-6.1681,-6.2192,-6.2459,-6.2858,-6.299,-6.2725,-6.1951,-6.222,-6.2487,-6.2886,-6.3516,-6.4167,-6.4996,-6.4996,-6.5222,-6.5698,-6.5698,-6.6198,-6.7153,-6.9093,-7.0306,-7.0789,-7.0789,-7.0789,-7.0789,-7.0789,-7.0789,-7.0789,-7.0789,-7.0789,-7.0789,-7.0789,-7.0789,-7.0789,-7.0789,-7.0789,-7.0789,-7.0789,-7.0789,-7.0789,-7.0789,-7.0789,-7.0789,-7.0789,-7.0789,-7.0789,-7.0789,-7.0789,-7.0789,-7.0789,-7.0789,-7.0789,-7.0789,-7.0789,-7.0789,-7.0789,-7.0789,-7.0789,-7.0789,-7.0789,-7.0789,-7.0789,-7.0789,-7.0789,-7.0789,-7.0789,-7.0315,-6.8924,-6.8134,-6.8118,-6.9168,-6.9843,-7.1355,-7.4262,-7.5671,-7.6702,-7.7313,-7.7525,-7.7667,-7.7928,-7.8186,-7.8357,-7.8441,-7.8525,-7.8574,-7.8574,-7.8574,-7.8574,-7.8574,-7.8574,-7.8574,-7.8574,-7.8574,-7.8574,-7.8574,-7.8574,-7.8574,-7.8574,-7.8574,-7.8788,-7.9205,-8.0028,-8.0803,-8.1469,-8.1087,-8.0946,-8.0768,-7.9565,-7.8952,-7.8574,-6.2546,-6.1569,-6.0782,-6.0782,-6.0782,-6.1029,-6.1951,-6.2487,-6.315,-6.3777,-6.3908,-6.3516,-6.2753,-6.2886,-6.3018,-6.2886,-6.3647,-6.4454,-6.4996,-6.5222,-6.5572,-6.6044,-6.5572,-6.6198,-6.8148,-6.9703,-7.0532,-7.0789,-7.0789,-7.0789,-7.0789,-7.0789,-7.0789,-7.0789,-7.0789,-7.0789,-7.0789,-7.0789,-7.0789,-7.0789,-7.0789,-7.0789,-7.0789,-7.0789,-7.0789,-7.0789,-7.0789,-7.0789,-7.0789,-7.0789,-7.0789,-7.0789,-7.0789,-7.0789,-7.0789,-7.0789,-7.0789,-7.0789,-7.0789,-7.0789,-7.0789,-7.0789,-7.0789,-7.0789,-7.0789,-7.0789,-7.0789,-7.0789,-7.0789,-7.0789,-7.0789,-7.0789,-7.0315,-6.8924,-6.8889,-6.9468,-7.055,-7.1622,-7.3223,-7.5722,-7.6702,-7.7313,-7.7613,-7.7667,-7.7841,-7.8272,-7.8357,-7.8441,-7.8574,-7.8574,-7.8574,-7.8574,-7.8574,-7.8574,-7.8574,-7.8574,-7.8574,-7.8574,-7.8574,-7.8574,-7.8574,-7.8574,-7.8741,-7.887,-7.8657,-7.916,-7.9992,-8.0695,-8.1332,-8.1937,-8.1806,-8.1401,-8.0768,-7.9798,-7.9079,-7.8574,-6.2546,-6.1569,-6.0782,-6.0782,-6.0782,-6.1302,-6.262,-6.2886,-6.315,-6.3777,-6.3908,-6.3385,-6.2058,-6.299,-6.3516,-6.3018,-6.4196,-6.4996,-6.4996,-6.5794,-6.5919,-6.5094,-6.5919,-6.7245,-6.9178,-6.9325,-6.9933,-7.0789,-7.0789,-7.0789,-7.0789,-7.0789,-7.0789,-7.0789,-7.0789,-7.0789,-7.0789,-7.0789,-7.0789,-7.0789,-7.0789,-7.0789,-7.0789,-7.0789,-7.0789,-7.0789,-7.0789,-7.0789,-7.0789,-7.0789,-7.0789,-7.0789,-7.0789,-7.0789,-7.0789,-7.0789,-7.0789,-7.0789,-7.0789,-7.0789,-7.0789,-7.0789,-7.0789,-7.0789,-7.0789,-7.0789,-7.0789,-7.0789,-7.0789,-7.0789,-7.0789,-7.0789,-7.0315,-6.8924,-6.9574,-7.055,-7.1589,-7.2686,-7.4286,-7.6837,-7.7133,-7.7313,-7.7613,-7.7754,-7.8015,-7.8272,-7.8441,-7.8574,-7.8574,-7.8574,-7.8574,-7.8574,-7.8574,-7.8574,-7.8574,-7.8574,-7.8574,-7.8574,-7.8574,-7.8574,-7.8574,-7.8574,-7.8998,-7.9565,-7.887,-7.9444,-8.084,-8.0911,-8.1332,-8.1937,-8.1263,-8.0982,-8.0695,-7.924,-7.8657,-7.8574,-6.2031,-6.1325,-6.0782,-6.0782,-6.1166,-6.1816,-6.2753,-6.3254,-6.3777,-6.4454,-6.4583,-6.4066,-6.262,-6.3777,-6.4196,-6.3018,-6.4196,-6.4996,-6.4996,-6.5348,-6.5948,-6.6816,-6.8237,-6.9178,-6.9325,-6.9933,-7.0419,-7.0789,-7.0789,-7.0789,-7.0789,-7.0789,-7.0789,-7.0789,-7.0789,-7.0789,-7.0789,-7.0789,-7.0789,-7.0789,-7.0789,-7.0789,-7.0789,-7.0789,-7.0789,-7.0789,-7.0789,-7.0789,-7.0789,-7.0789,-7.0789,-7.0789,-7.0789,-7.0789,-7.0789,-7.0789,-7.0789,-7.0789,-7.0789,-7.0789,-7.0789,-7.0789,-7.0789,-7.0789,-7.0789,-7.0789,-7.0789,-7.0789,-7.0789,-7.0789,-7.0789,-7.1392,-7.1316,-6.9904,-7.1298,-7.2647,-7.2882,-7.3932,-7.5433,-7.703,-7.7313,-7.749,-7.7754,-7.8015,-7.8272,-7.8441,-7.8609,-7.8574,-7.8574,-7.8574,-7.8574,-7.8574,-7.8574,-7.8574,-7.8574,-7.8574,-7.8574,-7.8574,-7.8574,-7.8574,-7.8574,-7.8574,-7.8998,-7.9721,-7.9408,-8.0143,-8.1605,-8.1605,-8.2039,-8.2684,-8.1872,-8.1332,-8.0768,-7.9643,-7.8998,-7.8574,-6.1678,-6.1548,-6.1411,-6.1166,-6.1789,-6.2697,-6.3619,-6.4138,-6.4653,-6.5319,-6.5192,-6.4554,-6.3018,-6.3936,-6.4196,-6.3018,-6.4196,-6.4996,-6.4996,-6.5601,-6.6446,-6.7789,-6.9441,-7.0161,-6.9787,-7.0419,-7.0789,-7.0789,-7.0789,-7.0789,-7.0789,-7.0789,-7.0789,-7.0789,-7.0789,-7.0789,-7.0789,-7.0789,-7.0789,-7.0789,-7.0789,-7.0789,-7.0789,-7.0789,-7.0789,-7.0789,-7.0789,-7.0789,-7.0789,-7.0789,-7.0789,-7.0789,-7.0789,-7.0789,-7.0789,-7.0789,-7.0789,-7.0789,-7.0789,-7.0789,-7.0789,-7.0789,-7.0789,-7.0789,-7.0789,-7.0789,-7.0789,-7.0789,-7.0789,-7.0869,-7.1282,-7.1874,-7.2161,-7.1569,-7.3142,-7.4433,-7.4187,-7.5247,-7.6392,-7.7133,-7.7402,-7.7667,-7.7893,-7.8101,-7.8357,-7.8574,-7.8574,-7.8574,-7.8574,-7.8574,-7.8574,-7.8574,-7.8574,-7.8574,-7.8574,-7.8574,-7.8574,-7.8574,-7.8574,-7.8574,-7.8574,-7.8574,-7.916,-8.0068,-7.9762,-8.0732,-8.2397,-8.2104,-8.246,-8.3121,-8.2297,-8.1537,-8.084,-7.9992,-7.9205,-7.8574,-6.1597,-6.2283,-6.2536,-6.1923,-6.2962,-6.4239,-6.5232,-6.5358,-6.5639,-6.6263,-6.589,-6.4752,-6.3122,-6.3516,-6.3647,-6.3018,-6.4196,-6.4996,-6.4996,-6.6816,-6.7909,-6.7909,-6.8858,-6.9787,-7.0789,-7.0789,-7.0789,-7.0789,-7.0789,-7.0789,-7.0789,-7.0789,-7.0789,-7.0789,-7.0789,-7.0789,-7.0789,-7.0789,-7.0789,-7.0789,-7.0789,-7.0789,-7.0789,-7.0789,-7.0789,-7.0789,-7.0789,-7.0789,-7.0789,-7.0789,-7.0789,-7.0789,-7.0789,-7.0789,-7.0789,-7.0789,-7.0789,-7.0789,-7.0789,-7.0789,-7.0789,-7.0789,-7.0789,-7.0789,-7.0789,-7.0789,-7.0789,-7.0789,-7.0789,-7.1203,-7.2197,-7.2379,-7.2769,-7.3871,-7.4865,-7.5574,-7.5574,-7.6519,-7.7223,-7.7223,-7.7402,-7.7667,-7.7893,-7.8186,-7.8357,-7.8574,-7.8574,-7.8574,-7.8574,-7.8574,-7.8574,-7.8574,-7.8574,-7.8574,-7.8574,-7.8574,-7.8574,-7.8574,-7.8574,-7.8574,-7.8574,-7.8574,-7.9479,-8.084,-8.0068,-8.1017,-8.3121,-8.2334,-8.246,-8.3121,-8.2297,-8.1537,-8.084,-7.9992,-7.9205,-7.8574,-6.2498,-6.2648,-6.3037,-6.3822,-6.4851,-6.5764,-6.6014,-6.6634,-6.7001,-6.651,-6.6663,-6.6014,-6.3908,-6.4711,-6.4967,-6.3647,-6.4454,-6.4996,-6.4996,-6.6168,-6.7153,-6.7909,-6.9472,-7.0532,-7.0789,-7.0789,-7.0789,-7.0789,-7.0789,-7.0789,-7.0789,-7.0789,-7.0789,-7.0789,-7.0789,-7.0789,-7.0789,-7.0789,-7.0789,-7.0789,-7.0789,-7.0789,-7.0789,-7.0789,-7.0789,-7.0789,-7.0789,-7.0789,-7.0789,-7.0789,-7.0789,-7.0789,-7.0789,-7.0789,-7.0789,-7.0789,-7.0789,-7.0789,-7.0789,-7.0789,-7.0789,-7.0789,-7.0789,-7.0789,-7.0789,-7.0789,-7.0789,-7.0789,-7.1392,-7.1982,-7.2379,-7.3566,-7.4768,-7.5094,-7.5986,-7.6702,-7.6702,-7.7009,-7.7223,-7.7402,-7.7667,-7.7928,-7.8186,-7.8357,-7.8525,-7.8574,-7.8574,-7.8574,-7.8574,-7.8574,-7.8574,-7.8574,-7.8574,-7.887,-7.9365,-7.887,-7.887,-7.9365,-7.9365,-7.9365,-7.9365,-7.9365,-7.9952,-8.0911,-8.0695,-8.1537,-8.318,-8.2964,-8.2964,-8.3121,-8.2297,-8.1537,-8.084,-7.9992,-7.9205,-7.8574,-6.398,-6.441,-6.492,-6.5455,-6.6604,-6.7396,-6.7487,-6.8118,-6.8237,-6.7608,-6.7608,-6.7123,-6.5261,-6.5416,-6.5446,-6.4525,-6.481,-6.4996,-6.4996,-6.6322,-6.7275,-6.7909,-6.9703,-7.0789,-7.0789,-7.0789,-7.0789,-7.0789,-7.0789,-7.0789,-7.0789,-7.0789,-7.0789,-7.0789,-7.0789,-7.0789,-7.0789,-7.0789,-7.0789,-7.0789,-7.0789,-7.0789,-7.0789,-7.0789,-7.0789,-7.0789,-7.0789,-7.0789,-7.0789,-7.0789,-7.0789,-7.0789,-7.0789,-7.0789,-7.0789,-7.0789,-7.0789,-7.0789,-7.0789,-7.0789,-7.0789,-7.0789,-7.0789,-7.0789,-7.0789,-7.0789,-7.0869,-7.1392,-7.1982,-7.2697,-7.3496,-7.4669,-7.5764,-7.6173,-7.6793,-7.7223,-7.7223,-7.7223,-7.7313,-7.7613,-7.7754,-7.8015,-7.8272,-7.8525,-7.8574,-7.8574,-7.8574,-7.8574,-7.8574,-7.8574,-7.8574,-7.8574,-7.887,-7.9205,-7.9721,-7.9601,-7.9721,-8.0143,-7.9839,-7.9875,-8.0143,-8.0143,-8.0587,-8.1332,-8.1332,-8.2039,-8.318,-8.318,-8.318,-8.3121,-8.2684,-8.1806,-8.084,-8.0366,-7.9522,-7.8574,-6.5926,-6.6911,-6.7668,-6.7185,-6.8118,-6.9123,-6.9325,-6.9441,-6.9441,-6.9325,-6.8797,-6.8057,-6.6941,-6.6233,-6.561,-6.5484,-6.5192,-6.4868,-6.4868,-6.657,-6.7638,-6.7789,-6.9703,-7.0676,-7.0789,-7.0789,-7.0789,-7.0789,-7.0789,-7.0789,-7.0789,-7.0789,-7.0789,-7.0789,-7.0789,-7.0789,-7.0789,-7.0789,-7.0789,-7.0789,-7.0789,-7.0789,-7.0789,-7.0789,-7.0789,-7.0789,-7.0789,-7.0789,-7.0789,-7.0789,-7.0789,-7.0789,-7.0789,-7.0789,-7.0789,-7.0789,-7.0789,-7.0789,-7.0789,-7.0789,-7.0789,-7.0789,-7.0789,-7.0789,-7.0789,-7.0869,-7.1171,-7.2197,-7.2591,-7.329,-7.5287,-7.5669,-7.608,-7.7009,-7.7223,-7.7223,-7.7223,-7.7223,-7.7313,-7.7579,-7.7754,-7.798,-7.8272,-7.8525,-7.8574,-7.8574,-7.8574,-7.8574,-7.8574,-7.8574,-7.8574,-7.8574,-7.9205,-7.9643,-7.9798,-8.044,-8.084,-8.0982,-8.0218,-8.0292,-8.0982,-8.0982,-8.1401,-8.2003,-8.2003,-8.246,-8.318,-8.318,-8.318,-8.318,-8.318,-8.2334,-8.0982,-8.0911,-7.9952,-7.8657,-6.7306,-6.7547,-6.8057,-6.8945,-6.9672,-7.0047,-7.0047,-7.0306,-7.0161,-6.9441,-6.9672,-6.9325,-6.7879,-6.7998,-6.7638,-6.6263,-6.4909,-6.3908,-6.3413,-6.5007,-6.6233,-6.6971,-6.8679,-7.0047,-7.0789,-7.0789,-7.0789,-7.0789,-7.0789,-7.0789,-7.0789,-7.0789,-7.0789,-7.0789,-7.0789,-7.0789,-7.0789,-7.0789,-7.0789,-7.0789,-7.0789,-7.0789,-7.0789,-7.0789,-7.0789,-7.0789,-7.0789,-7.0789,-7.0789,-7.0789,-7.0789,-7.0789,-7.0789,-7.0789,-7.0789,-7.0789,-7.0789,-7.0789,-7.0789,-7.0789,-7.0789,-7.0789,-7.0789,-7.0789,-7.0789,-7.1502,-7.209,-7.2379,-7.3803,-7.5094,-7.5479,-7.63,-7.6918,-7.7133,-7.7223,-7.7223,-7.7223,-7.7223,-7.7402,-7.7807,-7.7893,-7.8066,-7.849,-7.8574,-7.8574,-7.8574,-7.8574,-7.8574,-7.8574,-7.8574,-7.8574,-7.8574,-7.8741,-7.9444,-8.0623,-8.0143,-8.0587,-8.1739,-8.1568,-8.1568,-8.1739,-8.1739,-8.1872,-8.2003,-8.2003,-8.246,-8.318,-8.318,-8.318,-8.318,-8.318,-8.2622,-8.1672,-8.1123,-8.0328,-7.9365,-6.9178,-6.9294,-6.941,-7.0161,-7.0419,-7.0532,-7.0532,-7.0676,-7.0645,-7.0047,-7.0275,-7.0192,-6.9356,-6.9209,-6.8623,-6.7275,-6.6293,-6.5668,-6.5261,-6.6481,-6.7457,-6.7938,-6.9294,-7.0275,-7.0789,-7.0789,-7.0789,-7.0789,-7.0789,-7.0789,-7.0789,-7.0789,-7.0789,-7.0789,-7.0789,-7.0789,-7.0789,-7.0789,-7.0789,-7.0789,-7.0789,-7.0789,-7.0789,-7.0789,-7.0789,-7.0789,-7.0789,-7.0789,-7.0789,-7.0789,-7.0789,-7.0789,-7.0789,-7.0789,-7.0789,-7.0789,-7.0789,-7.0789,-7.0789,-7.0789,-7.0869,-7.1502,-7.158,-7.1392,-7.0869,-7.158,-7.2591,-7.3083,-7.4472,-7.5798,-7.63,-7.6828,-7.7223,-7.7223,-7.7223,-7.7223,-7.7223,-7.7223,-7.7402,-7.7807,-7.7893,-7.8066,-7.8574,-7.8574,-7.8574,-7.8574,-7.8574,-7.8574,-7.8574,-7.8574,-7.8574,-7.8574,-7.8952,-7.9679,-8.0911,-8.0803,-8.1364,-8.2585,-8.2169,-8.2233,-8.2585,-8.2585,-8.2585,-8.2585,-8.2585,-8.2806,-8.318,-8.318,-8.318,-8.318,-8.318,-8.2684,-8.1872,-8.1193,-8.0179,-7.916,-7.0789,-7.0789,-7.0789,-7.0789,-7.0789,-7.0789,-7.0789,-7.0789,-7.0789,-7.0789,-7.0789,-7.0789,-7.0789,-6.9933,-6.8945,-6.7998,-6.7759,-6.7638,-6.7517,-6.8592,-6.9178,-6.9178,-7.0161,-7.0789,-7.0789,-7.0789,-7.0789,-7.0789,-7.0789,-7.0789,-7.0789,-7.0789,-7.0789,-7.0789,-7.0789,-7.0789,-7.0789,-7.0789,-7.0789,-7.0789,-7.0789,-7.0789,-7.0789,-7.0789,-7.0789,-7.0789,-7.0789,-7.0789,-7.0789,-7.0789,-7.0789,-7.0789,-7.0789,-7.0789,-7.0789,-7.0789,-7.0789,-7.0789,-7.0789,-7.0869,-7.1282,-7.2197,-7.2591,-7.2485,-7.158,-7.2197,-7.3187,-7.4073,-7.5094,-7.6207,-7.7009,-7.7223,-7.7223,-7.7223,-7.7223,-7.7223,-7.7223,-7.7223,-7.7402,-7.7807,-7.798,-7.8151,-7.8574,-7.8574,-7.8574,-7.8574,-7.8574,-7.8574,-7.8574,-7.8574,-7.8574,-7.8574,-7.9205,-7.9875,-8.0695,-8.1469,-8.2233,-8.2964,-8.246,-8.2523,-8.318,-8.318,-8.318,-8.318,-8.318,-8.318,-8.318,-8.318,-8.3121,-8.3024,-8.3121,-8.2684,-8.1872,-8.1193,-7.9875,-7.8574,-7.0789,-7.0789,-7.0789,-7.0789,-7.0789,-7.0789,-7.0789,-7.0789,-7.0789,-7.0789,-7.0789,-7.0789,-7.0789,-6.9933,-6.9062,-6.8295,-6.7457,-6.6697,-6.605,-6.7547,-6.8413,-6.8413,-6.9901,-7.0789,-7.0789,-7.0789,-7.0789,-7.0789,-7.0789,-7.0789,-7.0789,-7.0789,-7.0789,-7.0789,-7.0789,-7.0789,-7.0789,-7.0789,-7.0789,-7.0789,-7.0789,-7.0789,-7.0789,-7.0789,-7.0789,-7.0789,-7.0789,-7.0789,-7.0789,-7.0789,-7.0789,-7.0789,-7.0789,-7.0789,-7.0789,-7.0789,-7.0789,-7.0789,-7.0789,-7.1502,-7.2197,-7.2379,-7.3083,-7.377,-7.3599,-7.4373,-7.519,-7.5383,-7.6207,-7.7009,-7.7223,-7.7223,-7.7223,-7.7223,-7.7223,-7.7223,-7.7223,-7.7402,-7.7667,-7.7893,-7.8237,-7.849,-7.8574,-7.8574,-7.8574,-7.8574,-7.8574,-7.8574,-7.8574,-7.8574,-7.8574,-7.8574,-7.8741,-7.9079,-7.9875,-8.0659,-8.1401,-8.2169,-8.2745,-8.3121,-8.318,-8.318,-8.318,-8.318,-8.318,-8.318,-8.318,-8.318,-8.2806,-8.2233,-8.2904,-8.2684,-8.1872,-8.1193,-7.9875,-7.8574,-7.0789,-7.0789,-7.0789,-7.0789,-7.0789,-7.0789,-7.0789,-7.0789,-7.0789,-7.0789,-7.0789,-7.0789,-7.0789,-7.0419,-7.0047,-6.9787,-6.9294,-6.8914,-6.8649,-6.9294,-6.9672,-6.9672,-7.0419,-7.0789,-7.0789,-7.0789,-7.0789,-7.0789,-7.0789,-7.0789,-7.0789,-7.0789,-7.0789,-7.0789,-7.0789,-7.0789,-7.0789,-7.0789,-7.0789,-7.0789,-7.0789,-7.0789,-7.0789,-7.0789,-7.0789,-7.0789,-7.0789,-7.0789,-7.0789,-7.0789,-7.0789,-7.0789,-7.0789,-7.0789,-7.0789,-7.0789,-7.0789,-7.0869,-7.147,-7.209,-7.2697,-7.3871,-7.4571,-7.5094,-7.5703,-7.6114,-7.63,-7.5669,-7.6392,-7.7223,-7.7223,-7.7223,-7.7223,-7.7223,-7.7223,-7.7223,-7.7223,-7.7313,-7.749,-7.7807,-7.8322,-7.8574,-7.8574,-7.8574,-7.8574,-7.8574,-7.8574,-7.8574,-7.8574,-7.8574,-7.8574,-7.8574,-7.8574,-7.8917,-7.9721,-8.0068,-8.0803,-8.2003,-8.2397,-8.2745,-8.318,-8.318,-8.318,-8.318,-8.318,-8.318,-8.318,-8.318,-8.2964,-8.2684,-8.3061,-8.246,-8.1332,-8.1053,-7.9875,-7.8574]},{"header":{"parameterUnit":"m.s-1","parameterCategory":1,"la1":30.6,"la2":28.766,"lo1":-90.7593,"lo2":-88.6598,"dy":0.0162,"dx":0.0183,"nx":116,"ny":114,"refTime":"2023-03-12T06:00:00:Z","depth":0,"parameterNumber":3,"parameterNumberName":"V-component_of_WINDS"},"data":[0.0,0.0,0.0,0.0,0.0,0.0,0.0,0.0,0.0,0.0,0.0,0.0,0.0,0.0,0.0,0.0,0.0,0.0,0.0,0.0,0.0,0.0,0.0,0.0,0.0,0.0,0.0,0.0,0.0,0.0,0.0,0.0,0.0,0.0,0.0,0.0,0.0,0.0,0.0,0.0,0.0,0.0,0.0,0.0,0.0,0.0,0.0,0.0,0.0,0.0,0.0,0.0,0.0,0.0,0.0,0.0,0.0,0.0,0.0,0.0,0.0,0.0,0.0,0.0,0.0,0.0,0.0,0.0,0.0,0.0,0.0,0.0,0.0,0.0,0.0,0.0,0.0,0.0,0.0,0.0,0.0,0.0,0.0,0.0,0.0,0.0,0.0,0.0,0.0,0.0,0.0,0.0,0.0,0.0,0.0,0.0,0.0,0.0,0.0,0.0,0.0,0.0,0.0,0.0,0.0,0.0,0.0,0.0,0.0,0.0,0.0,0.0,0.0,0.0,0.0,0.0,0.0,0.0,0.0,0.0,0.0,0.0,0.0,0.0,0.0,0.0,0.0,0.0,0.0,0.0,0.0,0.0,0.0,0.0,0.0,0.0,0.0,0.0,0.0,0.0,0.0,0.0,0.0,0.0,0.0,0.0,0.0,0.0,0.0,0.0,0.0,0.0,0.0,0.0,0.0,0.0,0.0,0.0,0.0,0.0,0.0,0.0,0.0,0.0,0.0,0.0,0.0,0.0,0.0,0.0,0.0,0.0,0.0,0.0,0.0,0.0,0.0,0.0,0.0,0.0,0.0,0.0,0.0,0.0,0.0,0.0,0.0,0.0,0.0,0.0,0.0,0.0,0.0,0.0,0.0,0.0,0.0,0.0,0.0,0.0,0.0,0.0,0.0,0.0,0.0,0.0,0.0,0.0,0.0,0.0,0.0,0.0,0.0,0.0,0.0,0.0,0.0,0.0,0.0,0.0,0.0,0.0,0.0,0.0,0.0,0.0,0.0,0.0,0.0,0.0,0.0,0.0,0.0,0.0,0.0,0.0,0.0,0.0,0.0,0.0,0.0,0.0,0.0,0.0,0.0,0.0,0.0,0.0,0.0,0.0,0.0,0.0,0.0,0.0,0.0,0.0,0.0,0.0,0.0,0.0,0.0,0.0,0.0,0.0,0.0,0.0,0.0,0.0,0.0,0.0,0.0,0.0,0.0,0.0,0.0,0.0,0.0,0.0,0.0,0.0,0.0,0.0,0.0,0.0,0.0,0.0,0.0,0.0,0.0,0.0,0.0,0.0,0.0,0.0,0.0,0.0,0.0,0.0,0.0,0.0,0.0,0.0,0.0,0.0,0.0,0.0,0.0,0.0,0.0,0.0,0.0,0.0,0.0,0.0,0.0,0.0,0.0,0.0,0.0,0.0,0.0,0.0,0.0,0.0,0.0,0.0,0.0,0.0,0.0,0.0,0.0,0.0,0.0,0.0,0.0,0.0,0.0,0.0,0.0,0.0,0.0,0.0,0.0,0.0,0.0,0.0,0.0,0.0,0.0,0.0,0.0,0.0,0.0,0.0,0.0,0.0,0.0,0.0,0.0,0.0,0.0,0.0,0.0,0.0,0.0,0.0,0.0,0.0,0.0,0.0,0.0,0.0,0.0,0.0,0.0,0.0,0.0,0.0,0.0,0.0,0.0,0.0,0.0,0.0,0.0,0.0,0.0,0.0,0.0,0.0,0.0,0.0,0.0,0.0,0.0,0.0,0.0,0.0,0.0,0.0,0.0,0.0,0.0,0.0,0.0,0.0,0.0,0.0,0.0,0.0,0.0,0.0,0.0,0.0,0.0,0.0,0.0,0.0,0.0,0.0,0.0,0.0,0.0,0.0,0.0,0.0,0.0,0.0,0.0,0.0,0.0,0.0,0.0,0.0,0.0,0.0,0.0,0.0,0.0,0.0,0.0,0.0,0.0,0.0,0.0,0.0,0.0,0.0,0.0,0.0,0.0,0.0,0.0,0.0,0.0,0.0,0.0,0.0,0.0,0.0,0.0,0.0,0.0,0.0,0.0,0.0,0.0,0.0,0.0,0.0,0.0,0.0,0.0,0.0,0.0,0.0,0.0,0.0,0.0,0.0,0.0,0.0,0.0,0.0,0.0,0.0,0.0,0.0,0.0,0.0,0.0,0.0,0.0,0.0,0.0,0.0,0.0,0.0,0.0,0.0,0.0,0.0,0.0,0.0,0.0,0.0,0.0,0.0,0.0,0.0,0.0,0.0,0.0,0.0,0.0,0.0,0.0,0.0,0.0,0.0,0.0,0.0,0.0,0.0,0.0,0.0,0.0,0.0,0.0,0.0,0.0,0.0,0.0,0.0,0.0,0.0,0.0,0.0,0.0,0.0,0.0,0.0,0.0,0.0,0.0,0.0,0.0,0.0,0.0,0.0,0.0,0.0,0.0,0.0,0.0,0.0,0.0,0.0,0.0,0.0,0.0,0.0,0.0,0.0,0.0,0.0,0.0,0.0,0.0,0.0,0.0,0.0,0.0,0.0,0.0,0.0,0.0,0.0,0.0,0.0,0.0,0.0,0.0,0.0,0.0,0.0,0.0,0.0,0.0,0.0,0.0,0.0,0.0,0.0,0.0,0.0,0.0,0.0,0.0,0.0,0.0,0.0,0.0,0.0,0.0,0.0,0.0,0.0,0.0,0.0,0.0,0.0,0.0,0.0,0.0,0.0,0.0,0.0,0.0,0.0,0.0,0.0,0.0,0.0,0.0,0.0,0.0,0.0,0.0,0.0,0.0,0.0,0.0,0.0,0.0,0.0,0.0,0.0,0.0,0.0,0.0,0.0,0.0,0.0,0.0,0.0,0.0,0.0,0.0,0.0,0.0,0.0,0.0,0.0,0.0,0.0,0.0,0.0,0.0,0.0,0.0,0.0,0.0,0.0,0.0,0.0,0.0,0.0,0.0,0.0,0.0,0.0,0.0,0.0,0.0,0.0,0.0,0.0,0.0,0.0,0.0,0.0,0.0,0.0,0.0,0.0,0.0,0.0,0.0,0.0,0.0,0.0,0.0,0.0,0.0,0.0,0.0,0.0,0.0,0.0,0.0,0.0,0.0,0.0,0.0,0.0,0.0,0.0,0.0,0.0,0.0,0.0,0.0,0.0,0.0,0.0,0.0,0.0,0.0,0.0,0.0,0.0,0.0,0.0,0.0,0.0,0.0,0.0,0.0,0.0,0.0,0.0,0.0,0.0,0.0,0.0,0.0,0.0,0.0,0.0,0.0,0.0,0.0,0.0,0.0,0.0,0.0,0.0,0.0,0.0,0.0,0.0,0.0,0.0,0.0,0.0,0.0,0.0,0.0,0.0,0.0,0.0,0.0,0.0,0.0,0.0,0.0,0.0,0.0,0.0,0.0,0.0,0.0,0.0,0.0,0.0,0.0,0.0,0.0,0.0,0.0,0.0,0.0,0.0,0.0,0.0,0.0,0.0,0.0,0.0,0.0,0.0,0.0,0.0,0.0,0.0,0.0,0.0,0.0,0.0,0.0,0.0,0.0,0.0,0.0,0.0,0.0,0.0,0.0,0.0,0.0,0.0,0.0,0.0,0.0,0.0,0.0,0.0,0.0,0.0,0.0,0.0,0.0,0.0,0.0,0.0,0.0,0.0,0.0,0.0,0.0,0.0,0.0,0.0,0.0,0.0,0.0,0.0,0.0,0.0,0.0,0.0,0.0,0.0,0.0,0.0,0.0,0.0,0.0,0.0,0.0,0.0,0.0,0.0,0.0,0.0,0.0,0.0,0.0,0.0,0.0,0.0,0.0,0.0,0.0,0.0,0.0,0.0,0.0,0.0,0.0,0.0,0.0,0.0,0.0,0.0,0.0,0.0,0.0,0.0,0.0,0.0,0.0,0.0,0.0,0.0,0.0,0.0,0.0,0.0,0.0,0.0,0.0,0.0,0.0,0.0,0.0,0.0,0.0,0.0,0.0,0.0,0.0,0.0,0.0,0.0,0.0,0.0,0.0,0.0,0.0,0.0,0.0,0.0,0.0,0.0,0.0,0.0,0.0,0.0,0.0,0.0,0.0,0.0,0.0,0.0,0.0,0.0,0.0,0.0,0.0,0.0,0.0,0.0,0.0,0.0,0.0,0.0,0.0,0.0,0.0,0.0,0.0,0.0,0.0,0.0,0.0,0.0,0.0,0.0,0.0,0.0,0.0,0.0,0.0,0.0,0.0,0.0,0.0,0.0,0.0,0.0,0.0,0.0,0.0,0.0,0.0,0.0,0.0,0.0,0.0,0.0,0.0,0.0,0.0,0.0,0.0,0.0,0.0,0.0,0.0,0.0,0.0,0.0,0.0,0.0,0.0,0.0,0.0,0.0,0.0,0.0,0.0,0.0,0.0,0.0,0.0,0.0,0.0,0.0,0.0,0.0,0.0,0.0,0.0,0.0,0.0,0.0,0.0,0.0,0.0,0.0,0.0,0.0,0.0,0.0,0.0,0.0,0.0,0.0,0.0,0.0,0.0,0.0,0.0,0.0,0.0,0.0,0.0,0.0,0.0,0.0,0.0,0.0,0.0,0.0,0.0,0.0,0.0,0.0,0.0,0.0,0.0,0.0,0.0,0.0,0.0,0.0,0.0,0.0,0.0,0.0,0.0,0.0,0.0,0.0,0.0,0.0,0.0,0.0,0.0,0.0,0.0,0.0,0.0,0.0,0.0,0.0,0.0,0.0,0.0,0.0,0.0,0.0,0.0,0.0,0.0,0.0,0.0,0.0,0.0,0.0,0.0,0.0,0.0,0.0,0.0,0.0,0.0,0.0,0.0,0.0,0.0,0.0,0.0,0.0,0.0,0.0,0.0,0.0,0.0,0.0,0.0,0.0,0.0,0.0,0.0,0.0,0.0,0.0,0.0,0.0,0.0,0.0,0.0,0.0,0.0,0.0,0.0,0.0,0.0,0.0,0.0,0.0,0.0,0.0,0.0,0.0,0.0,0.0,0.0,0.0,0.0,0.0,0.0,0.0,0.0,0.0,0.0,0.0,0.0,0.0,0.0,0.0,0.0,0.0,0.0,0.0,0.0,0.0,0.0,0.0,0.0,0.0,0.0,0.0,0.0,0.0,0.0,0.0,0.0,0.0,0.0,0.0,0.0,0.0,0.0,0.0,0.0,0.0,0.0,0.0,0.0,0.0,0.0,0.0,0.0,0.0,0.0,0.0,0.0,0.0,0.0,0.0,0.0,0.0,0.0,0.0,0.0,0.0,0.0,0.0,0.0,0.0,0.0,0.0,0.0,0.0,0.0,0.0,0.0,0.0,0.0,0.0,0.0,0.0,0.0,0.0,0.0,0.0,0.0,0.0,0.0,0.0,0.0,0.0,0.0,0.0,0.0,0.0,0.0,0.0,0.0,0.0,0.0,0.0,0.0,0.0,0.0,0.0,0.0,0.0,0.0,0.0,0.0,0.0,0.0,0.0,0.0,0.0,0.0,0.0,0.0,0.0,0.0,0.0,0.0,0.0,0.0,0.0,0.0,0.0,0.0,0.0,0.0,0.0,0.0,0.0,0.0,0.0,0.0,0.0,0.0,0.0,0.0,0.0,0.0,0.0,0.0,0.0,0.0,0.0,0.0,0.0,0.0,0.0,0.0,0.0,0.0,0.0,0.0,0.0,0.0,0.0,0.0,0.0,0.0,0.0,0.0,0.0,0.0,0.0,0.0,0.0,0.0,0.0,0.0,0.0,0.0,0.0,0.0,0.0,0.0,0.0,0.0,0.0,0.0,0.0,0.0,0.0,0.0,0.0,0.0,0.0,0.0,0.0,0.0,0.0,0.0,0.0,0.0,0.0,0.0,0.0,0.0,0.0,0.0,0.0,0.0,0.0,0.0,0.0,0.0,0.0,0.0,0.0,0.0,0.0,0.0,0.0,0.0,0.0,0.0,0.0,0.0,0.0,0.0,0.0,0.0,0.0,0.0,0.0,0.0,0.0,0.0,0.0,0.0,0.0,0.0,0.0,0.0,0.0,0.0,0.0,0.0,0.0,0.0,0.0,0.0,0.0,0.0,0.0,0.0,0.0,0.0,0.0,0.0,0.0,0.0,0.0,-3.532,-3.4623,0.0,0.0,0.0,0.0,0.0,0.0,0.0,0.0,0.0,0.0,0.0,0.0,0.0,0.0,0.0,0.0,0.0,0.0,0.0,0.0,0.0,0.0,0.0,0.0,0.0,0.0,0.0,0.0,0.0,0.0,0.0,0.0,0.0,0.0,0.0,0.0,0.0,0.0,-6.451,-6.4644,-6.4567,-6.4832,-6.4057,-6.25,0.0,0.0,0.0,0.0,0.0,0.0,0.0,0.0,0.0,0.0,0.0,0.0,0.0,0.0,0.0,0.0,0.0,0.0,0.0,0.0,0.0,0.0,0.0,0.0,0.0,0.0,0.0,0.0,0.0,0.0,0.0,0.0,0.0,0.0,0.0,0.0,0.0,0.0,0.0,0.0,0.0,0.0,0.0,0.0,0.0,0.0,0.0,0.0,0.0,0.0,0.0,0.0,0.0,0.0,0.0,0.0,0.0,0.0,0.0,0.0,0.0,0.0,0.0,0.0,0.0,0.0,0.0,0.0,0.0,0.0,-3.6622,-3.5944,0.0,0.0,0.0,0.0,0.0,0.0,0.0,0.0,0.0,0.0,0.0,0.0,0.0,0.0,0.0,0.0,0.0,0.0,0.0,0.0,0.0,0.0,0.0,0.0,-6.5413,-6.5413,-6.4802,-6.4688,0.0,0.0,0.0,0.0,0.0,0.0,0.0,0.0,-6.5023,-6.4322,-6.5132,-6.5877,-6.6512,-6.6623,-6.5527,-6.3325,-6.3182,0.0,0.0,0.0,0.0,0.0,0.0,0.0,0.0,0.0,0.0,0.0,0.0,0.0,0.0,0.0,0.0,0.0,0.0,0.0,0.0,0.0,0.0,0.0,0.0,0.0,0.0,0.0,0.0,0.0,0.0,0.0,0.0,0.0,0.0,0.0,0.0,0.0,0.0,0.0,0.0,0.0,0.0,0.0,0.0,0.0,0.0,0.0,0.0,0.0,0.0,0.0,0.0,0.0,0.0,0.0,0.0,0.0,0.0,0.0,0.0,0.0,0.0,0.0,-3.8154,-3.8218,-3.8255,-3.8805,-3.8878,-3.853,-3.8199,-3.7668,-3.7026,-3.6971,0.0,0.0,0.0,0.0,0.0,0.0,0.0,0.0,0.0,0.0,0.0,0.0,0.0,0.0,0.0,0.0,0.0,0.0,0.0,0.0,0.0,-6.5413,-6.5413,-6.5413,-6.5299,-6.5299,0.0,0.0,0.0,0.0,0.0,0.0,0.0,-6.5413,-6.5327,-6.5148,-6.5949,-6.6412,-6.6512,-6.721,-6.7357,-6.701,-6.6405,-6.5334,-6.3886,0.0,0.0,0.0,0.0,0.0,0.0,0.0,0.0,0.0,0.0,0.0,0.0,0.0,0.0,0.0,0.0,0.0,0.0,0.0,0.0,0.0,0.0,0.0,0.0,0.0,0.0,0.0,0.0,0.0,0.0,0.0,0.0,0.0,0.0,0.0,0.0,0.0,0.0,0.0,0.0,0.0,-3.6941,-3.6096,0.0,0.0,0.0,0.0,0.0,0.0,0.0,0.0,0.0,0.0,0.0,0.0,0.0,-3.8378,-3.8322,-3.8006,-3.7943,-3.7943,-3.8713,-3.908,-3.9116,-4.0235,-4.0712,-4.0657,-4.0602,0.0,-3.7833,-3.7484,0.0,0.0,0.0,0.0,0.0,0.0,0.0,0.0,0.0,0.0,0.0,0.0,0.0,0.0,0.0,0.0,0.0,0.0,0.0,0.0,0.0,-6.6019,-6.6288,-6.6288,-6.6288,-6.627,-6.6139,-6.5681,0.0,0.0,0.0,-6.5413,-6.5413,-6.5645,-6.6144,-6.7,-6.7096,-6.7871,-6.9229,-6.9559,-6.9963,-7.0403,-7.0104,-6.8186,-6.5019,-6.3555,0.0,0.0,0.0,0.0,0.0,0.0,0.0,0.0,0.0,0.0,0.0,0.0,0.0,0.0,0.0,0.0,0.0,0.0,0.0,0.0,0.0,0.0,0.0,0.0,0.0,0.0,0.0,0.0,0.0,0.0,0.0,0.0,0.0,0.0,0.0,0.0,0.0,0.0,0.0,-3.7422,-3.6761,-3.6169,-3.6444,-3.663,0.0,0.0,0.0,0.0,0.0,0.0,0.0,0.0,0.0,-3.7652,-3.8695,-3.9189,-3.9012,-3.9535,-3.9722,-3.9722,-4.0088,-4.0253,-4.0272,-4.0822,-4.106,-4.106,-4.106,-4.0547,-3.9667,-3.9043,-3.8511,-3.8071,0.0,0.0,0.0,0.0,-3.7851,-3.7851,0.0,0.0,0.0,0.0,0.0,0.0,0.0,0.0,0.0,0.0,0.0,0.0,-6.6026,-6.6858,-6.7408,-6.7422,-6.7408,-6.7244,-6.6787,-6.5953,0.0,0.0,0.0,-6.4764,-6.4764,-6.5679,-6.6842,-6.8308,-6.8541,-6.9559,-7.1321,-7.1541,-7.1945,-7.2496,-7.2496,-7.0374,-6.6666,-6.5216,-6.3771,-6.2264,0.0,0.0,0.0,0.0,0.0,0.0,0.0,0.0,0.0,0.0,0.0,0.0,0.0,0.0,0.0,0.0,0.0,0.0,0.0,0.0,0.0,0.0,0.0,0.0,0.0,0.0,0.0,0.0,0.0,0.0,0.0,0.0,0.0,0.0,0.0,0.0,0.0,-3.7,-3.7115,-3.6368,-3.6751,-3.6989,0.0,0.0,0.0,0.0,0.0,0.0,-3.7577,-3.846,-3.8812,-3.852,-3.9616,-4.0029,-3.9703,-4.0602,-4.106,-4.106,-4.106,-4.106,-4.106,-4.106,-4.106,-4.106,-4.106,-4.106,-4.1005,-4.018,-3.9483,-3.8933,-3.8731,-3.864,-3.8658,-3.875,-3.8786,-3.8786,0.0,0.0,0.0,0.0,0.0,0.0,0.0,0.0,0.0,0.0,0.0,-6.6898,-6.6923,-6.7872,-6.8506,-6.8506,-6.8506,-6.8072,-6.7077,-6.6205,-6.5333,-6.4297,-6.3465,-6.3045,-6.3045,-6.5313,-6.706,-6.8308,-7.0146,-7.1211,-7.1321,-7.2092,-7.2459,-7.2496,-7.2496,-7.1596,-6.9973,-6.8514,-6.7007,-6.5338,-6.2333,0.0,0.0,0.0,0.0,0.0,0.0,0.0,0.0,0.0,0.0,0.0,0.0,0.0,0.0,0.0,0.0,0.0,0.0,0.0,0.0,0.0,0.0,0.0,0.0,0.0,0.0,0.0,0.0,0.0,0.0,0.0,0.0,0.0,0.0,0.0,0.0,0.0,0.0,-3.6929,-3.744,0.0,0.0,0.0,0.0,-3.8311,-3.8783,-3.8874,-3.8545,-3.9701,-4.0191,-3.9884,-4.0529,-4.0969,-4.0969,-4.1024,-4.106,-4.106,-4.106,-4.106,-4.106,-4.106,-4.106,-4.106,-4.106,-4.106,-4.1005,-4.018,-3.9813,-3.9703,-3.8933,-3.864,-3.8695,-3.9061,-3.9208,-3.9208,0.0,0.0,0.0,0.0,0.0,0.0,0.0,0.0,-6.5435,-6.5559,-6.6423,-6.7123,-6.7406,-6.876,-6.961,-6.9649,-7.0153,-6.9983,-6.8961,-6.7446,-6.6179,-6.5294,-6.3733,-6.3404,-6.4407,-6.6845,-6.8567,-6.9463,-7.0735,-7.1578,-7.2092,-7.2386,-7.2496,-7.2496,-7.2496,-7.2197,-7.1596,-6.9137,-6.754,-6.6391,-6.3826,-6.2496,0.0,0.0,0.0,0.0,0.0,0.0,0.0,0.0,0.0,0.0,0.0,0.0,0.0,0.0,0.0,0.0,0.0,0.0,0.0,0.0,0.0,0.0,0.0,0.0,0.0,0.0,0.0,0.0,0.0,0.0,0.0,0.0,0.0,0.0,0.0,0.0,0.0,-3.8326,-3.8575,0.0,-3.8292,-3.8216,-3.8363,-3.8925,-3.9459,-3.9511,-3.9511,-4.0271,-4.0787,-4.062,-4.0914,-4.106,-4.106,-4.106,-4.106,-4.106,-4.106,-4.106,-4.106,-4.106,-4.106,-4.106,-4.106,-4.106,-4.1042,-4.0749,-4.062,-4.0602,-4.0308,-4.0198,-4.0217,-4.0363,-4.04,-4.04,0.0,0.0,0.0,0.0,0.0,0.0,0.0,0.0,-6.5571,-6.6064,-6.6959,-6.7785,-6.8474,-6.9872,-7.0756,-7.0742,-7.1248,-7.0898,-6.9167,-6.7586,-6.5972,-6.4449,-6.3427,-6.3987,-6.6327,-6.8244,-6.9851,-7.0998,-7.1635,-7.2226,-7.2742,-7.261,-7.2496,-7.2496,-7.2496,-7.2496,-7.2365,-7.0464,-6.9194,-6.8329,-6.6031,-6.4551,-6.3669,0.0,0.0,0.0,0.0,0.0,0.0,0.0,0.0,0.0,0.0,0.0,0.0,0.0,0.0,0.0,0.0,0.0,0.0,0.0,0.0,0.0,0.0,0.0,0.0,0.0,0.0,0.0,0.0,0.0,0.0,0.0,0.0,0.0,0.0,0.0,-3.9032,-3.9604,-3.9462,-3.9542,-3.9575,-3.9336,-3.9337,-3.9714,-4.0105,-4.0253,-4.0253,-4.0767,-4.106,-4.106,-4.106,-4.106,-4.106,-4.106,-4.106,-4.106,-4.106,-4.106,-4.106,-4.106,-4.106,-4.106,-4.106,-4.106,-4.106,-4.106,-4.106,-4.106,-4.106,-4.106,-4.106,-4.106,-4.106,-4.106,0.0,0.0,0.0,0.0,0.0,0.0,0.0,-6.5413,-6.58,-6.6859,-6.7911,-6.8995,-7.0083,-7.1161,-7.1817,-7.1817,-7.1817,-7.0551,-6.7658,-6.6593,-6.4762,-6.1774,-6.2586,-6.4769,-6.8413,-6.9361,-7.0791,-7.277,-7.3156,-7.3298,-7.3298,-7.2742,-7.2496,-7.2496,-7.2532,-7.2532,-7.2511,-7.2642,-7.2227,-7.1408,-6.9176,-6.7322,-6.5911,0.0,0.0,0.0,0.0,0.0,0.0,0.0,0.0,0.0,0.0,0.0,0.0,0.0,0.0,0.0,0.0,0.0,0.0,0.0,0.0,0.0,0.0,0.0,0.0,0.0,0.0,0.0,0.0,0.0,0.0,0.0,0.0,0.0,-3.9583,-3.9932,-4.0569,-4.0491,-4.0249,-4.0122,-4.0405,-4.0135,-4.0198,-4.1005,-4.106,-4.106,-4.106,-4.106,-4.106,-4.106,-4.106,-4.106,-4.106,-4.106,-4.106,-4.106,-4.106,-4.106,-4.106,-4.106,-4.106,-4.106,-4.106,-4.106,-4.106,-4.106,-4.106,-4.106,-4.106,-4.106,-4.106,-4.106,-4.106,-4.106,0.0,0.0,0.0,0.0,0.0,0.0,0.0,-6.5413,-6.5848,-6.7062,-6.8021,-6.909,-7.0343,-7.126,-7.1817,-7.1817,-7.1817,-7.0862,-6.8691,-6.7017,-6.5032,-6.2653,-6.5719,-6.7812,-6.8489,-7.1065,-7.2566,-7.277,-7.3457,-7.3628,-7.3298,-7.3141,-7.2853,-7.2532,-7.312,-7.3377,-7.3413,-7.4006,-7.417,-7.3848,-7.1549,-6.9729,-6.8325,0.0,0.0,0.0,0.0,0.0,0.0,0.0,0.0,0.0,0.0,0.0,0.0,0.0,0.0,0.0,0.0,0.0,0.0,0.0,0.0,0.0,0.0,0.0,0.0,0.0,0.0,0.0,0.0,0.0,0.0,0.0,0.0,-4.3997,-4.146,-4.0936,-4.1024,-4.1361,-4.1569,-4.156,-4.1064,-4.1138,-4.1138,-4.1042,-4.106,-4.106,-4.106,-4.106,-4.106,-4.106,-4.106,-4.106,-4.106,-4.106,-4.106,-4.106,-4.106,-4.106,-4.106,-4.106,-4.106,-4.106,-4.106,-4.106,-4.106,-4.106,-4.106,-4.106,-4.106,-4.106,-4.106,-4.106,-4.106,-4.106,0.0,0.0,0.0,0.0,0.0,0.0,0.0,-6.5413,-6.5991,-6.7652,-6.8295,-6.9225,-7.0937,-7.1505,-7.1817,-7.1817,-7.1154,-6.9915,-6.792,-6.5891,-6.5,-6.552,-6.7897,-6.9709,-7.0872,-7.2812,-7.3839,-7.3942,-7.4148,-7.4154,-7.3869,-7.3466,-7.3326,-7.337,-7.3566,-7.3891,-7.4258,-7.5065,-7.5249,-7.4905,-7.3939,-7.2434,-7.0657,-7.0025,-6.9288,-6.8593,-6.8241,-6.7845,-6.7386,-6.6255,0.0,0.0,0.0,0.0,0.0,0.0,0.0,0.0,0.0,0.0,0.0,0.0,0.0,0.0,0.0,0.0,0.0,0.0,0.0,0.0,0.0,0.0,0.0,0.0,-4.669,-4.6225,-4.4035,-4.2441,-4.1933,-4.2442,-4.2231,-4.2068,-4.1733,-4.1546,-4.1378,-4.106,-4.106,-4.106,-4.106,-4.106,-4.106,-4.106,-4.106,-4.106,-4.106,-4.106,-4.106,-4.106,-4.106,-4.106,-4.106,-4.106,-4.106,-4.106,-4.106,-4.106,-4.106,-4.106,-4.106,-4.106,0.0,0.0,0.0,0.0,-4.106,-4.106,0.0,0.0,0.0,0.0,0.0,0.0,0.0,-6.5413,-6.6183,-6.8309,-6.8605,-6.9419,-7.156,-7.1817,-7.1817,-7.1817,-7.0258,-6.8371,-6.6264,-6.4552,-6.5299,-6.9043,-6.954,-7.1145,-7.4163,-7.4316,-7.4736,-7.5501,-7.5019,-7.4745,-7.4705,-7.3886,-7.387,-7.4487,-7.4143,-7.4368,-7.5102,-7.5909,-7.5833,-7.532,-7.5913,-7.4893,-7.2834,-7.1368,-7.0375,-6.9687,-6.8986,-6.8739,-6.8659,-6.807,0.0,0.0,0.0,0.0,0.0,0.0,0.0,0.0,0.0,0.0,0.0,0.0,0.0,0.0,0.0,0.0,0.0,0.0,0.0,0.0,0.0,0.0,0.0,0.0,-4.8438,-4.8401,-4.688,-4.4319,-4.279,-4.3507,-4.2531,-4.2049,-4.2402,-4.1733,-4.1229,-4.1229,-4.106,-4.106,-4.106,-4.106,0.0,0.0,0.0,-4.106,-4.106,-4.106,-4.106,-4.106,-4.106,-4.106,-4.106,-4.106,-4.106,-4.106,-4.106,-4.106,-4.106,-4.106,-4.106,-4.106,-4.106,-4.106,-4.106,-4.106,-4.106,-4.106,0.0,0.0,0.0,0.0,0.0,0.0,0.0,-6.5413,-6.6183,-6.8309,-6.8605,-6.9419,-7.156,-7.1817,-7.1817,-7.1817,-7.0258,-6.8397,-6.6225,-6.7291,-6.8356,-6.9158,-7.1794,-7.3552,-7.4201,-7.4889,-7.531,-7.5501,-7.5392,-7.5132,-7.4705,-7.4778,-7.4711,-7.4561,-7.5322,-7.5726,-7.5909,-7.6754,-7.7023,-7.6836,-7.6366,-7.5577,-7.4474,-7.3498,-7.3011,-7.2914,-7.2762,-7.2671,-7.2602,-7.1897,-7.1268,-7.0565,-6.9033,0.0,0.0,0.0,0.0,0.0,0.0,0.0,0.0,0.0,0.0,0.0,0.0,0.0,0.0,0.0,0.0,0.0,0.0,0.0,0.0,-4.9984,-4.9387,-4.8762,-4.8417,-4.5535,-4.3448,-4.3214,-4.3214,-4.3048,-4.2402,-4.2235,-4.2068,-4.1546,-4.121,-4.106,-4.106,-4.106,-4.106,-4.106,-4.106,-4.106,-4.106,-4.106,-4.106,-4.106,-4.106,0.0,-4.106,-4.106,-4.106,-4.106,-4.106,-4.106,-4.106,-4.106,-4.106,-4.106,-4.106,-4.106,-4.106,-4.106,-4.106,-4.106,0.0,0.0,0.0,0.0,0.0,0.0,0.0,-6.5413,-6.5973,-6.761,-6.7811,-6.8408,-7.0027,-6.9826,-6.9593,-6.9593,-6.8443,-6.7432,-6.6747,-6.8347,-7.0094,-7.182,-7.3385,-7.4393,-7.4851,-7.5271,-7.5501,-7.5501,-7.5501,-7.5547,-7.5704,-7.5641,-7.5793,-7.608,-7.6403,-7.6575,-7.6754,-7.7157,-7.7304,-7.7279,-7.7368,-7.7152,-7.6646,-7.5434,-7.5285,-7.5541,-7.5148,-7.497,-7.4851,-7.4083,-7.3602,-7.3136,-7.2005,-7.0128,-6.8153,0.0,0.0,0.0,0.0,0.0,0.0,0.0,0.0,0.0,0.0,0.0,0.0,0.0,0.0,-4.8387,0.0,0.0,-5.1177,-5.1441,-5.1404,-5.0675,-4.9091,-4.7347,-4.5616,-4.3711,-4.3214,-4.2902,-4.2402,-4.2068,-4.1733,-4.1378,-4.121,-4.106,-4.106,-4.106,-4.106,-4.106,-4.106,-4.106,-4.106,-4.106,-4.106,-4.106,-4.106,-4.106,-4.106,-4.106,-4.106,-4.106,-4.106,-4.106,-4.106,-4.106,-4.106,-4.106,-4.106,-4.106,-4.106,-4.106,-4.106,-4.106,0.0,0.0,0.0,0.0,0.0,0.0,0.0,-6.5413,-6.58,-6.6833,-6.7,-6.7369,-6.8274,-6.7812,-6.7193,-6.669,-6.6612,-6.6786,-6.7205,-6.9142,-7.1525,-7.4388,-7.4484,-7.4775,-7.5462,-7.5501,-7.5577,-7.573,-7.573,-7.615,-7.6953,-7.6614,-7.691,-7.7678,-7.7266,-7.7197,-7.7304,-7.7304,-7.7414,-7.7635,-7.8332,-7.8699,-7.8683,-7.7553,-7.7341,-7.7481,-7.6717,-7.6116,-7.572,-7.5414,-7.5085,-7.4671,-7.4499,-7.331,-7.1631,-6.9367,-6.8385,0.0,0.0,0.0,0.0,0.0,0.0,0.0,0.0,0.0,-5.34,-5.1575,-5.0978,-5.0696,-5.0696,-5.1562,-5.2283,-5.2283,-5.2828,-5.2236,-4.9249,-4.846,-4.7187,-4.4021,-4.3048,-4.2735,-4.2735,-4.19,-4.1397,-4.1397,-4.1229,-4.106,-4.106,-4.106,-4.106,-4.106,-4.106,-4.106,-4.106,-4.106,-4.106,-4.106,-4.106,-4.106,-4.106,-4.106,-4.106,-4.106,-4.106,-4.1097,-4.1189,-4.1189,-4.1225,-4.1299,-4.1299,-4.1299,-4.128,-4.1207,-4.1189,-4.1189,0.0,0.0,0.0,0.0,0.0,0.0,0.0,0.0,-6.58,-6.6833,-6.7,-6.7138,-6.7501,-6.7464,-6.6458,-6.4135,-6.6631,-6.7956,-6.7077,-7.0706,-7.3253,-7.4193,-7.4962,-7.5386,-7.5501,-7.5501,-7.5844,-7.657,-7.657,-7.7029,-7.787,-7.8096,-7.8043,-7.7716,-7.7862,-7.7715,-7.7304,-7.7304,-7.7781,-7.8479,-7.8552,-7.9029,-7.9727,-8.0231,-7.9615,-7.8311,-7.7496,-7.5836,-7.4457,-7.6279,-7.5602,-7.4257,-7.6223,-7.5344,-7.3186,-7.1051,0.0,-6.6445,-6.2097,-6.0166,-5.9159,-5.8455,-5.9016,-5.9323,0.0,0.0,-5.4733,-5.3027,-5.1607,-5.0696,-5.0696,-5.1562,-5.2283,-5.2283,-5.1883,-5.0985,-4.9091,-4.7528,-4.5941,-4.3856,-4.3546,-4.3546,-4.3546,-4.2735,-4.2235,-4.2235,-4.1565,-4.106,-4.106,-4.106,-4.106,-4.106,-4.106,-4.106,-4.106,-4.106,-4.106,-4.106,-4.106,-4.106,-4.106,-4.106,-4.106,-4.106,-4.106,-4.128,-4.1629,-4.1629,-4.1831,-4.2142,-4.2142,-4.2142,-4.2106,-4.1739,-4.1629,-4.1666,0.0,0.0,0.0,0.0,0.0,0.0,0.0,0.0,0.0,0.0,-6.6078,-6.5942,-6.5577,-6.4641,-6.3411,-6.1834,-6.5341,-6.7702,-6.777,-7.1706,-7.4388,-7.5149,-7.5374,-7.5501,-7.5501,-7.5959,-7.6341,-7.6685,-7.722,-7.7908,-7.8748,-7.8904,-7.8967,-7.8867,-7.8641,-7.8255,-7.7805,-7.7941,-7.8259,-7.8662,-7.9617,-8.0231,-8.0662,-8.1443,-8.1387,-8.0612,-7.7768,-7.6092,0.0,-7.5254,-7.4568,-7.4188,-7.6499,-7.5402,-7.2827,-7.1069,-6.9268,0.0,-6.4305,-6.2551,-6.1233,0.0,-6.0535,-6.0245,-5.7701,-5.6743,-5.5819,-5.3899,-5.2914,-5.2524,-5.2524,-5.2884,-5.3173,0.0,-5.291,-5.1777,-4.9091,-4.8143,-4.6727,-4.4021,-4.3546,-4.3214,-4.2882,-4.2235,-4.1565,-4.1565,-4.1229,-4.106,-4.106,-4.106,-4.106,-4.106,-4.106,-4.106,-4.106,-4.106,-4.106,-4.106,-4.106,-4.106,-4.106,-4.106,-4.1189,-4.1445,-4.1666,-4.1867,-4.2032,-4.2032,-4.2124,-4.2271,-4.2271,-4.2271,-4.2252,-4.2087,-4.2032,-4.2051,0.0,0.0,0.0,0.0,0.0,0.0,0.0,0.0,0.0,0.0,-6.5222,-6.4649,-6.3579,-6.2166,-6.1019,-6.0446,-6.4039,-6.6859,-6.8125,-7.1766,-7.4456,-7.5741,-7.5599,-7.5577,-7.5806,-7.6379,-7.6953,-7.7411,-7.8061,-7.8787,-7.9627,-7.9627,-7.9627,-7.9665,-7.9311,-7.8891,-7.8443,-7.8707,-7.8995,-7.936,-8.0534,-8.1186,-8.1534,-8.2031,-8.2059,-8.146,-7.7847,-7.6228,-7.5508,-7.3995,-7.305,-7.2946,-7.4959,-7.4139,-7.2001,-7.0189,-6.8236,-6.6358,-6.5084,0.0,0.0,-6.1833,-6.1827,-6.1407,-5.921,-5.7963,-5.6928,-5.5359,-5.4397,-5.3822,-5.3822,-5.3822,-5.3822,-5.3822,-5.3822,-5.2565,-4.9249,-4.8776,-4.7507,-4.4021,-4.3234,-4.2735,-4.2235,-4.1714,-4.1229,-4.1229,-4.1229,-4.106,-4.106,-4.106,-4.106,-4.106,-4.106,-4.106,-4.106,-4.106,-4.106,-4.106,-4.117,-4.1225,-4.1244,-4.1354,-4.1555,-4.1867,-4.2161,-4.2344,-4.2436,-4.2436,-4.2509,-4.2619,-4.2619,-4.2619,-4.2619,-4.2619,-4.2546,-4.2454,0.0,0.0,0.0,0.0,0.0,0.0,0.0,0.0,0.0,0.0,0.0,0.0,0.0,-6.0943,-6.0408,-6.0408,-6.2964,-6.5551,-6.7737,-7.0575,-7.3176,-7.5421,-7.5501,-7.5844,-7.6647,-7.6685,-7.7526,-7.9207,-7.9245,-7.9665,-8.0468,-8.0468,-8.0199,-7.9708,-7.9665,-7.9537,-7.9279,-7.926,-7.9912,-8.0938,-8.0975,-8.1452,-8.215,-8.2186,-8.1232,-7.9673,-7.7955,-7.6051,-7.419,0.0,-7.1256,-6.9727,-7.125,-7.1756,0.0,-6.8194,-6.506,0.0,0.0,0.0,-6.2293,-6.2083,-6.2708,-6.3225,-6.2858,-6.0455,-5.834,-5.8224,-5.5801,-5.3822,-5.3822,-5.3822,-5.3822,-5.3822,-5.3822,-5.2565,-4.9249,-4.8776,-4.7347,-4.3546,-4.2735,-4.2235,0.0,-4.1695,-4.1695,-4.1695,-4.1378,-4.106,-4.106,-4.106,-4.106,-4.106,-4.106,-4.106,-4.106,-4.106,-4.106,-4.106,-4.1482,-4.1666,-4.1684,-4.2069,-4.2252,-4.2252,-4.2271,-4.2491,-4.2858,-4.2858,-4.3096,-4.3463,-4.3463,-4.3463,-4.3463,-4.3463,-4.3206,-4.2913,0.0,0.0,0.0,0.0,0.0,0.0,0.0,0.0,0.0,0.0,0.0,0.0,0.0,0.0,0.0,0.0,0.0,-6.5647,-6.7018,-7.0592,-7.3035,-7.3781,-7.5424,-7.6418,-7.6685,-7.7831,-7.871,-7.9283,-7.9818,-8.0238,-8.0506,-8.0506,-8.0392,-8.0237,-8.0444,-8.0515,-8.0451,-8.0803,-8.1169,-8.1525,-8.1718,-8.1994,-8.2169,-8.1076,-8.014,-7.8975,0.0,-7.3511,-7.2298,0.0,0.0,0.0,-7.1113,0.0,0.0,-6.5909,0.0,0.0,0.0,0.0,-6.4603,-6.3573,-6.3362,-6.315,-6.203,-6.0043,-5.8082,-5.7107,-5.4694,-5.2788,-5.2788,-5.2788,-5.2788,-5.2788,-5.3365,-5.2565,-4.9249,-4.8776,-4.7347,-4.3546,-4.2735,0.0,0.0,0.0,0.0,-4.121,-4.1229,-4.106,-4.106,-4.106,-4.106,-4.106,-4.106,-4.106,-4.106,-4.1335,-4.1482,-4.1482,-4.1886,-4.2087,-4.2087,-4.2491,-4.2674,-4.2674,-4.2968,-4.3169,-4.3279,-4.3279,-4.3371,-4.3499,-4.3499,-4.3499,-4.3499,-4.3499,-4.3408,-4.3298,0.0,0.0,0.0,0.0,0.0,0.0,0.0,0.0,0.0,0.0,0.0,0.0,0.0,0.0,0.0,0.0,0.0,0.0,-6.6636,-6.9502,-7.1565,-7.2482,-7.4049,-7.5195,-7.5806,-7.6914,-7.764,-7.7946,-7.9054,-7.9627,-7.9627,-8.02,-8.0659,-8.0964,-8.1187,-8.1512,-8.1862,-8.2209,-8.1978,-8.1397,-8.1575,-8.1192,-8.0441,-7.9349,-7.8227,0.0,-7.379,-7.1837,0.0,0.0,0.0,0.0,0.0,0.0,0.0,0.0,0.0,0.0,0.0,-6.5574,-6.5971,-6.4492,-6.3834,-6.3282,-6.2298,-6.0181,-5.8082,-5.7107,-5.4398,-5.2283,-5.2283,-5.197,-5.173,-5.173,-5.2283,-5.1899,-4.9471,-4.9052,-4.7913,-4.4454,-4.3526,-4.2863,0.0,0.0,0.0,-4.106,-4.106,-4.106,-4.106,-4.106,-4.106,-4.106,-4.1207,-4.128,-4.128,-4.1684,-4.1977,-4.2106,-4.2362,-4.2564,-4.2729,-4.2968,-4.3096,-4.3114,-4.3371,-4.3499,-4.3499,-4.3499,-4.3499,-4.3499,-4.3499,-4.3499,-4.3499,-4.3499,-4.3499,-4.3499,0.0,0.0,0.0,0.0,0.0,0.0,0.0,0.0,0.0,0.0,0.0,0.0,0.0,0.0,0.0,0.0,0.0,0.0,-6.6522,-6.7477,-6.9043,-7.145,-7.1718,-7.2559,-7.4163,-7.424,-7.466,-7.5501,-7.7105,-7.7908,-7.7984,-7.9551,-8.0773,-8.1614,-8.1652,-8.2218,-8.3157,-8.315,-8.2122,-8.0431,-8.0468,-7.9135,-7.7304,-7.7169,-7.5734,-7.3609,-7.2827,0.0,0.0,0.0,0.0,0.0,0.0,0.0,0.0,0.0,0.0,-6.6377,-6.6585,-6.6651,-6.6326,-6.4901,-6.4224,-6.3965,-6.3545,-6.0756,-5.834,-5.8287,-5.5021,-5.2187,0.0,0.0,-5.0696,-5.0696,-5.0792,-5.0603,-4.9881,-4.972,-4.8672,0.0,0.0,0.0,0.0,0.0,0.0,-4.106,0.0,-4.106,-4.106,-4.1079,-4.1097,-4.1097,-4.15,-4.1721,-4.1721,-4.2106,-4.2509,-4.2894,-4.2894,-4.3114,-4.3499,-4.3499,-4.3499,-4.3499,-4.3499,-4.3499,-4.3499,-4.3499,-4.3499,-4.3499,-4.3499,-4.3499,-4.3499,-4.3499,-4.3499,-4.3499,0.0,0.0,0.0,0.0,0.0,0.0,0.0,0.0,0.0,0.0,0.0,0.0,0.0,0.0,0.0,0.0,0.0,0.0,-6.5643,-6.7706,-6.9158,-6.9807,-7.2215,-7.3781,-7.4201,-7.4851,-7.5271,-7.5501,-7.5921,-7.6418,-7.7029,-7.7487,-7.8137,-7.9016,-7.9627,-7.9856,-7.9746,-7.9953,-7.9566,-7.8759,-7.8338,-7.7794,-7.7133,-7.5316,-7.3971,-7.2686,0.0,0.0,0.0,0.0,0.0,0.0,0.0,0.0,-6.7197,0.0,0.0,-6.8917,-6.7113,-6.7327,-6.76,-6.5358,-6.4483,-6.3965,-6.3834,-6.1029,-5.8131,-5.7407,-5.4009,-5.0864,0.0,0.0,0.0,-5.0696,-5.2018,0.0,-5.1033,-5.0903,0.0,-4.5555,0.0,-4.3962,-4.1546,-4.1229,0.0,0.0,-4.106,-4.106,-4.106,-4.1354,-4.1519,-4.1519,-4.1922,-4.2124,-4.2124,-4.2527,-4.2931,-4.3334,-4.3334,-4.3389,-4.3499,-4.3499,-4.3499,-4.3499,-4.3499,-4.3499,-4.3499,-4.3499,-4.3499,-4.3499,-4.3499,-4.3499,-4.3499,-4.3499,-4.3499,-4.3499,0.0,0.0,0.0,0.0,0.0,0.0,0.0,0.0,0.0,0.0,0.0,0.0,0.0,0.0,0.0,0.0,0.0,0.0,0.0,-6.7324,-6.8432,-6.9158,-7.0992,-7.2176,-7.252,-7.3017,-7.3437,-7.3819,-7.4584,-7.5348,-7.6188,-7.6914,-7.7644,-7.8217,-7.8712,-7.8853,-7.8723,-7.8897,-7.8265,0.0,0.0,-7.6037,-7.5042,-7.3343,-7.2299,0.0,0.0,0.0,0.0,0.0,0.0,-6.9377,-7.0214,-6.9412,-6.8331,-6.8978,0.0,-6.9978,-6.8013,-6.815,-6.8026,-6.5446,-6.4354,-6.3822,-6.3122,-6.0237,-5.7433,-5.628,-5.2717,0.0,-4.9181,0.0,0.0,0.0,0.0,0.0,-5.1836,-5.0954,-4.9384,0.0,-4.5393,0.0,-4.1546,-4.1229,-4.1134,0.0,-4.117,-4.1134,-4.1317,-4.1555,-4.1776,-4.1941,-4.2326,-4.2619,-4.2803,-4.3023,-4.3261,-4.3499,-4.3499,-4.3499,-4.3499,-4.3499,-4.3499,-4.3499,-4.3499,-4.3499,-4.3499,-4.3499,-4.3499,-4.3499,-4.3499,-4.3499,-4.3499,-4.3499,-4.3499,-4.3499,0.0,0.0,0.0,0.0,0.0,0.0,0.0,0.0,0.0,0.0,0.0,0.0,0.0,0.0,0.0,0.0,0.0,0.0,0.0,0.0,0.0,0.0,-6.9311,-6.9693,-7.0381,0.0,0.0,0.0,0.0,-7.4354,-7.5348,-7.6764,-7.7608,-7.8007,-7.7922,-7.8036,-7.8253,-7.8253,-7.7167,-7.5325,-7.5325,-7.4183,-7.2438,0.0,0.0,0.0,0.0,0.0,0.0,0.0,-7.1791,-7.0783,-7.0984,-7.0006,-6.9011,-7.0306,-7.0695,-7.0363,-6.909,-6.8705,-6.7996,-6.5192,-6.4224,-6.3492,-6.1699,-5.8962,-5.6275,-5.4701,0.0,-4.9036,-4.8892,-4.8988,-4.9133,-4.9277,0.0,-5.1273,-5.2331,-5.0779,-4.9373,-4.8488,-4.6182,-4.3942,-4.2178,-4.1434,-4.1299,-4.1666,-4.139,-4.1372,-4.1739,-4.1812,-4.2032,-4.2417,-4.2766,-4.3133,-4.3499,-4.3499,-4.3499,-4.3499,-4.3499,-4.3499,-4.3499,-4.3499,-4.3499,-4.3499,-4.3499,-4.3499,-4.3499,-4.3499,-4.3499,-4.3499,-4.3499,-4.3499,-4.3499,-4.3499,-4.3499,-4.3499,0.0,0.0,0.0,0.0,0.0,0.0,0.0,0.0,0.0,0.0,-6.5261,-6.5261,0.0,0.0,0.0,0.0,0.0,0.0,0.0,0.0,0.0,0.0,-6.9846,-7.0266,0.0,0.0,0.0,0.0,0.0,0.0,-7.4431,-7.4334,-7.4672,-7.5349,-7.4928,-7.4581,-7.4271,-7.4271,-7.3808,-7.3072,-7.3072,-7.2831,-7.238,0.0,0.0,0.0,0.0,0.0,0.0,0.0,-7.1931,-7.2429,-7.373,-7.3041,-7.1796,-7.2055,-7.2152,-7.1617,-6.937,-6.8705,-6.7996,-6.5192,-6.4224,-6.3334,-6.0607,-5.8295,0.0,0.0,-5.0517,-4.882,-4.793,-4.8483,0.0,-5.0287,0.0,0.0,0.0,0.0,-5.1745,0.0,0.0,0.0,0.0,0.0,0.0,0.0,-4.1922,-4.2106,-4.2179,-4.2491,-4.2858,-4.3279,-4.3353,-4.3426,-4.3499,-4.3499,-4.3499,-4.3499,-4.3499,-4.3499,-4.3499,-4.3499,-4.3499,-4.3499,-4.3499,-4.3499,-4.3499,-4.3499,-4.3499,-4.3499,-4.3499,-4.3499,-4.3499,-4.3499,-4.3499,-4.3499,0.0,0.0,0.0,0.0,0.0,0.0,0.0,-6.5085,-6.515,-6.5345,-6.5413,-6.5413,-6.5413,-6.5413,0.0,0.0,0.0,0.0,0.0,0.0,0.0,0.0,0.0,0.0,0.0,0.0,0.0,0.0,0.0,0.0,0.0,0.0,0.0,0.0,0.0,0.0,0.0,0.0,-7.2742,0.0,0.0,0.0,0.0,0.0,0.0,0.0,0.0,0.0,0.0,0.0,-7.1094,-7.2379,-7.3841,-7.3492,-7.2508,-7.2508,-7.2508,-7.1906,-6.9432,-6.8587,-6.7757,-6.4938,-6.3965,-6.2773,-5.9154,0.0,0.0,0.0,-4.9288,-4.8098,-4.7593,0.0,0.0,0.0,0.0,0.0,0.0,0.0,0.0,0.0,0.0,0.0,0.0,0.0,0.0,-4.2444,-4.3304,-4.359,-4.2582,-4.2968,-4.3279,-4.3481,-4.3499,-4.3499,-4.3499,-4.3499,-4.3499,-4.3499,-4.3499,-4.3499,-4.3499,-4.3499,-4.3499,-4.3499,-4.3499,-4.3499,-4.3499,-4.3499,-4.3499,-4.3499,-4.3499,-4.3499,-4.3499,-4.3499,-4.3499,-4.3499,0.0,0.0,0.0,0.0,0.0,0.0,0.0,-6.4668,-6.4775,-6.5085,-6.5117,-6.5194,-6.5346,-6.555,-6.5948,0.0,0.0,0.0,0.0,0.0,0.0,0.0,0.0,0.0,0.0,0.0,0.0,0.0,0.0,0.0,0.0,0.0,0.0,0.0,0.0,0.0,0.0,0.0,0.0,0.0,0.0,0.0,0.0,0.0,0.0,0.0,0.0,0.0,0.0,0.0,-6.9812,-7.0864,-7.208,-7.2287,-7.2055,-7.2055,-7.181,-7.1164,-6.9224,-6.8233,-6.7155,-6.4682,-6.3675,-6.2212,-5.7738,-5.6025,0.0,0.0,-4.8264,-4.7497,-4.7497,0.0,0.0,0.0,0.0,0.0,0.0,0.0,0.0,0.0,0.0,0.0,0.0,0.0,0.0,-4.3485,-4.4798,-4.4856,-4.3181,-4.3316,-4.3499,-4.3499,-4.3499,-4.3659,-4.3997,-4.3997,-4.3997,-4.3997,-4.3997,-4.3837,-4.3499,-4.3499,-4.3499,-4.3499,-4.3499,-4.3499,-4.3499,-4.3499,-4.3499,-4.3499,-4.3499,-4.3499,-4.3499,-4.3499,-4.3499,-4.3499,0.0,0.0,0.0,0.0,0.0,0.0,0.0,-6.4136,-6.4176,-6.4215,-6.4215,-6.4516,-6.5191,-6.6053,-6.6598,0.0,0.0,0.0,0.0,0.0,0.0,0.0,0.0,0.0,0.0,0.0,0.0,0.0,0.0,0.0,0.0,0.0,0.0,0.0,0.0,0.0,0.0,0.0,0.0,0.0,0.0,0.0,0.0,0.0,0.0,0.0,0.0,0.0,0.0,0.0,0.0,-6.7644,-6.8436,-6.9599,-7.0598,-7.0598,0.0,0.0,-6.8745,-6.7637,-6.6109,-6.4425,-6.3675,-6.1949,-5.6663,0.0,0.0,-4.8705,-4.763,-4.7497,-4.7497,-4.7569,-4.7954,0.0,0.0,-4.9907,0.0,0.0,0.0,0.0,0.0,0.0,0.0,0.0,0.0,-4.5394,-4.5918,-4.5297,-4.3604,-4.3481,-4.3499,-4.3499,-4.3499,-4.4333,-4.5861,-4.6036,-4.6036,-4.6036,-4.6036,-4.5002,-4.3499,-4.3499,-4.3499,-4.3499,-4.3499,-4.3499,-4.3499,-4.3499,-4.3499,-4.3499,-4.3499,-4.3499,-4.3499,-4.3499,-4.3499,-4.3499,0.0,0.0,0.0,0.0,0.0,0.0,-6.3674,-6.3718,-6.3846,-6.4056,-6.4547,-6.496,-6.5298,-6.6519,-6.7467,-6.7794,0.0,0.0,0.0,0.0,0.0,0.0,0.0,0.0,0.0,0.0,0.0,0.0,0.0,0.0,0.0,0.0,0.0,0.0,0.0,0.0,0.0,0.0,0.0,0.0,0.0,0.0,0.0,0.0,0.0,0.0,0.0,0.0,0.0,0.0,0.0,0.0,-6.5869,-6.622,0.0,0.0,-6.95,-6.8532,-6.8451,-6.7276,-6.558,-6.4037,-6.2875,-6.0793,-5.6266,0.0,0.0,-4.845,-4.7497,-4.7497,-4.7497,-4.7497,-4.7642,-4.805,0.0,0.0,0.0,0.0,0.0,0.0,0.0,0.0,0.0,0.0,0.0,-4.9322,-4.849,-4.7581,-4.6908,-4.5705,-4.5178,-4.5178,-4.5178,-4.6036,-4.7905,-4.7926,-4.7388,-4.6191,-4.6191,-4.5178,-4.3499,-4.3499,-4.3499,-4.3499,-4.3499,-4.3499,-4.3499,-4.3499,-4.3499,-4.3499,-4.3499,-4.3499,-4.3499,-4.3499,-4.3499,-4.3499,0.0,0.0,0.0,0.0,0.0,-6.2904,-6.3252,-6.3484,-6.3771,-6.4047,-6.4799,-6.5396,-6.562,-6.6702,-6.771,-6.8399,-6.8598,0.0,0.0,0.0,0.0,0.0,0.0,0.0,0.0,0.0,-7.0337,-7.1794,-7.1449,0.0,0.0,0.0,0.0,0.0,0.0,0.0,0.0,0.0,0.0,0.0,0.0,0.0,0.0,0.0,0.0,0.0,0.0,0.0,0.0,0.0,0.0,0.0,0.0,0.0,0.0,0.0,-6.7736,-6.6765,-6.7052,-6.6124,-6.4851,-6.3647,-6.2247,-6.0079,0.0,0.0,0.0,-4.8353,-4.7497,-4.7497,-4.7497,-4.7497,-4.7497,-4.7497,0.0,-4.8588,0.0,0.0,0.0,0.0,0.0,0.0,0.0,0.0,-5.1664,-5.2492,-5.0821,-4.9807,-4.9807,-4.8592,-4.756,-4.7061,-4.7061,-4.7905,-4.9807,-4.9807,-4.8935,-4.7061,-4.7061,-4.5881,-4.3499,-4.3499,-4.3499,-4.3499,-4.3499,-4.3499,-4.3499,-4.3499,-4.3499,-4.3499,-4.3499,-4.3499,-4.3499,-4.3499,-4.3499,-4.3499,0.0,0.0,0.0,0.0,0.0,0.0,-6.2805,-6.3539,-6.409,-6.4141,-6.4787,-6.5595,-6.6366,-6.6476,-6.7031,-6.832,-6.8825,0.0,0.0,0.0,0.0,0.0,0.0,0.0,0.0,0.0,-6.9694,-7.0809,-7.0809,-7.1389,-7.2496,-7.2496,0.0,0.0,0.0,0.0,0.0,0.0,0.0,0.0,0.0,0.0,0.0,0.0,0.0,0.0,0.0,0.0,0.0,0.0,0.0,0.0,0.0,0.0,0.0,0.0,-6.3517,-6.2646,-6.407,-6.3922,-6.3413,-6.3413,-6.2247,-6.0079,0.0,0.0,0.0,-4.8353,-4.7497,-4.7497,-4.7497,-4.7497,-4.7497,-4.7497,-4.7521,0.0,0.0,0.0,0.0,0.0,0.0,0.0,0.0,0.0,-5.2514,-5.423,-5.2702,0.0,-5.1682,-5.1682,-5.0821,-4.8955,-4.8955,-4.9807,-5.1682,-5.1682,-5.0821,-4.8955,-4.8955,-4.7081,-4.3499,-4.3499,-4.3499,-4.3499,-4.3499,-4.3499,-4.3499,-4.3499,-4.3499,-4.3499,-4.3499,-4.3499,-4.3499,-4.3499,-4.3499,-4.3499,0.0,0.0,0.0,0.0,0.0,0.0,0.0,-6.4751,-6.4934,-6.4934,-6.5632,-6.6219,-6.6476,-6.699,-6.75,-6.7878,-6.8346,0.0,0.0,0.0,0.0,0.0,0.0,0.0,0.0,-6.878,-6.9059,-6.9942,-7.0175,-7.079,-7.1688,-7.2239,-7.2496,0.0,0.0,0.0,0.0,0.0,0.0,0.0,0.0,0.0,0.0,0.0,0.0,0.0,0.0,0.0,0.0,0.0,0.0,0.0,0.0,0.0,0.0,-5.9969,0.0,0.0,-6.2204,-6.1704,-6.0863,-6.0639,-5.88,-5.6614,-5.452,0.0,0.0,0.0,-4.7497,-4.7497,-4.7497,-4.7497,-4.7497,-4.7497,-4.7497,0.0,0.0,0.0,0.0,0.0,0.0,0.0,0.0,0.0,-5.3738,-5.4416,-5.3902,-5.355,-5.355,-5.355,-5.2702,-5.0821,-5.0821,-5.1682,-5.355,-5.355,-5.2015,-4.8955,-4.8955,-4.7081,-4.3499,-4.3499,-4.3499,-4.3499,-4.3499,-4.3499,-4.3499,-4.3499,-4.3499,-4.3499,-4.3499,-4.3499,-4.3499,-4.3499,-4.3499,-4.3499,0.0,0.0,0.0,0.0,0.0,0.0,0.0,-6.5558,-6.5742,-6.5742,-6.6439,-6.6953,-6.6953,-6.7393,-6.7687,-6.7687,-6.7967,0.0,0.0,0.0,0.0,0.0,0.0,0.0,-6.8586,-6.8297,-6.8689,-6.9799,-6.9981,-7.0513,-7.1321,-7.2129,-7.2349,-7.2055,-7.2349,0.0,0.0,0.0,0.0,0.0,0.0,0.0,-6.9773,0.0,0.0,0.0,0.0,0.0,0.0,0.0,0.0,0.0,0.0,0.0,0.0,0.0,-5.7683,0.0,0.0,-5.9887,-5.9301,-5.8676,-5.6856,0.0,0.0,0.0,0.0,0.0,0.0,0.0,-4.7497,-4.7497,-4.7497,-4.7497,0.0,0.0,0.0,0.0,0.0,0.0,0.0,0.0,0.0,-5.4186,-5.4416,-5.4416,-5.4416,-5.4416,-5.4416,-5.4416,-5.3902,-5.2702,-5.2702,-5.3221,-5.4416,-5.4416,-5.2868,-4.9977,-4.9276,-4.7408,-4.451,-4.3837,-4.3499,-4.3499,-4.3499,-4.3499,0.0,-4.3499,-4.3499,-4.3499,-4.3499,-4.3499,-4.3499,-4.3499,-4.3499,-4.3499,0.0,0.0,0.0,0.0,0.0,0.0,0.0,-6.6109,-6.6586,-6.6586,-6.7247,-6.7687,-6.7687,-6.7687,-6.7687,-6.7687,0.0,0.0,0.0,0.0,0.0,0.0,0.0,0.0,-6.7687,-6.7687,-6.8458,-7.0,-7.0073,-7.0513,-7.1321,-7.2055,-7.2018,-7.1358,-7.2018,-7.2349,0.0,0.0,0.0,0.0,0.0,-7.0932,0.0,0.0,0.0,0.0,0.0,0.0,0.0,0.0,0.0,0.0,0.0,0.0,0.0,0.0,0.0,0.0,0.0,0.0,0.0,0.0,0.0,0.0,0.0,0.0,0.0,0.0,0.0,0.0,0.0,0.0,0.0,0.0,0.0,0.0,0.0,0.0,0.0,0.0,0.0,0.0,0.0,-5.3865,-5.4416,-5.4416,-5.4416,-5.4416,-5.4416,-5.4416,-5.4416,-5.4416,-5.4416,-5.4416,-5.4416,-5.4416,-5.355,-5.1682,-4.9786,-4.7905,-4.6191,-4.4333,-4.3499,-4.3499,-4.3499,-4.3499,-4.3499,-4.3499,-4.3499,-4.3499,-4.3499,-4.3499,-4.3499,-4.3499,-4.3499,-4.3499,0.0,0.0,0.0,0.0,0.0,0.0,0.0,0.0,0.0,0.0,-6.7577,-6.7687,-6.7687,-6.7687,-6.7687,0.0,0.0,0.0,0.0,0.0,0.0,0.0,0.0,0.0,-6.7687,-6.7687,-6.8201,-6.9192,-6.9816,-7.0513,-7.1321,-7.1505,-7.1505,-7.1284,-7.0844,-7.0668,0.0,0.0,0.0,0.0,-7.0262,-7.0015,0.0,0.0,0.0,0.0,-6.5216,-6.3676,0.0,0.0,0.0,0.0,0.0,0.0,0.0,0.0,-5.5496,0.0,-5.5979,0.0,-5.6009,-5.4719,-5.3369,-5.2035,0.0,0.0,0.0,0.0,0.0,0.0,0.0,0.0,0.0,0.0,0.0,0.0,0.0,0.0,0.0,0.0,0.0,0.0,-5.4049,-5.4278,-5.4416,-5.4416,-5.4416,-5.4416,-5.4416,-5.4416,-5.4416,-5.4416,-5.4416,-5.4416,-5.4416,-5.4416,-5.355,-5.1682,-4.9807,-4.8077,-4.6191,-4.4333,-4.3499,-4.3499,-4.3499,-4.3499,-4.3499,-4.3499,-4.3499,-4.3499,-4.3499,-4.3499,-4.3499,-4.3499,-4.3499,-4.3499,0.0,0.0,0.0,0.0,0.0,0.0,0.0,0.0,0.0,0.0,0.0,0.0,0.0,0.0,0.0,0.0,0.0,0.0,0.0,0.0,0.0,0.0,0.0,-6.7687,-6.7687,-6.7687,-6.8274,-6.9449,-6.9889,-7.033,-7.077,-7.1138,-7.0917,-7.022,-6.9791,-6.9407,-6.9017,-6.8678,-6.8291,-6.792,-6.8784,0.0,0.0,0.0,0.0,0.0,-6.4513,-6.3019,0.0,-6.0494,-5.9516,-5.8356,0.0,0.0,0.0,0.0,-5.5496,-5.5379,-5.4762,-5.4616,-5.4259,-5.2876,-5.1616,-5.0257,-4.8868,0.0,0.0,0.0,0.0,0.0,0.0,0.0,0.0,0.0,0.0,0.0,0.0,0.0,0.0,0.0,0.0,0.0,0.0,-5.4416,-5.4416,-5.4416,-5.4416,-5.4416,-5.4416,-5.4416,-5.4416,-5.4416,-5.4416,-5.4416,-5.4416,-5.4416,-5.3902,-5.2868,-5.0315,-4.8421,-4.7408,-4.4687,-4.3499,-4.3499,-4.3499,-4.3499,-4.3499,-4.3499,-4.3499,-4.3499,-4.3499,-4.3499,-4.3499,-4.3499,-4.3499,-4.3499,0.0,0.0,0.0,0.0,0.0,0.0,0.0,0.0,0.0,0.0,0.0,0.0,0.0,0.0,0.0,0.0,0.0,0.0,0.0,0.0,0.0,0.0,-6.7687,-6.7687,-6.7687,-6.7687,-6.8421,-6.9926,-6.9926,-6.9963,-7.011,-7.0697,-7.0091,-6.855,-6.8645,-6.8191,-6.733,-6.6848,-6.6628,-6.6651,-6.7102,0.0,0.0,0.0,0.0,0.0,0.0,0.0,0.0,-6.0075,-5.9117,-5.7863,-5.6936,0.0,0.0,0.0,0.0,0.0,-5.3872,-5.3498,-5.309,-5.1544,-5.0384,-4.9127,-4.7738,0.0,0.0,0.0,0.0,0.0,0.0,0.0,0.0,0.0,0.0,0.0,0.0,0.0,0.0,0.0,0.0,0.0,-5.4324,-5.4416,-5.4416,-5.4416,-5.4416,-5.4416,-5.4416,-5.4416,-5.4416,-5.4416,-5.4416,-5.4416,-5.4416,-5.4416,-5.4416,-5.4416,-5.0989,-4.9467,-4.9297,-4.553,-4.3837,-4.3837,-4.3659,-4.3499,-4.3499,-4.3499,-4.3499,-4.3499,-4.3499,-4.3499,-4.3499,-4.3499,-4.3499,-4.3499,0.0,0.0,0.0,0.0,0.0,0.0,0.0,0.0,0.0,0.0,0.0,0.0,0.0,0.0,0.0,0.0,0.0,0.0,0.0,0.0,0.0,-6.7687,-6.7687,-6.7687,-6.7687,-6.7687,-6.8128,-6.9082,-6.9082,-6.9449,-7.0073,-6.9522,-6.8475,-6.7012,-6.6817,-6.6347,-6.5794,-6.6279,-6.6305,-6.6131,-6.6205,0.0,0.0,0.0,0.0,0.0,0.0,0.0,0.0,-5.8852,-5.7833,-5.6822,-5.5933,0.0,0.0,0.0,0.0,0.0,-5.3872,-5.3352,-5.2592,-5.0359,-4.9618,-4.9127,-4.7738,0.0,0.0,0.0,0.0,0.0,0.0,0.0,0.0,0.0,0.0,0.0,0.0,0.0,0.0,0.0,0.0,-5.4232,-5.4393,-5.4416,-5.4416,-5.4416,-5.4416,-5.4416,-5.4416,-5.4416,-5.4416,-5.4416,-5.4416,-5.4416,-5.4416,-5.4416,-5.4416,-5.4416,-5.2348,-5.1325,-5.1157,-4.7388,-4.5861,-4.5686,-4.4174,-4.3499,-4.3499,-4.3499,-4.3499,-4.3499,-4.3499,-4.3499,-4.3499,-4.3499,-4.3499,-4.3499,0.0,0.0,0.0,0.0,0.0,0.0,0.0,0.0,0.0,0.0,0.0,0.0,0.0,0.0,0.0,0.0,0.0,0.0,0.0,0.0,-6.7687,-6.7687,-6.7687,-6.7687,-6.7687,-6.8128,-6.8531,-6.8898,-6.9339,-6.9522,-6.9449,-6.8235,-6.7062,-6.594,-6.5459,-6.4848,-6.4157,-6.4766,-6.4585,-6.4102,0.0,0.0,0.0,0.0,0.0,0.0,0.0,0.0,0.0,0.0,-5.7162,-5.6594,-5.5729,0.0,0.0,0.0,0.0,0.0,-5.2754,-5.1758,-5.0789,-4.9603,-4.9695,-5.0,-4.9366,0.0,0.0,0.0,0.0,0.0,0.0,0.0,0.0,0.0,0.0,0.0,0.0,0.0,0.0,0.0,0.0,-5.3796,-5.437,-5.4416,-5.4416,-5.4416,-5.4416,-5.4416,-5.4416,-5.4416,-5.4416,-5.4416,-5.4416,-5.4416,-5.4416,-5.4416,-5.4416,-5.4416,-5.2536,-5.1682,-5.1514,-4.7905,-4.6191,-4.6017,-4.4352,-4.3499,-4.3499,-4.3499,-4.3499,-4.3499,-4.3499,-4.3499,-4.3499,-4.3499,-4.3499,-4.3499,0.0,0.0,0.0,0.0,0.0,0.0,0.0,0.0,0.0,0.0,0.0,0.0,0.0,0.0,0.0,0.0,0.0,0.0,0.0,-6.7687,-6.7687,-6.7687,-6.7687,-6.7797,-6.7981,-6.8385,-6.8715,-6.8898,-6.9339,-6.9137,-6.8348,-6.6812,-6.5752,-6.507,-6.4498,-6.3846,-6.3231,-6.3825,-6.3525,-6.2813,0.0,0.0,0.0,0.0,0.0,0.0,0.0,0.0,0.0,0.0,0.0,0.0,0.0,0.0,0.0,-5.5116,-5.4259,-5.312,-5.1492,-5.0436,-4.97,-4.9276,0.0,-5.0095,-5.06,-5.0503,0.0,0.0,0.0,0.0,0.0,0.0,0.0,0.0,0.0,0.0,-5.3244,-5.2894,-5.271,-5.3153,-5.3245,-5.3566,-5.4347,-5.4416,-5.4416,-5.4416,-5.4416,-5.4416,-5.4416,-5.4416,-5.4416,-5.4416,-5.4416,-5.4416,-5.4416,-5.4416,-5.4416,-5.4416,-5.3033,-5.2348,-5.2182,-4.8935,-4.7215,-4.6714,-4.4845,-4.3837,-4.3499,-4.3499,-4.3499,-4.3499,-4.3499,-4.3499,-4.3499,-4.3499,-4.3499,-4.3499,0.0,0.0,0.0,0.0,0.0,0.0,0.0,0.0,0.0,0.0,0.0,0.0,0.0,0.0,0.0,0.0,0.0,0.0,0.0,-6.7687,-6.7687,-6.7687,-6.7687,-6.8054,-6.8788,-6.8128,-6.8128,-6.8898,-6.8201,-6.7524,-6.6809,-6.5207,-6.4463,-6.4323,-6.4215,-6.3947,-6.3781,-6.4495,-6.4521,-6.398,-6.3186,0.0,0.0,0.0,0.0,0.0,0.0,0.0,0.0,0.0,0.0,0.0,0.0,0.0,-5.5261,-5.3992,-5.3631,-5.2876,-5.0384,-5.0243,-5.0672,-4.9446,-4.8411,0.0,-5.0263,-4.9926,0.0,-5.0407,0.0,0.0,0.0,0.0,0.0,0.0,0.0,0.0,0.0,0.0,-5.4209,-5.4301,-5.4301,-5.4324,-5.4393,-5.4416,-5.4416,-5.4416,-5.4416,-5.4416,-5.4416,-5.4416,-5.4416,-5.4416,-5.4416,-5.4416,-5.4416,-5.4416,-5.4416,-5.4416,-5.4252,-5.423,-5.4066,-5.2182,-5.0315,-4.8784,-4.6888,-4.5021,-4.3499,-4.3499,-4.3499,-4.3499,-4.3499,-4.3499,-4.3499,-4.3499,-4.3499,-4.3499,0.0,0.0,0.0,0.0,0.0,0.0,0.0,0.0,0.0,0.0,0.0,0.0,0.0,0.0,0.0,0.0,0.0,0.0,0.0,-6.7687,-6.7687,-6.7687,-6.7687,-6.7891,-6.8262,-6.8403,-6.8348,-6.8128,-6.7468,-6.6736,-6.6002,-6.5332,-6.5022,-6.4986,-6.471,-6.4574,-6.4449,-6.4472,-6.3968,-6.3219,-6.2201,-6.1435,0.0,0.0,0.0,0.0,0.0,0.0,0.0,0.0,-5.5729,-5.5379,-5.4497,-5.488,-5.5116,-5.2876,-5.2262,-5.1865,-5.0002,-4.9661,-4.9718,-4.9221,-4.8772,0.0,0.0,-5.1369,-5.1177,-5.1586,-5.1682,0.0,0.0,0.0,0.0,0.0,0.0,0.0,0.0,-5.4416,-5.4416,-5.4416,-5.4416,-5.4416,-5.4416,-5.4416,-5.4416,-5.4416,-5.4416,-5.4416,-5.4416,-5.4416,-5.4416,-5.4416,-5.4416,-5.4416,-5.4416,-5.4416,-5.4416,-5.4416,-5.4416,-5.4416,-5.4416,-5.2536,-5.0653,-4.8955,-4.7061,-4.5178,-4.3499,-4.3499,-4.3499,-4.3499,-4.3499,-4.3499,-4.3499,-4.3499,-4.3499,-4.3499,0.0,0.0,0.0,0.0,0.0,0.0,0.0,0.0,0.0,0.0,0.0,0.0,0.0,0.0,0.0,0.0,0.0,0.0,-6.7687,-6.7687,-6.7687,-6.7687,-6.7488,-6.7522,-6.7804,-6.8117,-6.8117,-6.7789,-6.7101,-6.6503,-6.5982,-6.5618,-6.5391,-6.5278,-6.4914,-6.472,-6.4671,-6.4266,-6.3453,-6.2522,-6.163,-6.0646,0.0,0.0,0.0,0.0,0.0,0.0,0.0,0.0,-5.5261,-5.4734,-5.3752,-5.3872,-5.3752,-5.1492,-5.0891,-5.0638,-4.9257,-4.8802,-4.8652,-4.8988,0.0,0.0,-5.1778,-5.2018,-5.197,-5.2644,-5.2499,-5.1897,-5.0722,0.0,0.0,0.0,0.0,0.0,-5.4324,-5.4416,-5.4416,-5.4416,-5.4416,-5.4416,-5.4416,-5.4416,-5.4416,-5.4416,-5.4416,-5.4416,-5.4416,-5.4416,-5.4416,-5.4416,-5.4416,-5.4416,-5.4416,-5.4416,-5.4416,-5.4416,-5.4416,-5.4416,-5.4416,-5.3056,-5.1325,-4.8955,-4.756,-4.5705,-4.3499,-4.3499,-4.3499,-4.3499,-4.3499,-4.3499,-4.3499,-4.3499,-4.3499,-4.3499,0.0,0.0,0.0,0.0,0.0,0.0,0.0,0.0,0.0,0.0,0.0,0.0,0.0,0.0,0.0,0.0,0.0,0.0,-6.7687,-6.7687,-6.7687,-6.7687,-6.7061,-6.7004,-6.7687,-6.7076,-6.7166,-6.8016,-6.727,-6.6918,-6.6847,-6.5959,-6.5378,-6.5176,-6.4673,-6.4374,-6.4178,-6.3844,-6.3228,-6.2256,-6.1561,-6.0594,-5.9318,0.0,0.0,0.0,0.0,0.0,0.0,0.0,-5.4616,-5.351,-5.351,-5.2508,-5.1242,-4.9874,-4.9515,-4.9257,-4.787,-4.7521,-4.7786,0.0,0.0,0.0,-5.1802,-5.1465,-5.1321,-5.3389,-5.3004,-5.2137,-5.1626,-5.1208,0.0,-5.1815,-5.2548,-5.3245,-5.4278,-5.4416,-5.4416,-5.4416,-5.4416,-5.4416,-5.4416,-5.4416,-5.4416,-5.4416,-5.4416,-5.4416,-5.4416,-5.4416,-5.4416,-5.4416,-5.4416,-5.4416,-5.4416,-5.4416,-5.4416,-5.4416,-5.4416,-5.4416,-5.4416,-5.4416,-5.237,-4.8935,-4.8955,-4.6908,-4.3499,-4.3499,-4.3499,-4.3499,-4.3499,-4.3499,-4.3499,-4.3499,-4.3499,-4.3499,0.0,0.0,0.0,0.0,0.0,0.0,0.0,0.0,0.0,0.0,0.0,0.0,0.0,0.0,0.0,0.0,0.0,0.0,-6.7687,-6.7687,-6.7488,-6.7004,-6.7266,-6.6794,-6.5561,-6.59,-6.6493,-6.72,-6.6989,-6.6558,-6.5959,-6.6048,-6.5535,-6.4707,-6.498,-6.4398,-6.316,-6.2331,-6.1852,-6.1432,-5.9456,-5.8693,-5.861,0.0,0.0,0.0,0.0,0.0,0.0,0.0,0.0,0.0,-5.1242,-5.1016,-5.0991,-4.8763,-4.8763,-4.9257,-4.787,-4.8603,0.0,-4.9181,0.0,0.0,0.0,-5.2043,0.0,0.0,-5.3132,-5.2529,-5.1349,-5.1522,0.0,-5.1931,-5.2548,-5.3245,-5.4278,-5.4416,-5.4416,-5.4416,-5.4416,-5.4416,-5.4416,-5.4416,-5.4416,-5.4416,-5.4416,-5.4416,-5.4416,-5.4416,-5.4416,-5.4416,-5.4416,-5.4416,-5.4416,-5.4416,-5.4416,-5.4416,-5.4416,-5.4416,-5.4416,-5.4416,-5.3056,-5.0821,-4.9637,-4.7581,-4.5354,-4.3997,-4.3499,-4.3499,-4.3499,-4.3499,-4.3499,-4.3499,-4.3499,-4.3499,0.0,0.0,0.0,0.0,0.0,0.0,0.0,0.0,0.0,0.0,-6.7687,-6.7687,0.0,0.0,0.0,0.0,0.0,0.0,0.0,-6.7378,-6.6967,-6.6618,-6.6464,-6.5911,-6.4946,-6.5699,-6.6422,-6.7128,-6.7203,-6.7011,-6.6426,-6.616,-6.5665,-6.5067,-6.4433,-6.357,-6.2523,-6.1163,-6.0594,-6.0431,-5.8217,-5.7523,-5.7655,0.0,0.0,0.0,0.0,0.0,0.0,0.0,0.0,0.0,-5.0002,-4.9618,-4.9618,-4.8002,-4.8133,-4.86,-4.827,0.0,0.0,-5.0311,-5.1321,-5.2379,-5.2788,0.0,0.0,0.0,0.0,-5.2878,-5.1639,-5.1734,0.0,-5.2225,-5.2645,-5.3245,-5.4278,-5.4416,-5.4416,-5.4416,-5.4416,-5.4416,-5.4416,-5.4416,-5.4416,-5.4416,-5.4416,-5.4416,-5.4416,-5.4416,-5.4416,-5.4416,-5.4416,-5.4416,-5.4416,-5.4416,-5.4416,-5.4416,-5.4416,-5.4416,-5.4416,-5.4416,-5.3386,-5.1514,-4.8935,-4.6888,-4.5002,-4.3997,-4.3499,-4.3499,-4.3499,-4.3499,-4.3499,-4.3499,-4.3499,-4.3499,0.0,0.0,0.0,0.0,0.0,0.0,0.0,0.0,0.0,0.0,-6.7687,-6.7687,0.0,0.0,0.0,0.0,0.0,0.0,0.0,-6.67,-6.6247,-6.6186,-6.4976,-6.4697,-6.5542,-6.5959,-6.6531,-6.7209,-6.7488,-6.7604,-6.7604,-6.6067,-6.5426,-6.5513,-6.3227,-6.2094,-6.1734,-6.0058,-5.9379,-5.9105,-5.7646,-5.6916,-5.6764,-5.6076,0.0,0.0,0.0,0.0,0.0,0.0,0.0,0.0,-4.9386,-4.8502,-4.7497,-4.7497,-4.7569,-4.7858,0.0,0.0,0.0,0.0,0.0,0.0,-5.3606,-5.3822,-5.3672,-5.3219,0.0,-5.2939,-5.2024,-5.2024,-5.2194,-5.274,-5.2901,-5.3245,-5.4278,-5.4416,-5.4416,-5.4416,-5.4416,-5.4416,-5.4416,-5.4416,-5.4416,-5.4416,-5.4416,-5.4416,-5.4416,-5.4416,-5.4416,-5.4416,-5.4416,-5.4416,-5.4416,-5.4416,-5.4416,-5.4416,-5.4416,-5.4416,-5.4416,-5.4416,-5.3386,-5.1325,-4.7905,-4.5354,-4.3499,-4.3499,-4.3499,-4.3499,-4.3499,-4.3499,-4.3499,-4.3499,-4.3499,-4.3499,0.0,0.0,0.0,0.0,0.0,0.0,0.0,0.0,0.0,0.0,0.0,0.0,0.0,0.0,0.0,0.0,0.0,0.0,0.0,-6.549,-6.5101,-6.453,-6.427,-6.48,-6.6115,-6.5471,-6.5177,-6.521,-6.5951,-6.6253,-6.6048,-6.4365,-6.3107,-6.2331,-6.1789,-6.0397,-5.8552,-5.8684,-5.8261,-5.7478,-5.6485,-5.6358,-5.6708,-5.5907,-5.4859,0.0,0.0,0.0,0.0,0.0,0.0,0.0,-4.824,-4.7762,-4.7497,-4.7497,-4.8098,0.0,0.0,0.0,0.0,0.0,0.0,0.0,0.0,0.0,-5.3219,-5.2764,-5.2459,-5.2177,-5.1562,-5.1562,-5.1908,-5.274,-5.2901,-5.3245,-5.4278,-5.4416,-5.4416,-5.4416,-5.4416,-5.4416,-5.4416,-5.4416,-5.4416,-5.4416,-5.4416,-5.4416,-5.4416,-5.4416,-5.4416,-5.4416,-5.4416,-5.4416,-5.4416,-5.4416,-5.4416,-5.4416,-5.4416,-5.4416,-5.4416,-5.4416,-5.2702,-4.9467,-4.8764,-4.656,-4.3499,-4.3499,-4.3499,-4.3499,-4.3499,-4.3499,-4.3499,-4.3499,-4.3499,-4.3499,0.0,0.0,0.0,0.0,0.0,0.0,0.0,0.0,0.0,0.0,0.0,0.0,0.0,0.0,0.0,0.0,0.0,0.0,0.0,0.0,-6.4287,-6.3939,-6.3888,-6.42,-6.4971,-6.4371,-6.3756,-6.3232,-6.3326,-6.349,-6.3903,-6.2464,-6.166,-6.1439,-6.036,-5.9379,-5.8475,-5.7951,-5.7416,-5.6892,-5.6022,-5.588,-5.6049,-5.497,-5.4112,-5.3389,-5.2754,0.0,0.0,0.0,0.0,0.0,0.0,0.0,-4.7497,-4.7497,-4.7882,0.0,0.0,0.0,0.0,0.0,0.0,0.0,0.0,0.0,0.0,0.0,-5.2154,-5.187,-5.1431,-5.1431,-5.1684,-5.2441,-5.274,-5.3176,-5.3957,-5.4278,-5.4416,-5.4416,-5.4416,-5.4416,-5.4416,-5.4416,-5.4416,-5.4416,-5.4416,-5.4416,-5.4416,-5.4416,-5.4416,-5.4416,-5.4416,-5.4416,-5.4416,-5.4416,-5.4416,-5.4416,-5.4416,-5.4416,-5.4416,-5.4416,-5.2868,-5.0315,-4.9467,-4.7408,-4.4668,-4.3837,-4.3499,-4.3499,-4.3499,-4.3499,-4.3499,-4.3499,-4.3499,-4.3499,0.0,0.0,0.0,0.0,0.0,0.0,0.0,0.0,0.0,0.0,0.0,0.0,0.0,0.0,0.0,0.0,0.0,0.0,0.0,0.0,0.0,-6.3306,-6.3256,-6.3099,-6.2993,-6.2814,-6.2287,-6.1348,-6.0328,-6.0422,-6.1375,-6.0455,-6.0326,-6.083,-5.9215,-5.867,-5.8752,-5.744,-5.6708,-5.648,-5.5845,-5.5496,-5.5379,-5.3992,-5.3389,-5.2998,-5.1642,0.0,-4.9127,-4.9127,0.0,0.0,0.0,0.0,-4.7497,-4.7497,0.0,0.0,0.0,0.0,0.0,0.0,0.0,0.0,0.0,0.0,0.0,0.0,0.0,0.0,-5.1431,-5.1431,-5.1592,-5.2097,-5.251,-5.2992,-5.3612,-5.4026,-5.4324,-5.4393,-5.4416,-5.4416,-5.4416,-5.4416,-5.4416,-5.4416,-5.4416,-5.4416,-5.4416,-5.4416,-5.4416,-5.4416,-5.4416,-5.4416,-5.4416,-5.4416,-5.4416,-5.4416,-5.4416,-5.4416,-5.4416,-5.4416,-5.3386,-5.1682,-4.9807,-4.7905,-4.6017,-4.4174,-4.3499,-4.3499,-4.3499,-4.3499,-4.3499,-4.3499,-4.3499,-4.3499,0.0,0.0,0.0,0.0,0.0,0.0,0.0,0.0,0.0,0.0,-6.507,-6.5267,0.0,0.0,0.0,0.0,0.0,0.0,0.0,0.0,0.0,-6.1401,-6.171,-6.1662,-6.1052,-6.0853,-6.0327,-5.963,-5.865,-5.8164,-5.8359,-5.8783,-5.8693,-5.8043,-5.8338,-5.7654,-5.6379,-5.6705,-5.6394,-5.5613,-5.5496,-5.5496,-5.5379,-5.3992,-5.2754,-5.1616,-5.0257,-4.8893,-4.7762,-4.7762,-4.763,0.0,0.0,0.0,0.0,0.0,0.0,0.0,0.0,0.0,0.0,0.0,0.0,0.0,0.0,0.0,0.0,0.0,0.0,0.0,-5.1431,-5.1431,-5.1592,-5.2097,-5.2235,-5.2602,-5.3566,-5.375,-5.3934,-5.437,-5.4416,-5.4416,-5.4416,-5.4416,-5.4416,-5.4416,-5.4416,-5.4416,-5.4416,-5.4416,-5.4416,-5.4416,-5.4416,-5.4416,-5.4416,-5.4416,-5.4416,-5.4416,-5.4416,-5.4416,-5.4416,-5.4416,-5.3386,-5.1682,-4.9807,-4.7905,-4.6017,-4.4174,-4.3499,-4.3499,-4.3499,-4.3499,-4.3499,-4.3499,-4.3499,-4.3499,0.0,0.0,0.0,0.0,0.0,0.0,0.0,0.0,0.0,0.0,0.0,-6.397,0.0,0.0,0.0,0.0,0.0,0.0,0.0,0.0,0.0,-6.0783,-6.1052,-6.0767,-5.9932,-5.9789,-5.8939,-5.7197,-5.7037,-5.6819,-5.6342,-5.7363,-5.7948,-5.8053,-5.7261,-5.6741,-5.6306,-5.6165,-5.5845,-5.5496,-5.5496,-5.5416,-5.5044,-5.3117,-5.191,-5.0969,-4.9091,-4.8002,-4.7497,-4.7497,-4.7497,-4.7497,-4.7497,0.0,0.0,0.0,0.0,0.0,0.0,0.0,0.0,0.0,0.0,0.0,0.0,0.0,0.0,0.0,0.0,0.0,0.0,-5.1431,-5.15,-5.173,-5.1982,-5.2441,-5.3153,-5.3498,-5.3865,-5.4347,-5.4416,-5.4416,-5.4416,-5.4416,-5.4416,-5.4416,-5.4416,-5.4416,-5.4416,-5.4416,-5.4416,-5.4416,-5.4416,-5.4416,-5.4416,-5.4416,-5.4416,-5.4416,-5.4416,-5.4416,-5.4416,-5.4416,-5.3902,-5.3056,-5.1325,-4.9446,-4.7581,-4.5686,-4.4333,-4.3499,-4.3499,-4.3499,-4.3499,-4.3499,-4.3499,-4.3321,0.0,0.0,0.0,0.0,0.0,0.0,0.0,0.0,0.0,0.0,0.0,0.0,0.0,0.0,0.0,0.0,0.0,0.0,0.0,0.0,0.0,-6.0096,-6.0019,-5.9561,-5.8688,-5.8467,-5.7448,-5.5762,-5.5939,-5.5946,-5.5672,-5.6397,-5.7281,-5.797,-5.6659,-5.6164,-5.6394,-5.5845,-5.5261,-5.5026,-5.5333,-5.5127,-5.4413,-5.225,-5.133,-5.073,-4.8391,-4.7497,-4.7497,-4.7497,-4.7497,-4.7497,-4.7497,-4.7497,0.0,0.0,0.0,0.0,0.0,0.0,0.0,0.0,0.0,0.0,0.0,0.0,0.0,0.0,0.0,0.0,0.0,0.0,-5.1431,-5.1431,-5.1753,-5.2166,-5.2648,-5.3061,-5.3543,-5.4163,-5.4232,-5.4278,-5.4393,-5.4416,-5.4416,-5.4416,-5.4416,-5.4416,-5.4416,-5.4416,-5.4416,-5.4416,-5.4416,-5.4416,-5.4416,-5.4416,-5.4416,-5.4416,-5.4416,-5.4416,-5.4416,-5.4416,-5.4416,-5.4252,-5.2536,-5.0653,-4.8784,-4.7061,-4.5178,-4.3499,-4.3499,-4.3499,-4.3499,-4.3499,-4.3481,-4.3124,0.0,0.0,0.0,0.0,0.0,0.0,0.0,0.0,0.0,0.0,0.0,0.0,-6.2693,-6.2727,-6.2268,-6.1152,-6.1069,0.0,0.0,0.0,0.0,-5.8367,-5.8055,0.0,-5.692,-5.6077,-5.5953,-5.6353,-5.5664,-5.5896,-5.6966,-5.6177,-5.6188,-5.6878,-5.6764,-5.6366,-5.5613,-5.5496,-5.4762,-5.3713,-5.4731,-5.4313,-5.3088,-5.1601,-5.1096,-5.073,-4.8391,-4.7497,-4.7497,-4.7497,-4.7497,-4.7497,-4.7497,-4.7497,-4.7497,0.0,0.0,0.0,0.0,0.0,0.0,0.0,0.0,0.0,0.0,0.0,0.0,0.0,0.0,0.0,0.0,0.0,0.0,-5.1431,-5.1454,-5.1638,-5.2143,-5.2235,-5.2625,-5.3612,-5.3727,-5.3911,-5.437,-5.4416,-5.4416,-5.4416,-5.4416,-5.4416,-5.4416,-5.4416,-5.4416,-5.4416,-5.4416,-5.4416,-5.4416,-5.4416,-5.4416,-5.4416,-5.4416,-5.4416,-5.4416,-5.4416,-5.4416,-5.4252,-5.2536,-5.0653,-4.8784,-4.7061,-4.5178,-4.3499,-4.3499,-4.3499,-4.3499,-4.3499,-4.3303,-4.2748,0.0,0.0,0.0,0.0,0.0,0.0,0.0,0.0,0.0,0.0,0.0,0.0,0.0,-6.0736,-6.0567,-6.0108,-5.9499,0.0,0.0,0.0,0.0,-5.7306,-5.6654,-5.6191,-5.5948,-5.5538,-5.5145,-5.4855,-5.5351,-5.555,-5.5451,-5.5538,-5.5735,-5.5933,-5.5933,-5.5323,-5.4259,-5.4259,-5.3483,-5.2342,-5.3382,-5.34,-5.2691,-5.1556,-5.1371,-5.1571,-4.927,-4.8507,-4.8507,-4.8507,-4.805,-4.7497,-4.7497,-4.7497,-4.7497,0.0,0.0,0.0,0.0,0.0,0.0,0.0,0.0,0.0,0.0,0.0,0.0,0.0,0.0,0.0,0.0,0.0,0.0,0.0,-5.1431,-5.1592,-5.2097,-5.2189,-5.2441,-5.3107,-5.3475,-5.375,-5.3934,-5.4232,-5.4416,-5.4416,-5.4416,-5.4416,-5.4416,-5.4416,-5.4416,-5.4416,-5.4416,-5.4416,-5.4416,-5.4416,-5.4416,-5.4416,-5.4416,-5.4416,-5.4416,-5.4416,-5.4416,-5.4252,-5.2536,-5.0653,-4.8955,-4.8249,-4.6211,-4.3499,-4.3499,-4.3499,-4.3499,-4.3499,-4.3124,-4.2748,0.0,0.0,0.0,0.0,0.0,0.0,0.0,0.0,-6.1689,-6.092,0.0,0.0,0.0,0.0,-5.9499,-5.9177,-5.8272,-5.7746,-5.7746,-5.7115,-5.6664,-5.6342,-5.6031,-5.5651,-5.5448,-5.5041,-5.474,-5.4633,-5.4934,-5.5027,-5.4906,-5.5299,-5.5261,-5.488,-5.488,-5.4378,-5.351,-5.351,-5.2508,-5.102,-5.2413,-5.2557,-5.1951,-5.1209,-5.1321,-5.1513,-4.9734,-4.9084,-4.9133,-4.9493,-4.9157,-4.8507,-4.8147,-4.7786,-4.7497,-4.7497,0.0,0.0,0.0,0.0,0.0,0.0,0.0,0.0,0.0,0.0,0.0,0.0,0.0,0.0,0.0,0.0,0.0,0.0,0.0,-5.1546,-5.1867,-5.1913,-5.2097,-5.2602,-5.2969,-5.3314,-5.3658,-5.398,-5.4232,-5.4393,-5.4416,-5.4416,-5.4416,-5.4416,-5.4416,-5.4416,-5.4416,-5.4416,-5.4416,-5.4416,-5.4416,-5.4416,-5.4416,-5.4416,-5.4416,-5.4416,-5.4066,-5.3386,-5.2182,-5.0653,-4.8955,-4.8249,-4.6211,-4.3499,-4.3499,-4.3499,-4.3499,-4.3303,-4.2945,-4.2389,0.0,0.0,0.0,0.0,0.0,0.0,0.0,0.0,-5.987,-5.987,0.0,0.0,0.0,0.0,0.0,-5.8211,-5.7306,-5.6761,-5.6792,-5.6792,-5.6372,-5.5581,0.0,0.0,-5.5171,-5.438,-5.4553,-5.576,-5.4431,-5.4344,-5.5496,-5.5496,-5.4762,-5.351,-5.351,-5.3362,-5.3362,-5.3362,-5.1891,-4.9561,-5.1815,-5.1911,-5.0696,-5.0744,-5.0768,-5.0648,-4.9565,-4.9181,-4.9325,-5.0407,-5.072,-5.0455,-4.9373,-4.8339,-4.7497,-4.7497,-4.7497,0.0,0.0,0.0,0.0,0.0,0.0,0.0,0.0,0.0,0.0,0.0,0.0,0.0,0.0,0.0,0.0,0.0,0.0,0.0,-5.1431,-5.1431,-5.1615,-5.2097,-5.2166,-5.2556,-5.3566,-5.3658,-5.3865,-5.4347,-5.4393,-5.4393,-5.4416,-5.4416,-5.4416,-5.4416,-5.4416,-5.4416,-5.4416,-5.4416,-5.4416,-5.4416,-5.4416,-5.4416,-5.4252,-5.4252,-5.3386,-5.1682,-5.1514,-5.0484,-4.8784,-4.6868,-4.5178,-4.3499,-4.3499,-4.3499,-4.3481,-4.2945,-4.2389,-4.1849,0.0,0.0,0.0,0.0,0.0,-6.0703,-6.0279,-5.9989,-5.9642,0.0,0.0,0.0,-5.7653,-5.7559,-5.7464,-5.7211,-5.6342,-5.6031,-5.6516,-5.5939,-5.5708,-5.5975,-5.5547,-5.5205,-5.5018,-5.4597,-5.4573,-5.4912,-5.4965,-5.5159,-5.5496,-5.4497,-5.3872,-5.351,-5.2508,-5.1492,-5.0638,-5.0638,-4.9618,-4.8196,-5.036,-5.0954,-5.0792,-5.1562,-5.2307,-5.2812,-5.1778,-5.1393,-5.1441,-5.1754,-5.0816,-4.9349,-4.8267,-4.7738,-4.7497,-4.7497,-4.7497,-4.7497,-4.7497,0.0,0.0,0.0,0.0,0.0,0.0,0.0,0.0,0.0,0.0,0.0,0.0,0.0,0.0,0.0,0.0,0.0,0.0,-5.1431,-5.1477,-5.1615,-5.1959,-5.2281,-5.2579,-5.2901,-5.3337,0.0,-5.3888,-5.4049,-5.4393,-5.4416,-5.4416,-5.4416,-5.4416,-5.4416,-5.4416,-5.4416,-5.4416,-5.4416,-5.4416,-5.3715,-5.2536,-5.2536,-5.1514,-4.9637,-4.8249,-4.7408,-4.6908,-4.6366,-4.5178,-4.3499,-4.3499,-4.3303,-4.2945,-4.2927,-4.2209,-4.1506,0.0,0.0,0.0,0.0,0.0,-5.9642,-5.8998,-5.8696,-5.8332,0.0,0.0,0.0,-5.6213,-5.6385,-5.6567,-5.6567,-5.6029,-5.5871,-5.6258,-5.587,-5.5624,-5.5575,-5.5401,-5.5131,-5.4797,-5.4629,-5.4709,-5.4962,-5.5074,-5.5243,-5.5496,-5.4139,-5.3241,-5.2631,-5.1242,-4.9874,-4.8632,-4.8632,-4.8264,-4.769,-4.983,-5.0696,-5.0816,-5.1874,-5.2497,-5.278,-5.2499,-5.2113,-5.2038,-5.2764,-5.1513,-4.9638,-4.9036,-4.8219,-4.7497,-4.7497,-4.7497,-4.7497,-4.7497,-4.7497,-4.7497,0.0,0.0,0.0,-4.8731,-4.9251,-4.981,0.0,0.0,0.0,0.0,0.0,0.0,0.0,0.0,0.0,0.0,0.0,-5.1431,-5.1431,-5.1684,-5.1936,-5.2166,-5.2441,-5.2809,-5.3314,-5.336,-5.3589,-5.4094,-5.4301,-5.4416,-5.4416,-5.4416,-5.4416,-5.4416,-5.4416,-5.4416,-5.4416,-5.4416,-5.3386,-5.1682,-5.1682,-5.0315,-4.7733,-4.6714,-4.5705,-4.504,-4.5021,-4.451,-4.3499,-4.3499,-4.3124,-4.2748,-4.2568,-4.2047,-4.1325,0.0,0.0,0.0,-5.8786,-5.8696,-5.8303,-5.7016,-5.6757,-5.6787,0.0,-5.6061,-5.5466,-5.5306,-5.576,-5.6113,-5.6113,-5.6006,-5.6035,-5.6094,-5.5987,-5.5612,-5.5041,-5.5476,-5.5452,-5.4681,-5.4681,-5.4962,-5.5496,-5.4818,-5.473,-5.5261,-5.3752,-5.2385,-5.1242,-4.9874,0.0,-4.7497,-4.7497,-4.7569,-4.7858,-4.9878,-5.0696,-5.084,-5.2018,-5.2134,-5.1816,-5.2281,-5.2134,-5.1935,-5.3216,-5.2403,-5.084,-5.06,-4.9301,-4.781,-4.7569,-4.7593,-4.7642,-4.7521,-4.7497,-4.7497,-4.7497,-4.7497,0.0,-4.9062,-4.9345,-4.9623,-5.0816,0.0,0.0,0.0,0.0,0.0,0.0,0.0,0.0,0.0,0.0,-5.1431,-5.1431,-5.1431,-5.1592,-5.2051,-5.2097,-5.2304,-5.2786,-5.2855,-5.313,-5.3658,-5.4094,-5.4347,-5.4416,-5.4416,-5.4416,-5.4416,-5.4416,-5.4416,-5.4416,-5.4252,-5.3221,-5.1325,-5.1157,-4.9105,-4.5861,-4.5881,-4.504,-4.3499,-4.3499,-4.3499,-4.3499,-4.3481,-4.3124,-4.2568,-4.2029,-4.1669,-4.1145,0.0,0.0,-5.784,-5.7746,-5.7746,-5.7651,-5.7181,-5.6807,-5.6414,-5.6303,-5.6048,-5.6001,-5.5907,-5.6025,-5.6113,-5.6113,-5.5467,-5.5372,-5.5892,-5.528,-5.5055,-5.5334,-5.5475,-5.5444,-5.5327,-5.5327,-5.5383,-5.5496,-5.4268,-5.3763,-5.3872,-5.1367,-5.013,-4.9874,-4.8502,-4.7762,-4.7497,-4.7497,0.0,-4.8892,-5.0191,-5.0696,-5.0912,-5.2369,-5.2934,-5.291,-5.2934,-5.2934,-5.2838,-5.2641,-5.2307,-5.1682,-4.995,-4.971,-4.9734,-4.8002,-4.8098,-4.8579,-4.7738,-4.7497,-4.7497,-4.7497,-4.7497,0.0,-4.7892,-4.7853,-4.8076,0.0,0.0,0.0,0.0,0.0,0.0,0.0,0.0,0.0,0.0,0.0,0.0,-5.1431,-5.1431,-5.1454,-5.1569,-5.1569,-5.1775,-5.2281,-5.2671,-5.313,-5.3658,-5.3773,-5.4003,-5.4393,-5.4416,-5.4416,-5.4416,-5.4416,-5.4416,-5.4416,-5.2868,-5.1347,-4.9467,-4.7905,-4.6036,-4.3997,-4.4015,-4.3837,-4.3499,-4.3499,-4.3499,-4.3499,-4.3124,-4.2568,-4.2029,-4.1669,-4.1145,-4.0765,0.0,0.0,-5.7389,-5.7259,-5.7159,-5.7081,-5.6702,-5.6452,-5.6153,-5.6054,-5.5946,-5.5852,-5.5411,-5.5587,-5.576,-5.576,-5.5451,-5.5367,-5.568,-5.5249,-5.5187,-5.5496,-5.5496,-5.5496,-5.5496,-5.488,-5.4497,-5.4497,-5.312,-5.2508,-5.2508,-5.0511,-4.9361,-4.9257,-4.8002,-4.7364,-4.7232,0.0,-4.8098,-4.9181,-5.0263,0.0,-5.1369,-5.2648,-5.2939,-5.2635,-5.2764,-5.3068,-5.3148,-5.3072,-5.2355,-5.1393,-5.084,-5.0311,-4.9686,-4.8603,-4.8652,-4.8844,-4.7786,-4.7497,-4.7497,-4.7497,-4.7497,0.0,0.0,-4.8021,-4.8195,0.0,0.0,0.0,0.0,0.0,0.0,0.0,0.0,0.0,0.0,0.0,0.0,0.0,-5.1431,-5.1431,-5.1431,-5.1431,-5.1523,-5.1775,-5.2258,-5.2648,-5.2924,-5.3153,-5.352,-5.4049,-5.4049,-5.4163,-5.4416,-5.4416,-5.3902,-5.3033,-5.2182,-5.0294,-4.756,-4.6714,-4.5178,-4.3499,-4.3499,-4.3499,-4.3499,-4.3499,-4.3303,-4.3124,-4.2927,-4.2389,-4.1687,-4.1325,-4.0963,-4.0583,-5.857,0.0,0.0,0.0,-5.672,-5.6568,-5.6153,-5.6075,-5.6025,-5.6034,-5.5839,-5.5509,-5.488,-5.544,-5.5861,-5.5861,-5.6086,-5.6114,-5.5889,-5.5861,-5.5749,-5.5524,-5.5496,-5.5496,-5.5496,-5.4259,-5.351,-5.351,-5.1865,-5.1116,-5.1116,-4.9746,-4.8998,-4.8608,-4.7955,-4.7423,-4.7122,0.0,0.0,-4.9331,0.0,-5.1034,-5.1939,-5.2838,-5.2612,-5.2154,-5.2459,-5.2764,-5.3044,-5.3282,-5.2233,-5.0938,-5.1513,-5.0768,-4.9565,-4.8964,-4.906,-4.9109,-4.7858,-4.7497,-4.7497,-4.7497,-4.7497,-4.758,0.0,0.0,0.0,0.0,0.0,0.0,0.0,0.0,0.0,0.0,0.0,0.0,0.0,0.0,0.0,0.0,-5.1179,-5.1339,-5.1156,-5.1133,-5.1224,-5.1408,-5.1615,-5.1867,-5.2166,-5.2533,-5.2992,-5.352,-5.3635,-5.3888,-5.4278,-5.402,-5.3221,-5.1682,-5.0989,-4.9105,-4.6191,-4.5861,-4.4845,-4.3499,-4.3499,-4.3499,-4.3499,-4.3303,-4.3124,-4.2568,-4.2568,-4.2029,-4.1325,-4.1145,-4.0946,-4.0583,-5.664,-5.6297,0.0,0.0,0.0,0.0,-5.5892,-5.5868,-5.5762,-5.5534,-5.5588,-5.55,-5.5412,-5.6451,-5.7182,-5.7182,-5.8165,-5.8334,-5.7238,-5.7182,-5.6676,-5.5552,-5.5496,-5.5496,-5.5496,-5.4259,-5.351,-5.351,-5.1016,-4.9746,-4.9746,-4.8371,-4.7762,-4.7654,-4.8212,-4.7981,0.0,0.0,-4.8962,0.0,-5.0056,-5.1034,0.0,-5.2514,-5.2612,-5.2459,-5.2154,-5.2307,-5.2599,-5.1977,-5.1649,-5.1295,-4.9859,-5.0576,-5.1369,-4.8507,0.0,0.0,-4.805,-4.7497,-4.7497,-4.7497,-4.7497,-4.7521,-4.7666,0.0,-4.758,-4.7298,0.0,0.0,0.0,0.0,0.0,0.0,0.0,0.0,0.0,0.0,0.0,0.0,-5.0329,-5.1064,-5.0168,-5.0076,-5.0467,-5.1362,-5.065,-5.0765,-5.2097,-5.2235,-5.2487,-5.2969,-5.3452,-5.3727,-5.3773,-5.2667,-5.1849,-5.1682,-4.8421,-4.654,-4.6191,-4.451,-4.3659,-4.3499,-4.3499,-4.3499,-4.3499,-4.3124,-4.2568,-4.2029,-4.2029,-4.1849,-4.1325,-4.0765,-4.0583,-4.0583,-5.6961,-5.6461,0.0,0.0,0.0,0.0,0.0,0.0,-5.565,-5.5468,-5.5496,-5.5496,-5.5496,-5.5973,-5.6592,-5.7322,-5.7856,-5.794,-5.7407,-5.7378,-5.6816,-5.5552,-5.4734,-5.4378,-5.4378,-5.2236,-5.1116,-5.1116,-4.9257,-4.8371,-4.8396,-4.7738,-4.7364,-4.7279,-4.8083,0.0,-4.7756,0.0,-4.9153,0.0,0.0,0.0,0.0,-5.2212,-5.2154,-5.187,-5.2024,-5.2154,-5.2236,-5.2245,-5.1597,-5.0793,0.0,0.0,0.0,-4.9264,0.0,0.0,0.0,0.0,-4.8021,-4.7666,-4.782,-4.7997,-4.7642,-4.7497,-4.7497,-4.7364,0.0,0.0,0.0,0.0,0.0,0.0,-4.6335,0.0,0.0,0.0,0.0,0.0,0.0,0.0,-4.9893,-4.9916,-5.0329,-5.1339,-5.049,-5.0444,-5.1684,-5.1753,-5.1959,-5.2464,-5.2694,-5.2446,-5.1729,-5.1378,-5.0246,-4.8202,-4.6769,-4.5686,-4.4687,-4.3837,-4.3499,-4.3499,-4.3124,-4.3124,-4.3124,-4.2568,-4.2029,-4.1669,-4.1669,-4.1308,-4.0946,-4.0583,-4.0583,-4.0583,-5.6878,0.0,0.0,0.0,0.0,0.0,0.0,-5.5496,-5.5496,-5.5496,-5.5496,-5.5496,-5.5496,-5.6114,-5.6901,-5.78,-5.8502,-5.8615,-5.794,-5.7884,-5.7201,-5.5436,-5.4183,-5.3525,-5.3359,-5.0792,-4.9515,-4.9515,-4.8133,-4.7497,-4.7497,-4.7497,-4.7364,-4.7146,-4.8083,-4.8396,-4.8143,0.0,-4.9298,-5.0244,-5.0244,-5.0548,-5.1178,-5.1757,-5.1716,-5.1431,-5.1716,-5.187,-5.1824,-5.1979,-5.1178,-5.0312,-5.1389,-5.0693,-4.9626,0.0,0.0,0.0,-4.8021,-4.794,-4.8159,-4.7495,-4.7671,-4.8052,-4.7532,-4.7497,-4.7497,-4.7497,-4.7364,0.0,0.0,0.0,0.0,0.0,0.0,-4.615,0.0,0.0,0.0,0.0,0.0,0.0,0.0,-4.925,-4.9617,-5.0903,-5.0076,-5.0053,-5.1362,-5.1431,-5.1592,-5.1959,-5.2097,-5.1538,-5.0065,-5.0162,-4.8609,-4.5566,-4.5493,-4.4845,-4.3499,-4.3499,-4.3499,-4.3499,-4.2945,-4.2748,-4.2748,-4.2029,-4.1669,-4.1325,-4.1145,-4.0946,-4.0583,-4.0583,-4.0583,-4.0583,-5.5613,-5.5496,0.0,0.0,0.0,0.0,0.0,-5.5496,-5.5496,-5.5496,-5.5496,-5.5496,-5.5496,-5.7659,-5.9121,-5.9149,-6.1369,-6.1734,-5.9317,-5.9149,-5.7938,-5.5274,-5.4107,-5.3412,-5.3138,-5.0689,-4.9515,-4.9515,-4.8133,-4.7497,-4.7497,-4.7497,-4.7497,-4.7545,-4.8219,-4.8534,-4.8467,-4.9204,-4.9806,-5.0444,-5.0444,-5.0169,-5.0158,0.0,-5.1716,-5.1431,-5.1431,-5.1431,-5.127,-5.0735,-5.049,-5.0281,-4.981,-5.0261,0.0,0.0,0.0,0.0,-4.8474,-4.7934,-4.7722,-4.7226,-4.7012,-4.7146,-4.7364,-4.7497,-4.7497,-4.7497,-4.7497,-4.7232,-4.654,-4.6405,-4.5996,-4.4838,0.0,0.0,0.0,0.0,0.0,0.0,0.0,0.0,0.0,-4.7551,-4.7803,-4.9801,-4.902,-4.9319,-5.1316,-5.1431,-5.1431,-5.1454,-5.1913,-5.1357,-4.9723,-4.867,-4.7427,-4.5566,-4.4146,-4.3499,-4.3499,-4.3499,-4.3499,-4.3499,-4.2945,-4.2748,-4.2748,-4.1687,-4.1325,-4.1325,-4.0765,-4.0583,-4.0583,-4.0583,-4.0583,-4.0583,0.0,0.0,0.0,0.0,0.0,0.0,0.0,-5.5496,-5.5805,-5.6648,-5.676,-5.7069,-5.7884,-5.8699,-5.9542,-6.0385,-6.0263,-5.9883,-5.9192,-5.7451,-5.5982,-5.5203,-5.2371,-5.1152,-5.1758,-4.9438,-4.8133,-4.8133,-4.7762,-4.7497,-4.7497,-4.7497,-4.7497,-4.7545,-4.8219,-4.8799,0.0,0.0,0.0,0.0,0.0,-4.9591,-4.9939,0.0,-5.0572,-5.0513,-5.1179,-5.1431,-5.1362,-5.1171,-5.0769,-5.0387,-5.0735,-5.0452,-4.9975,-5.0033,-5.0039,-4.9908,-4.9203,-4.9221,-4.9171,-4.7886,-4.7981,-4.8122,-4.7298,-4.7098,-4.7098,-4.7098,-4.7098,-4.6965,-4.654,0.0,0.0,-4.5522,0.0,0.0,0.0,0.0,0.0,0.0,0.0,0.0,0.0,0.0,0.0,-4.9801,-4.9594,-4.9985,-5.1362,-5.1431,-5.1431,-5.1431,-5.1592,-5.021,-4.7441,-4.7215,-4.6025,-4.3496,-4.3227,-4.3224,-4.3499,-4.3499,-4.3303,-4.2945,-4.2568,-4.2029,-4.1687,-4.1127,-4.0765,-4.0765,-4.0583,-4.0583,-4.0583,-4.0583,-4.0583,-4.0583,-5.5496,0.0,0.0,-5.5496,-5.5496,-5.5496,-5.5496,-5.5496,-5.5945,-5.721,-5.7378,-5.7856,-5.9093,-5.9598,-5.9934,-6.0329,-6.0221,-5.949,-5.7843,-5.6793,-5.5683,-5.4287,-5.1969,-5.0955,-5.1506,-4.9315,-4.805,-4.805,-4.769,-4.7497,-4.7497,-4.7497,-4.7497,-4.7521,0.0,-4.8633,-4.9556,0.0,-4.9916,0.0,0.0,-4.8914,0.0,0.0,-4.9594,-5.0031,-5.1064,-5.1431,-5.1431,-5.1431,-5.1125,-5.0862,-5.1224,-5.0839,-5.0188,-5.0689,-5.0434,-5.0126,-4.9777,-5.0002,-4.9947,-4.8518,-4.8611,-4.8658,-4.7506,-4.7241,-4.7282,-4.6902,-4.6831,-4.6697,-4.6271,-4.6025,0.0,0.0,0.0,0.0,0.0,-4.537,0.0,0.0,0.0,0.0,0.0,0.0,-4.7895,-4.9273,-4.9365,-4.9824,0.0,-5.1224,-5.1431,-5.1431,-5.0766,-4.9157,-4.6223,-4.6004,-4.4582,-4.2069,-4.2601,-4.3004,-4.3279,-4.3426,-4.3303,-4.2748,-4.2209,-4.1669,-4.1325,-4.0765,-4.0583,-4.0583,-4.0583,-4.0583,-4.0583,-4.0583,-4.0583,-4.0583,0.0,0.0,-5.5496,-5.5496,-5.5496,-5.5496,-5.5496,-5.5496,-5.5973,-5.7294,-5.7463,-5.7969,-5.9261,-6.0469,-6.0626,-5.907,-6.1259,-6.0501,-5.5284,-5.7251,-5.6847,-5.298,-5.2604,-5.2544,-5.2259,-5.0191,-4.9084,-4.9084,-4.8026,-4.7497,-4.7497,-4.7497,-4.7497,-4.7497,-4.7497,0.0,-4.9485,-4.9485,-5.0196,-5.111,-4.9181,-4.84,-4.84,-4.8446,-4.9066,-5.0031,-5.1064,-5.1431,-5.1431,-5.1431,-5.1431,-5.1431,-5.1431,-5.1431,-5.1431,-5.1431,-5.1431,-5.1224,-5.0237,-4.9985,-4.9881,-4.9136,-4.8882,-4.8747,-4.8146,-4.7912,-4.7631,-4.6758,-4.657,-4.6412,-4.5959,-4.5959,0.0,0.0,0.0,0.0,0.0,0.0,0.0,0.0,0.0,0.0,0.0,-4.5967,-4.6265,-4.824,-4.84,0.0,0.0,-5.0857,-5.1385,-5.1431,-4.9629,-4.8006,-4.6223,-4.4852,-4.327,-4.1702,-4.2454,-4.2821,-4.2876,-4.3279,-4.3284,-4.2748,-4.2209,-4.1669,-4.1145,-4.0765,-4.0583,-4.0583,-4.0583,-4.0583,-4.0583,-4.0583,-4.0583,-4.0583,-5.5496,-5.5496,-5.5496,-5.5496,-5.5496,-5.5496,-5.5496,-5.5496,-5.6283,0.0,-5.8755,-5.957,-6.1734,-6.2268,-6.188,-6.0321,-6.0729,-5.9697,-5.6275,-5.577,-5.5153,-5.3944,-5.2214,-5.1604,-5.2259,-5.0191,-4.9084,-4.9084,-4.8026,-4.7497,-4.7497,0.0,-4.7497,0.0,0.0,0.0,-4.838,-4.838,-4.8705,-4.9135,-4.8607,-4.84,-4.8469,-4.9227,-4.9686,-5.0031,-5.1064,-5.1431,-5.1431,-5.1431,-5.1431,-5.1431,-5.1431,-5.1431,-5.1431,-5.1431,-5.1431,-5.1362,-5.111,-5.1041,-5.0788,-4.9927,-4.9674,-4.9545,-4.8794,-4.8705,-4.8635,-4.8355,-4.845,-4.8216,-4.6889,-4.6889,-4.6634,0.0,0.0,0.0,0.0,0.0,0.0,-4.537,0.0,0.0,0.0,-4.6196,-4.7023,-4.8286,-4.84,0.0,0.0,0.0,-5.065,-5.1408,-4.9629,-4.8006,-4.6223,-4.4554,-4.2983,-4.1684,-4.1886,-4.2307,-4.2876,-4.2986,-4.2833,-4.2209,-4.2029,-4.1489,-4.0765,-4.0583,-4.0583,-4.0583,-4.0583,-4.0583,-4.0583,-4.0583,-4.0583,-4.0583,-5.5496,0.0,0.0,-5.5496,-5.5973,-5.6339,-5.6339,-5.5861,-5.6395,-5.8896,-5.9205,-5.9964,-6.1931,-6.2019,-6.1356,-5.9793,-5.9627,-5.8149,-5.4935,-5.503,-5.4677,-5.3537,-5.255,-5.2355,-5.2932,-5.1154,-5.0098,-4.9782,-4.8588,-4.782,-4.7497,0.0,0.0,0.0,0.0,-4.7694,0.0,-4.8803,-4.8696,-4.8423,-4.8882,-4.9066,0.0,-4.9686,-5.0191,-5.065,-5.1224,-5.1431,-5.1431,-5.1431,-5.1431,-5.1431,-5.1431,-5.1431,-5.1431,-5.1431,-5.1431,-5.1431,-5.1431,-5.1431,-5.1293,-5.0719,-5.0582,-5.0306,-4.9568,-4.9337,-4.9222,-4.876,-4.8812,-4.865,-4.7786,-4.7302,-4.682,0.0,0.0,0.0,0.0,0.0,0.0,0.0,-4.537,0.0,0.0,-4.5875,-4.6632,-4.7666,-4.7734,0.0,0.0,0.0,-4.9367,-5.0742,-4.7718,-4.6149,-4.6223,-4.3425,-4.1786,-4.1409,-4.1421,-4.175,-4.2362,-4.236,-4.2101,-4.1781,-4.1779,-4.1308,-4.0583,-4.0583,-4.0583,-4.0583,-4.0583,-4.0583,-4.0583,-4.0583,-4.0583,-4.0402,0.0,0.0,0.0,0.0,0.0,-5.7435,-5.7603,-5.6704,-5.6816,-5.9149,-5.9332,-5.9654,-6.0914,-6.059,-5.9766,-5.8224,-5.8224,-5.6698,-5.2816,-5.4744,-5.4989,-5.267,-5.3341,-5.3672,-5.3672,-5.2321,-5.1272,-5.0554,-4.9197,-4.8148,0.0,0.0,0.0,0.0,0.0,0.0,0.0,-4.9474,-4.936,-4.8469,-4.9502,-4.9916,-4.9916,-5.0053,-5.065,-5.1431,-5.1431,-5.1431,-5.1431,-5.1431,-5.1431,-5.1431,-5.1431,-5.1431,-5.1431,-5.1431,-5.1431,-5.1431,-5.1431,-5.1431,-5.1431,-5.1431,-5.1431,-5.1201,-5.0306,-5.0122,-4.9847,-4.8974,-4.8791,-4.8745,-4.8607,-4.7643,0.0,0.0,0.0,0.0,0.0,0.0,0.0,0.0,0.0,0.0,0.0,0.0,0.0,0.0,0.0,0.0,0.0,0.0,-4.7771,-4.9322,-4.4886,-4.3619,-4.5715,-4.1895,-4.0308,-4.0914,-4.0862,-4.1097,-4.1531,-4.1334,-4.1356,-4.1302,-4.1279,-4.0912,-4.0583,-4.0583,-4.0583,-4.0583,-4.0583,-4.0583,-4.0583,-4.0583,-4.0583,-4.0402,0.0,0.0,0.0,0.0,0.0,-5.7744,-5.8727,-5.8699,-5.9093,-6.0582,-5.9662,-5.9285,-6.0619,-5.952,-5.8224,-5.6674,-5.7681,0.0,0.0,0.0,0.0,-5.3558,-5.3425,-5.337,-5.337,-5.1899,-5.0859,-5.0246,-4.9057,-4.8148,-4.7497,0.0,0.0,0.0,0.0,0.0,-4.8004,-4.7677,0.0,-4.8469,-4.9502,-4.9916,-5.0008,-5.0834,-5.127,-5.1431,-5.1431,-5.1431,-5.1431,-5.1431,-5.1431,-5.1431,-5.1431,-5.1431,-5.1431,-5.1431,-5.1431,-5.1431,-5.1431,-5.1431,-5.1431,-5.1431,-5.1431,-5.1385,-5.1201,-5.1156,-5.111,-5.0926,-5.088,-5.0627,-4.9801,-4.8125,-4.6816,0.0,-4.6609,-4.6908,-4.7734,0.0,0.0,0.0,0.0,-4.6288,0.0,0.0,0.0,0.0,0.0,0.0,0.0,0.0,-4.6289,0.0,-4.4541,-4.3307,-4.304,-4.1211,-4.0083,-3.9576,-3.9796,-4.0126,-4.0618,-4.0589,-4.0649,-4.0733,-4.0803,-4.0652,-4.0583,-4.0583,-4.0583,-4.0583,-4.0583,-4.0583,-4.0583,-4.0583,-4.0583,-4.0402,0.0,0.0,0.0,0.0,0.0,0.0,0.0,-6.0722,-6.1116,-6.1116,-5.9704,-5.9073,-5.9643,-5.8865,-5.7798,-5.6264,-5.6819,-5.6239,-5.3972,-5.4546,-5.4546,-5.3822,-5.337,-5.3243,-5.3243,-5.2118,-5.1107,-5.0104,-4.9322,-4.8534,-4.7497,-4.7497,0.0,0.0,0.0,-4.7922,0.0,0.0,-4.8868,-4.9273,-5.0283,-5.0696,-5.0742,-5.1247,-5.1431,-5.1431,-5.1431,-5.1431,-5.1431,-5.1431,-5.1431,-5.1431,-5.1431,-5.1431,-5.1431,-5.1431,-5.1431,-5.1431,-5.1431,-5.1431,-5.1431,-5.1431,-5.1431,-5.1431,-5.1431,-5.1431,-5.1431,-5.1431,-5.1431,-5.111,-5.0099,-4.8676,-4.7666,-4.7666,-4.7229,-4.7229,-4.824,0.0,-4.8217,0.0,0.0,0.0,0.0,0.0,0.0,0.0,0.0,0.0,0.0,0.0,-4.4747,0.0,0.0,0.0,-4.3008,-4.0915,-3.979,-3.9826,-3.9529,-3.9625,-3.9972,-3.9668,-3.9792,-4.0158,-4.0173,-4.0129,-4.031,-4.0498,-4.0583,-4.0583,-4.0583,-4.0583,-4.0583,-4.0583,-4.0583,-4.0203,0.0,-5.5693,0.0,0.0,-5.8587,-5.9654,-6.0919,-6.2127,-6.2577,-6.1621,-6.0089,-5.9236,-5.9236,-5.8679,-5.7798,-5.6264,-5.6118,-5.541,-5.3972,-5.3822,-5.3822,-5.3672,-5.3219,-5.3068,-5.2939,-5.2177,-5.1268,-5.0149,-4.965,-4.8825,-4.7532,0.0,0.0,0.0,0.0,0.0,0.0,-4.9646,-5.033,-5.0306,-5.111,-5.1431,-5.1431,-5.1431,-5.1431,-5.1431,-5.1431,-5.1431,-5.1431,-5.1431,-5.1431,-5.1431,-5.1431,-5.1431,-5.1431,-5.1431,-5.1431,-5.1431,-5.1431,-5.1431,-5.1431,-5.1431,-5.1431,-5.1431,-5.1431,-5.1431,-5.1431,-5.1431,-5.1431,-5.111,-5.0099,-4.925,-4.8653,-4.8423,-4.7895,-4.7803,-4.8607,0.0,0.0,0.0,0.0,0.0,-4.7206,0.0,0.0,0.0,0.0,0.0,-4.4155,0.0,0.0,0.0,-4.1399,-4.0997,-4.2433,-4.0382,-3.9515,-3.9813,-3.9125,-3.9025,-3.9366,-3.8994,-3.901,-3.9444,-3.9389,-3.9607,-4.0053,-4.0344,-4.0515,-4.0583,-4.0583,-4.0583,-4.0583,-4.0583,-4.0583,-4.0021,0.0,0.0,0.0,0.0,0.0,-5.9654,-6.0919,-6.2127,-6.2886,-6.2773,-6.1326,-6.0457,-6.0457,-5.9156,-5.7798,-5.6264,-5.6118,-5.541,-5.3972,-5.3822,-5.3672,-5.3219,-5.2916,-5.2459,-5.2154,-5.1716,-5.1033,-5.0351,-4.9712,-4.8874,-4.7678,-4.7604,0.0,0.0,0.0,-4.8469,-5.0063,-4.9973,-5.0444,-5.1293,-5.1385,-5.1431,-5.1431,-5.1431,-5.1431,-5.1431,-5.1431,-5.1431,-5.1431,-5.1431,-5.1431,-5.1431,-5.1431,-5.1431,-5.1431,-5.1431,-5.1431,-5.1431,-5.1431,-5.1431,-5.1431,-5.1431,-5.1431,-5.1431,-5.1431,-5.1431,-5.1431,-5.1431,-5.1431,-5.111,-5.0099,-4.9824,-4.9457,-4.8538,-4.9089,-4.9663,-4.9755,0.0,-5.0788,-4.987,0.0,0.0,0.0,-4.6495,0.0,0.0,-4.5243,0.0,0.0,0.0,0.0,-4.0447,-4.1418,-4.0754,-3.854,-3.9241,-3.9095,-3.7996,-3.8168,-3.8323,-3.8494,-3.8375,-3.858,-3.8922,-3.8957,-3.9368,-4.0036,-4.007,-4.0275,-4.0583,-4.0583,-4.0583,-4.0583,-4.0583,-4.0583,-4.022,0.0,0.0,0.0,0.0,0.0,0.0,-6.2015,-6.2605,-6.2942,-6.2942,-6.1491,-6.062,-6.062,-6.007,-5.8789,-5.6264,-5.6963,-5.6384,-5.3972,-5.4248,-5.4122,-5.3243,-5.3219,-5.2916,-5.2,-5.1562,-5.1079,-5.0341,-5.0579,-4.9859,-4.8225,-4.8913,-4.9101,-4.8803,-4.898,-4.9577,-5.0089,-5.0559,-5.1064,-5.1431,-5.1431,-5.1431,-5.1431,-5.1431,-5.1431,-5.1431,-5.1431,-5.1431,-5.1431,-5.1431,-5.1431,-5.1431,-5.1431,-5.1431,-5.1431,-5.1431,-5.1431,-5.1431,-5.1431,-5.1431,-5.1431,-5.1431,-5.1431,-5.1431,-5.1431,-5.1431,-5.1431,-5.1431,-5.1431,-5.1293,-5.088,-5.0329,-4.9985,-5.0168,-5.0031,-5.0122,-5.0742,0.0,0.0,-5.0031,0.0,-4.84,0.0,0.0,0.0,0.0,0.0,0.0,0.0,0.0,0.0,-3.9277,0.0,-4.0326,-3.8725,-3.9157,-3.9038,-3.8572,-3.8357,-3.8323,-3.8323,-3.8323,-3.8409,-3.858,-3.882,-3.9094,-3.9385,-3.9607,-3.9916,-4.0258,-4.0258,-4.0395,-4.0583,-4.0583,-4.0583,-4.0402,-5.9711,-5.9458,-5.9711,-6.134,-6.134,-6.1509,-6.2745,-6.2942,-6.2942,-6.2942,-6.1923,-6.1328,-6.1328,-6.1328,-6.0208,-5.7681,-5.8366,-5.794,-5.5385,-5.5557,-5.5115,-5.3798,-5.3798,0.0,-5.187,-5.1585,-5.1217,-5.0654,-5.1031,-5.034,-4.8803,-4.9559,-4.9623,-4.9445,-5.0017,-5.0227,-5.0398,-5.1133,-5.1431,-5.1431,-5.1431,-5.1431,-5.1431,-5.1431,-5.1431,-5.1431,-5.1431,-5.1431,-5.1431,-5.1431,-5.1431,-5.1431,-5.1431,-5.1431,-5.1431,-5.1431,-5.1431,-5.1431,-5.1431,-5.1431,-5.1431,-5.1431,-5.1431,-5.1431,-5.1431,-5.1431,-5.1431,-5.1431,-5.1431,-5.1431,-5.1431,-5.0834,-5.049,-5.0903,-5.0627,-5.0513,-5.0926,-5.1247,0.0,-5.0031,-4.902,-4.8515,-4.8814,-4.6553,0.0,0.0,0.0,0.0,0.0,-4.2403,-4.1347,-3.8828,-4.0107,-4.0086,-3.8866,-3.8979,-3.8854,-3.8854,-3.8512,-3.8323,-3.8323,-3.8323,-3.8323,-3.834,-3.8631,-3.8803,-3.894,-3.9196,-3.9522,-3.9864,-3.9864,-4.0036,-4.0258,-4.0258,-4.0327,-4.0429,-6.0835,-6.0076,-5.9992,-6.2464,-6.1902,-6.1509,-6.2745,-6.2942,-6.2942,-6.2942,-6.2914,-6.2914,-6.2914,-6.2914,-6.222,-6.062,-6.062,-5.9931,-5.8507,-5.7707,-5.6555,0.0,-5.4223,-5.3068,-5.1431,-5.1431,-5.1431,-5.1408,-5.0677,-5.0063,-4.953,-4.8655,-4.9003,-5.0318,-5.0042,-5.0467,-5.1408,-5.1408,-5.1431,-5.1431,-5.1431,-5.1431,-5.1431,-5.1431,-5.1431,-5.1431,-5.1431,-5.1431,-5.1431,-5.1431,-5.1431,-5.1431,-5.1431,-5.1431,-5.1431,-5.1431,-5.1431,-5.1431,-5.1431,-5.1431,-5.1431,-5.1431,-5.1431,-5.1431,-5.1431,-5.1431,-5.1431,-5.1431,-5.1431,-5.1431,-5.1431,-5.1408,-5.1087,-5.0099,-5.0765,-5.1064,-5.0076,-5.0788,0.0,-5.0031,-4.902,-4.8791,-4.9801,-4.6535,0.0,0.0,0.0,0.0,0.0,-4.1693,-4.0401,-3.9158,-4.0628,-4.0303,-3.7874,-3.8641,-3.8854,-3.8323,-3.8323,-3.8323,-3.8323,-3.8323,-3.8323,-3.8323,-3.834,-3.8563,-3.8922,-3.8922,-3.9145,-3.947,-3.947,-3.947,-3.9488,-3.9488,-3.971,-4.0036,-6.2268,-6.2015,-6.1987,-6.2802,-6.2605,-6.2492,-6.2858,-6.2942,-6.2942,-6.2942,-6.2942,-6.2942,-6.2942,-6.2942,-6.222,0.0,-6.062,-5.9931,-5.8507,-5.7395,-5.6264,-5.4893,-5.39,-5.2764,-5.1431,-5.1431,-5.1431,-5.1431,-5.1679,-5.1629,-5.1462,-5.0326,-5.01,-5.1102,-5.0949,-5.1133,-5.1431,-5.1431,-5.1431,-5.1431,-5.1431,-5.1431,-5.1431,-5.1431,-5.1431,-5.1431,-5.1431,-5.1431,-5.1431,-5.1431,-5.1431,-5.1431,-5.1431,-5.1431,-5.1431,-5.1431,-5.1431,-5.1431,-5.1431,-5.1431,-5.1431,-5.1431,-5.1431,-5.1431,-5.1431,-5.1431,-5.1431,-5.1431,-5.1431,-5.1431,-5.1431,-5.1431,-5.1316,-5.0995,-5.1224,-5.1316,-5.0995,0.0,-5.0008,-4.8997,-4.7987,-4.7303,-4.7076,-4.5406,0.0,0.0,0.0,0.0,0.0,-4.1483,-4.0405,-3.8383,-3.9264,-3.9217,-3.7874,-3.8303,-3.8512,-3.8323,-3.8323,-3.8323,-3.8323,-3.8323,-3.8323,-3.8323,-3.8323,-3.8409,-3.8512,-3.8512,-3.8734,-3.9094,-3.9094,-3.9248,-3.947,-3.947,-3.9539,-3.9642,-6.3251,-6.3083,-6.2942,-6.2942,-6.2942,-6.2942,-6.2942,-6.2942,-6.2942,-6.2942,-6.2942,-6.2942,-6.2942,-6.2942,-6.2487,-6.1491,-6.1193,-6.0647,-5.9793,-5.8108,-5.6529,-5.5336,-5.39,-5.2588,-5.1431,-5.1431,-5.1431,-5.1431,-5.1779,-5.2024,-5.2024,-5.1198,-5.0964,-5.1431,-5.1431,-5.1431,-5.1431,-5.1431,-5.1431,-5.1431,-5.1431,-5.1431,-5.1431,-5.1431,-5.1431,-5.1431,-5.1431,-5.1431,-5.1431,-5.1431,-5.1431,-5.1431,-5.1431,-5.1431,-5.1431,-5.1431,-5.1431,-5.1431,-5.1431,-5.1431,-5.1431,-5.1431,-5.1431,-5.1431,-5.1431,-5.1431,-5.1431,-5.1431,-5.1431,-5.1431,-5.1431,-5.1431,-5.1431,-5.1431,-5.1431,-5.1293,-5.0903,-5.0306,-4.9525,0.0,-4.7227,-4.648,-4.6395,-4.457,-4.3532,0.0,0.0,0.0,-4.0613,-4.0377,-3.9571,-3.8398,-3.8856,-3.8628,-3.7975,-3.8271,-3.8323,-3.8323,-3.8323,-3.8323,-3.8323,-3.8323,-3.8323,-3.8323,-3.8323,-3.8323,-3.8323,-3.8323,-3.8477,-3.87,-3.87,-3.8837,-3.9042,-3.9042,-3.9128,-3.9265,-6.3785,-6.3335,-6.2942,-6.2942,-6.2942,-6.2942,-6.2942,-6.2942,-6.2942,-6.2942,-6.2942,-6.2942,-6.2942,-6.2942,-6.2942,-6.2781,-6.222,-6.1789,-6.1654,-5.9262,-5.7395,-5.6214,-5.4348,-5.2588,-5.1585,-5.1431,-5.1431,-5.1431,-5.1431,-5.1431,-5.1431,-5.1431,-5.1431,-5.1431,-5.1431,-5.1431,-5.1431,-5.1431,-5.1431,-5.1431,-5.1431,-5.1431,-5.1431,-5.1431,-5.1431,-5.1431,-5.1431,-5.1431,-5.1431,-5.1431,-5.1431,-5.1431,-5.1431,-5.1431,-5.1431,-5.1431,-5.1431,-5.1431,-5.1431,-5.1431,-5.1431,-5.1431,-5.1431,-5.1431,-5.1431,-5.1431,-5.1431,-5.1431,-5.1431,-5.1431,-5.1431,-5.1431,-5.1431,-5.1431,-5.1362,-5.0995,-5.0031,-4.9847,-4.9457,-4.8346,-4.6847,-4.6158,-4.6809,-4.4071,-4.2534,-4.3332,0.0,0.0,0.0,-3.8888,-3.8309,-3.899,-3.9025,-3.8683,-3.8323,-3.8323,-3.8323,-3.8323,-3.8323,-3.8323,-3.8323,-3.8323,-3.8323,-3.8323,-3.8323,-3.8323,-3.8323,-3.8323,-3.8152,-3.8152,-3.8323,-3.8152,-3.8152,-3.8323,-3.8563,-3.8871,-6.3785,-6.3335,-6.2942,-6.2942,-6.2942,-6.2942,-6.2942,-6.2942,-6.2942,-6.2942,-6.2942,-6.2942,-6.2942,-6.2942,-6.2648,-6.2086,-6.1951,-6.1519,-6.1002,-5.8982,-5.7681,-5.7395,-5.4646,-5.3044,-5.274,-5.187,-5.1431,-5.1431,-5.1431,-5.1431,-5.1431,-5.1431,-5.1431,-5.1431,-5.1431,-5.1431,-5.1431,-5.1431,-5.1431,-5.1431,-5.1431,-5.1431,-5.1431,-5.1431,-5.1431,-5.1431,-5.1431,-5.1431,-5.1431,-5.1431,-5.1431,-5.1431,-5.1431,-5.1431,-5.1431,-5.1431,-5.1431,-5.1431,-5.1431,-5.1431,-5.1431,-5.1431,-5.1431,-5.1431,-5.1431,-5.1431,-5.1431,-5.1431,-5.1431,-5.1431,-5.1431,-5.1431,-5.1431,-5.1431,-5.0765,-5.0191,-4.9939,-4.925,-4.8191,-4.6574,-4.6085,-4.5103,-4.3517,-4.2504,-4.1817,-4.0908,0.0,-3.9465,-3.8968,-3.83,-3.8198,-3.9007,-3.8683,-3.8323,-3.8323,-3.8323,-3.8323,-3.8323,-3.8323,-3.8323,-3.8323,-3.8323,-3.8323,-3.8323,-3.8323,-3.8323,-3.8323,-3.8323,-3.7447,-3.6378,-3.7791,-3.743,-3.6378,-3.7791,-3.8392,-3.846,-6.4235,-6.3532,-6.2942,-6.2942,-6.2942,-6.2942,-6.2942,-6.2648,-6.2381,-6.2381,-6.2381,-6.2381,-6.2381,-6.2648,-6.2515,-6.1383,-6.1247,-6.0975,-6.0288,-5.8418,-5.7277,-5.7277,-5.5238,-5.3774,-5.3195,-5.2588,-5.2024,-5.1431,-5.1431,-5.1431,-5.1431,-5.1431,-5.1431,-5.1431,-5.1431,-5.1431,-5.1431,-5.1431,-5.1431,-5.1431,-5.1431,-5.1431,-5.1431,-5.1431,-5.1431,-5.1431,-5.1431,-5.1431,-5.1431,-5.1431,-5.1431,-5.1431,-5.1431,-5.1431,-5.1431,-5.1431,-5.1431,-5.1431,-5.1431,-5.1431,-5.1431,-5.1431,-5.1431,-5.1431,-5.1431,-5.1431,-5.1431,-5.1431,-5.1431,-5.1431,-5.1431,-5.1431,-5.1431,-5.1431,-5.0582,-4.9916,-4.9916,-4.8407,-4.7025,-4.6548,-4.5053,-4.3705,-4.2851,-4.2135,-4.1189,-4.0234,-3.9902,-3.9402,-3.8733,-3.8565,-3.842,-3.8666,-3.8494,-3.8323,-3.8323,-3.8323,-3.8323,-3.8323,-3.8323,-3.8323,-3.8323,-3.8323,-3.8323,-3.8323,-3.8323,-3.8323,-3.8152,-3.743,-3.6378,-3.5668,-3.6551,-3.6378,-3.5668,-3.7619,-3.8323,-3.8323,-6.4769,-6.3757,-6.2942,-6.2942,-6.2942,-6.2914,-6.2781,-6.222,-6.1789,-6.1789,-6.1789,-6.1789,-6.1951,-6.2381,-6.2248,-6.0865,-6.0591,-6.015,-5.9455,-5.7876,-5.7014,-5.7014,-5.5851,-5.4819,-5.3774,-5.3322,-5.2588,-5.1431,-5.1431,-5.1431,-5.1431,-5.1431,-5.1431,-5.1431,-5.1431,-5.1431,-5.1431,-5.1431,-5.1431,-5.1431,-5.1431,-5.1431,-5.1431,-5.1431,-5.1431,-5.1431,-5.1431,-5.1431,-5.1431,-5.1431,-5.1431,-5.1431,-5.1431,-5.1431,-5.1431,-5.1431,-5.1431,-5.1431,-5.1431,-5.1431,-5.1431,-5.1431,-5.1431,-5.1431,-5.1431,-5.1431,-5.1431,-5.1431,-5.1431,-5.1431,-5.1431,-5.1431,-5.1385,-5.1224,-5.0352,-4.9514,-4.9364,-4.7232,-4.5986,-4.648,-4.4035,-4.2508,-4.3079,-4.1863,-4.0892,-4.0403,-4.0233,-3.9876,-3.9025,-3.8854,-3.8683,-3.8323,-3.8323,-3.8323,-3.8323,-3.8323,-3.8323,-3.8323,-3.8323,-3.8323,-3.8323,-3.8323,-3.8323,-3.8323,-3.8323,-3.8323,-3.8152,-3.6205,-3.5304,-3.5146,-3.532,-3.5304,-3.532,-3.7447,-3.8323,-3.8323,-6.4769,-6.3757,-6.2942,-6.2942,-6.2942,-6.2648,-6.2086,-6.1923,-6.1789,-6.1789,-6.1789,-6.2086,-6.2648,-6.222,-6.1681,-6.0728,-6.015,-5.9455,-5.8779,-5.8355,-5.8212,-5.8212,-5.7014,-5.641,-5.6118,-5.4199,-5.2588,-5.1431,-5.1431,-5.1431,-5.1431,-5.1431,-5.1431,-5.1431,-5.1431,-5.1431,-5.1431,-5.1431,-5.1431,-5.1431,-5.1431,-5.1431,-5.1431,-5.1431,-5.1431,-5.1431,-5.1431,-5.1431,-5.1431,-5.1431,-5.1431,-5.1431,-5.1431,-5.1431,-5.1431,-5.1431,-5.1431,-5.1431,-5.1431,-5.1431,-5.1431,-5.1431,-5.1431,-5.1431,-5.1431,-5.1431,-5.1431,-5.1431,-5.1431,-5.1431,-5.1431,-5.1431,-5.1133,-5.0283,-4.9296,-4.8168,-4.6624,-4.6046,-4.506,-4.318,-4.3151,-4.2856,-4.1528,-4.0892,-4.0403,-4.0403,-3.9724,-3.9195,-3.9025,-3.8683,-3.834,-3.8323,-3.8323,-3.8323,-3.8323,-3.8323,-3.8323,-3.8323,-3.8323,-3.8323,-3.8323,-3.8323,-3.8323,-3.8323,-3.8323,-3.8323,-3.8152,-3.6205,-3.4607,-3.3219,-3.4956,-3.4607,-3.3571,-3.7086,-3.8323,-3.8323,-6.4769,-6.3757,-6.2942,-6.2942,-6.2942,-6.2648,-6.1951,-6.1383,-6.1111,-6.0701,-6.0564,-6.0838,-6.1681,-6.1411,-6.1138,-6.0728,-6.0012,-5.9315,-5.8523,-5.8523,-5.8212,-5.7615,-5.7615,-5.704,-5.5851,-5.3497,-5.2024,-5.1431,-5.1431,-5.1431,-5.1431,-5.1431,-5.1431,-5.1431,-5.1431,-5.1431,-5.1431,-5.1431,-5.1431,-5.1431,-5.1431,-5.1431,-5.1431,-5.1431,-5.1431,-5.1431,-5.1431,-5.1431,-5.1431,-5.1431,-5.1431,-5.1431,-5.1431,-5.1431,-5.1431,-5.1431,-5.1431,-5.1431,-5.1431,-5.1431,-5.1431,-5.1431,-5.1431,-5.1431,-5.1431,-5.1431,-5.1431,-5.1431,-5.1431,-5.1431,-5.1431,-5.1431,-5.1087,-5.0076,-4.9502,-4.8588,-4.6874,-4.5791,-4.4588,-4.3092,-4.2595,-4.1863,-4.0892,-4.0572,-4.0216,-3.9706,-3.9195,-3.8854,-3.8683,-3.8512,-3.8323,-3.8323,-3.8323,-3.8323,-3.8323,-3.8323,-3.8323,-3.8323,-3.8323,-3.8323,-3.8323,-3.8323,-3.8323,-3.8323,-3.8323,-3.7791,-3.6724,-3.4797,-3.2852,-3.1273,-3.2146,-3.2499,-3.3043,-3.5842,-3.7447,-3.8323,-6.4769,-6.3757,-6.2942,-6.2942,-6.2942,-6.2648,-6.1681,-6.1138,-6.0453,-5.9734,-5.9595,-6.0012,-6.0865,-6.0728,-6.0591,-6.0728,-5.9873,-5.9061,-5.8523,-5.8212,-5.7759,-5.7159,-5.7759,-5.704,-5.4695,-5.2764,-5.1716,-5.1431,-5.1431,-5.1431,-5.1431,-5.1431,-5.1431,-5.1431,-5.1431,-5.1431,-5.1431,-5.1431,-5.1431,-5.1431,-5.1431,-5.1431,-5.1431,-5.1431,-5.1431,-5.1431,-5.1431,-5.1431,-5.1431,-5.1431,-5.1431,-5.1431,-5.1431,-5.1431,-5.1431,-5.1431,-5.1431,-5.1431,-5.1431,-5.1431,-5.1431,-5.1431,-5.1431,-5.1431,-5.1431,-5.1431,-5.1431,-5.1431,-5.1431,-5.1431,-5.1431,-5.1431,-5.1087,-5.0076,-4.9593,-4.8642,-4.6918,-4.519,-4.3779,-4.306,-4.1863,-4.0892,-4.0403,-4.0216,-3.9876,-3.9025,-3.8854,-3.8683,-3.8323,-3.8323,-3.8323,-3.8323,-3.8323,-3.8323,-3.8323,-3.8323,-3.8323,-3.8323,-3.8323,-3.8323,-3.8323,-3.8323,-3.798,-3.7619,-3.8152,-3.6913,-3.4781,-3.3219,-3.1628,-3.0025,-3.0383,-3.1451,-3.3043,-3.532,-3.7086,-3.8323,-6.4769,-6.3757,-6.2942,-6.2942,-6.2942,-6.2381,-6.1002,-6.0728,-6.0453,-5.9734,-5.9595,-6.015,-6.1519,-6.0564,-6.0012,-6.0591,-5.9342,-5.8523,-5.8523,-5.7446,-5.7303,-5.8355,-5.7303,-5.5679,-5.3322,-5.3195,-5.2459,-5.1431,-5.1431,-5.1431,-5.1431,-5.1431,-5.1431,-5.1431,-5.1431,-5.1431,-5.1431,-5.1431,-5.1431,-5.1431,-5.1431,-5.1431,-5.1431,-5.1431,-5.1431,-5.1431,-5.1431,-5.1431,-5.1431,-5.1431,-5.1431,-5.1431,-5.1431,-5.1431,-5.1431,-5.1431,-5.1431,-5.1431,-5.1431,-5.1431,-5.1431,-5.1431,-5.1431,-5.1431,-5.1431,-5.1431,-5.1431,-5.1431,-5.1431,-5.1431,-5.1431,-5.1431,-5.1087,-5.0076,-4.849,-4.6918,-4.517,-4.3459,-4.2029,-4.1286,-4.1229,-4.0892,-4.0403,-4.0046,-3.9536,-3.9025,-3.8683,-3.8323,-3.8323,-3.8323,-3.8323,-3.8323,-3.8323,-3.8323,-3.8323,-3.8323,-3.8323,-3.8323,-3.8323,-3.8323,-3.8323,-3.8323,-3.7258,-3.5842,-3.7619,-3.6205,-3.2867,-3.269,-3.1628,-3.0025,-3.1806,-3.2514,-3.3219,-3.674,-3.8152,-3.8323,-6.4235,-6.3504,-6.2942,-6.2942,-6.2515,-6.1816,-6.0865,-6.0288,-5.9734,-5.9061,-5.892,-5.9482,-6.1002,-5.9734,-5.9342,-6.0591,-5.9342,-5.8523,-5.8523,-5.807,-5.7328,-5.6314,-5.4522,-5.3322,-5.3195,-5.2459,-5.187,-5.1431,-5.1431,-5.1431,-5.1431,-5.1431,-5.1431,-5.1431,-5.1431,-5.1431,-5.1431,-5.1431,-5.1431,-5.1431,-5.1431,-5.1431,-5.1431,-5.1431,-5.1431,-5.1431,-5.1431,-5.1431,-5.1431,-5.1431,-5.1431,-5.1431,-5.1431,-5.1431,-5.1431,-5.1431,-5.1431,-5.1431,-5.1431,-5.1431,-5.1431,-5.1431,-5.1431,-5.1431,-5.1431,-5.1431,-5.1431,-5.1431,-5.1431,-5.1431,-5.1431,-5.0455,-4.9474,-4.8494,-4.7415,-4.5837,-4.336,-4.3116,-4.2461,-4.1173,-4.0892,-4.0554,-4.0046,-3.9536,-3.9025,-3.8683,-3.834,-3.8323,-3.8323,-3.8323,-3.8323,-3.8323,-3.8323,-3.8323,-3.8323,-3.8323,-3.8323,-3.8323,-3.8323,-3.8323,-3.8323,-3.8323,-3.7258,-3.5494,-3.6188,-3.4432,-3.0917,-3.0917,-2.986,-2.8269,-3.0204,-3.1628,-3.3043,-3.5668,-3.7258,-3.8323,-6.3869,-6.2906,-6.222,-6.2515,-6.1789,-6.0811,-5.9846,-5.9289,-5.8727,-5.8044,-5.8186,-5.8894,-6.0591,-5.9621,-5.9342,-6.0591,-5.9342,-5.8523,-5.8523,-5.7784,-5.675,-5.514,-5.3044,-5.2154,-5.2588,-5.187,-5.1431,-5.1431,-5.1431,-5.1431,-5.1431,-5.1431,-5.1431,-5.1431,-5.1431,-5.1431,-5.1431,-5.1431,-5.1431,-5.1431,-5.1431,-5.1431,-5.1431,-5.1431,-5.1431,-5.1431,-5.1431,-5.1431,-5.1431,-5.1431,-5.1431,-5.1431,-5.1431,-5.1431,-5.1431,-5.1431,-5.1431,-5.1431,-5.1431,-5.1431,-5.1431,-5.1431,-5.1431,-5.1431,-5.1431,-5.1431,-5.1431,-5.1431,-5.1431,-5.1254,-5.0611,-4.9629,-4.8444,-4.7147,-4.6149,-4.4724,-4.2832,-4.279,-4.2345,-4.1229,-4.0723,-4.0216,-3.9689,-3.9366,-3.8854,-3.8323,-3.8323,-3.8323,-3.8323,-3.8323,-3.8323,-3.8323,-3.8323,-3.8323,-3.8323,-3.8323,-3.8323,-3.8323,-3.8323,-3.8323,-3.8323,-3.8323,-3.6913,-3.4607,-3.5304,-3.3028,-2.8976,-2.9681,-2.8796,-2.7208,-2.9143,-3.1095,-3.2867,-3.4781,-3.6724,-3.8323,-6.3785,-6.2012,-6.092,-6.1654,-6.0537,-5.9122,-5.7966,-5.7824,-5.7564,-5.6844,-5.7277,-5.856,-6.0426,-6.0012,-5.9873,-6.0591,-5.9342,-5.8523,-5.8523,-5.6314,-5.4992,-5.4992,-5.3798,-5.2588,-5.1431,-5.1431,-5.1431,-5.1431,-5.1431,-5.1431,-5.1431,-5.1431,-5.1431,-5.1431,-5.1431,-5.1431,-5.1431,-5.1431,-5.1431,-5.1431,-5.1431,-5.1431,-5.1431,-5.1431,-5.1431,-5.1431,-5.1431,-5.1431,-5.1431,-5.1431,-5.1431,-5.1431,-5.1431,-5.1431,-5.1431,-5.1431,-5.1431,-5.1431,-5.1431,-5.1431,-5.1431,-5.1431,-5.1431,-5.1431,-5.1431,-5.1431,-5.1431,-5.1431,-5.1431,-5.0789,-4.9157,-4.882,-4.8165,-4.6384,-4.4762,-4.3633,-4.3633,-4.2197,-4.106,-4.106,-4.0723,-4.0216,-3.9689,-3.9195,-3.8854,-3.8323,-3.8323,-3.8323,-3.8323,-3.8323,-3.8323,-3.8323,-3.8323,-3.8323,-3.8323,-3.8323,-3.8323,-3.8323,-3.8323,-3.8323,-3.8323,-3.8323,-3.6221,-3.2867,-3.4607,-3.2322,-2.7208,-2.9156,-2.8796,-2.7208,-2.9143,-3.1095,-3.2867,-3.4781,-3.6724,-3.8323,-6.1685,-6.1029,-6.0345,-5.9515,-5.8392,-5.7421,-5.7133,-5.641,-5.5972,-5.6555,-5.6435,-5.7133,-5.9595,-5.8779,-5.8497,-5.9873,-5.9061,-5.8523,-5.8523,-5.7014,-5.5851,-5.4992,-5.3068,-5.1716,-5.1431,-5.1431,-5.1431,-5.1431,-5.1431,-5.1431,-5.1431,-5.1431,-5.1431,-5.1431,-5.1431,-5.1431,-5.1431,-5.1431,-5.1431,-5.1431,-5.1431,-5.1431,-5.1431,-5.1431,-5.1431,-5.1431,-5.1431,-5.1431,-5.1431,-5.1431,-5.1431,-5.1431,-5.1431,-5.1431,-5.1431,-5.1431,-5.1431,-5.1431,-5.1431,-5.1431,-5.1431,-5.1431,-5.1431,-5.1431,-5.1431,-5.1431,-5.1431,-5.1431,-5.0455,-4.9472,-4.882,-4.6867,-4.4925,-4.4454,-4.2991,-4.1863,-4.1863,-4.1378,-4.106,-4.0723,-4.0216,-3.9706,-3.9195,-3.8854,-3.8512,-3.8323,-3.8323,-3.8323,-3.8323,-3.8323,-3.8323,-3.8323,-3.8323,-3.7619,-3.6378,-3.7619,-3.7619,-3.6378,-3.6378,-3.6378,-3.6378,-3.6378,-3.4972,-3.269,-3.3219,-3.1095,-2.7027,-2.7558,-2.7558,-2.7208,-2.9143,-3.1095,-3.2867,-3.4781,-3.6724,-3.8323,-5.9402,-5.8763,-5.8198,-5.7655,-5.6384,-5.5557,-5.5385,-5.467,-5.4522,-5.5238,-5.5238,-5.5826,-5.7992,-5.7876,-5.7901,-5.8868,-5.8612,-5.8523,-5.8523,-5.6895,-5.5704,-5.4992,-5.2764,-5.1431,-5.1431,-5.1431,-5.1431,-5.1431,-5.1431,-5.1431,-5.1431,-5.1431,-5.1431,-5.1431,-5.1431,-5.1431,-5.1431,-5.1431,-5.1431,-5.1431,-5.1431,-5.1431,-5.1431,-5.1431,-5.1431,-5.1431,-5.1431,-5.1431,-5.1431,-5.1431,-5.1431,-5.1431,-5.1431,-5.1431,-5.1431,-5.1431,-5.1431,-5.1431,-5.1431,-5.1431,-5.1431,-5.1431,-5.1431,-5.1431,-5.1431,-5.1431,-5.1254,-5.0455,-4.9472,-4.8345,-4.7048,-4.5088,-4.3303,-4.2659,-4.1695,-4.106,-4.106,-4.106,-4.0892,-4.0403,-4.0046,-3.9536,-3.9025,-3.8512,-3.8323,-3.8323,-3.8323,-3.8323,-3.8323,-3.8323,-3.8323,-3.8323,-3.7619,-3.6724,-3.5494,-3.5858,-3.5494,-3.4432,-3.513,-3.5146,-3.4432,-3.4432,-3.338,-3.1628,-3.1628,-2.986,-2.7027,-2.7027,-2.7027,-2.7208,-2.8269,-3.0383,-3.2867,-3.3907,-3.6031,-3.8323,-5.7056,-5.5897,-5.5041,-5.5629,-5.467,-5.3521,-5.3195,-5.3044,-5.3044,-5.3195,-5.375,-5.4621,-5.5922,-5.6819,-5.7538,-5.7681,-5.8186,-5.8664,-5.8664,-5.6605,-5.5263,-5.514,-5.2764,-5.1585,-5.1431,-5.1431,-5.1431,-5.1431,-5.1431,-5.1431,-5.1431,-5.1431,-5.1431,-5.1431,-5.1431,-5.1431,-5.1431,-5.1431,-5.1431,-5.1431,-5.1431,-5.1431,-5.1431,-5.1431,-5.1431,-5.1431,-5.1431,-5.1431,-5.1431,-5.1431,-5.1431,-5.1431,-5.1431,-5.1431,-5.1431,-5.1431,-5.1431,-5.1431,-5.1431,-5.1431,-5.1431,-5.1431,-5.1431,-5.1431,-5.1431,-5.1254,-5.0766,-4.9157,-4.8504,-4.7368,-4.4126,-4.3468,-4.2825,-4.1378,-4.106,-4.106,-4.106,-4.106,-4.0892,-4.0385,-4.0046,-3.9519,-3.9025,-3.8512,-3.8323,-3.8323,-3.8323,-3.8323,-3.8323,-3.8323,-3.8323,-3.8323,-3.6724,-3.5668,-3.532,-3.3731,-3.2867,-3.2514,-3.4257,-3.4082,-3.2514,-3.2514,-3.1451,-2.9847,-2.9847,-2.8796,-2.7027,-2.7027,-2.7027,-2.7027,-2.7027,-2.9156,-3.2514,-3.269,-3.4972,-3.8152,-5.5483,-5.5189,-5.4621,-5.3624,-5.274,-5.2307,-5.2307,-5.2024,-5.2154,-5.3044,-5.274,-5.3195,-5.4967,-5.4819,-5.5263,-5.6844,-5.8444,-5.9595,-6.0177,-5.8276,-5.6819,-5.5947,-5.39,-5.2307,-5.1431,-5.1431,-5.1431,-5.1431,-5.1431,-5.1431,-5.1431,-5.1431,-5.1431,-5.1431,-5.1431,-5.1431,-5.1431,-5.1431,-5.1431,-5.1431,-5.1431,-5.1431,-5.1431,-5.1431,-5.1431,-5.1431,-5.1431,-5.1431,-5.1431,-5.1431,-5.1431,-5.1431,-5.1431,-5.1431,-5.1431,-5.1431,-5.1431,-5.1431,-5.1431,-5.1431,-5.1431,-5.1431,-5.1431,-5.1431,-5.1431,-5.0299,-4.9315,-4.882,-4.6566,-4.4454,-4.3797,-4.2512,-4.1546,-4.1229,-4.106,-4.106,-4.106,-4.106,-4.0723,-3.9858,-3.9689,-3.9348,-3.8494,-3.8323,-3.8323,-3.8323,-3.8323,-3.8323,-3.8323,-3.8323,-3.8323,-3.8323,-3.798,-3.6205,-3.3395,-3.4432,-3.338,-3.0561,-3.0904,-3.0904,-3.0561,-3.0561,-3.0204,-2.9847,-2.9847,-2.8796,-2.7027,-2.7027,-2.7027,-2.7027,-2.7027,-2.8449,-3.0739,-3.216,-3.4097,-3.6378,-5.3322,-5.3171,-5.302,-5.2154,-5.187,-5.1716,-5.1716,-5.1585,-5.1562,-5.2307,-5.2,-5.2177,-5.3219,-5.3346,-5.4098,-5.5704,-5.687,-5.759,-5.7992,-5.6529,-5.5361,-5.477,-5.3171,-5.2,-5.1431,-5.1431,-5.1431,-5.1431,-5.1431,-5.1431,-5.1431,-5.1431,-5.1431,-5.1431,-5.1431,-5.1431,-5.1431,-5.1431,-5.1431,-5.1431,-5.1431,-5.1431,-5.1431,-5.1431,-5.1431,-5.1431,-5.1431,-5.1431,-5.1431,-5.1431,-5.1431,-5.1431,-5.1431,-5.1431,-5.1431,-5.1431,-5.1431,-5.1431,-5.1431,-5.1431,-5.1254,-5.0299,-5.0121,-5.0455,-5.1254,-5.0121,-4.8504,-4.7688,-4.5413,-4.3322,-4.2512,-4.1714,-4.106,-4.106,-4.106,-4.106,-4.106,-4.106,-4.0723,-3.9858,-3.9689,-3.9348,-3.8323,-3.8323,-3.8323,-3.8323,-3.8323,-3.8323,-3.8323,-3.8323,-3.8323,-3.8323,-3.7447,-3.5684,-3.269,-3.2852,-3.1437,-2.8436,-2.9502,-2.9322,-2.8436,-2.8436,-2.8436,-2.8436,-2.8436,-2.7908,-2.7027,-2.7027,-2.7027,-2.7027,-2.7027,-2.8269,-3.0204,-3.1983,-3.4447,-3.6913,-5.1431,-5.1431,-5.1431,-5.1431,-5.1431,-5.1431,-5.1431,-5.1431,-5.1431,-5.1431,-5.1431,-5.1431,-5.1431,-5.2459,-5.3624,-5.4819,-5.5115,-5.5263,-5.541,-5.4074,-5.3322,-5.3322,-5.2154,-5.1431,-5.1431,-5.1431,-5.1431,-5.1431,-5.1431,-5.1431,-5.1431,-5.1431,-5.1431,-5.1431,-5.1431,-5.1431,-5.1431,-5.1431,-5.1431,-5.1431,-5.1431,-5.1431,-5.1431,-5.1431,-5.1431,-5.1431,-5.1431,-5.1431,-5.1431,-5.1431,-5.1431,-5.1431,-5.1431,-5.1431,-5.1431,-5.1431,-5.1431,-5.1431,-5.1431,-5.1254,-5.0611,-4.9157,-4.8504,-4.8662,-5.0121,-4.9157,-4.7528,-4.6061,-4.4454,-4.2678,-4.1378,-4.106,-4.106,-4.106,-4.106,-4.106,-4.106,-4.106,-4.0723,-3.9858,-3.9519,-3.9178,-3.8323,-3.8323,-3.8323,-3.8323,-3.8323,-3.8323,-3.8323,-3.8323,-3.8323,-3.8323,-3.6724,-3.5146,-3.3219,-3.1273,-2.9322,-2.7558,-2.8796,-2.8616,-2.7027,-2.7027,-2.7027,-2.7027,-2.7027,-2.7027,-2.7027,-2.7027,-2.7208,-2.7377,-2.7208,-2.8269,-3.0204,-3.1983,-3.5146,-3.8323,-5.1431,-5.1431,-5.1431,-5.1431,-5.1431,-5.1431,-5.1431,-5.1431,-5.1431,-5.1431,-5.1431,-5.1431,-5.1431,-5.2459,-5.3473,-5.4324,-5.5361,-5.6214,-5.6912,-5.5189,-5.4175,-5.4175,-5.2436,-5.1431,-5.1431,-5.1431,-5.1431,-5.1431,-5.1431,-5.1431,-5.1431,-5.1431,-5.1431,-5.1431,-5.1431,-5.1431,-5.1431,-5.1431,-5.1431,-5.1431,-5.1431,-5.1431,-5.1431,-5.1431,-5.1431,-5.1431,-5.1431,-5.1431,-5.1431,-5.1431,-5.1431,-5.1431,-5.1431,-5.1431,-5.1431,-5.1431,-5.1431,-5.1431,-5.1431,-5.0299,-4.9157,-4.882,-4.7688,-4.6545,-4.6888,-4.5576,-4.4291,-4.3962,-4.2678,-4.1378,-4.106,-4.106,-4.106,-4.106,-4.106,-4.106,-4.106,-4.0723,-4.0216,-3.9689,-3.9007,-3.8494,-3.8323,-3.8323,-3.8323,-3.8323,-3.8323,-3.8323,-3.8323,-3.8323,-3.8323,-3.8323,-3.798,-3.7086,-3.5146,-3.3204,-3.1451,-2.9502,-2.8088,-2.7208,-2.7027,-2.7027,-2.7027,-2.7027,-2.7027,-2.7027,-2.7027,-2.7027,-2.7908,-2.9322,-2.7739,-2.8269,-3.0204,-3.1983,-3.5146,-3.8323,-5.1431,-5.1431,-5.1431,-5.1431,-5.1431,-5.1431,-5.1431,-5.1431,-5.1431,-5.1431,-5.1431,-5.1431,-5.1431,-5.187,-5.2307,-5.2588,-5.3171,-5.36,-5.3876,-5.3171,-5.274,-5.274,-5.187,-5.1431,-5.1431,-5.1431,-5.1431,-5.1431,-5.1431,-5.1431,-5.1431,-5.1431,-5.1431,-5.1431,-5.1431,-5.1431,-5.1431,-5.1431,-5.1431,-5.1431,-5.1431,-5.1431,-5.1431,-5.1431,-5.1431,-5.1431,-5.1431,-5.1431,-5.1431,-5.1431,-5.1431,-5.1431,-5.1431,-5.1431,-5.1431,-5.1431,-5.1431,-5.1254,-5.0277,-4.9315,-4.8345,-4.6384,-4.5251,-4.4454,-4.3487,-4.2844,-4.2512,-4.3468,-4.2345,-4.106,-4.106,-4.106,-4.106,-4.106,-4.106,-4.106,-4.106,-4.0892,-4.0554,-3.9858,-3.8837,-3.8323,-3.8323,-3.8323,-3.8323,-3.8323,-3.8323,-3.8323,-3.8323,-3.8323,-3.8323,-3.8323,-3.8323,-3.743,-3.5494,-3.4607,-3.2852,-2.9847,-2.8976,-2.8088,-2.7027,-2.7027,-2.7027,-2.7027,-2.7027,-2.7027,-2.7027,-2.7027,-2.7558,-2.8269,-2.739,-2.8796,-3.1628,-3.2337,-3.5146,-3.8323]}]]